[[{"header":{"parameterUnit":"m.s-1","parameterCategory":1,"la1":31.0,"la2":29.5877,"lo1":-88.7671,"lo2":-86.6584,"dy":0.0162,"dx":0.0185,"nx":115,"ny":88,"refTime":"2024-02-16T06:00:00:Z","depth":0,"parameterNumber":2,"parameterNumberName":"U-component_of_WINDS"},"data":[0.0,0.0,0.0,0.0,0.0,0.0,0.0,0.0,0.0,0.0,0.0,0.0,0.0,0.0,0.0,0.0,0.0,0.0,0.0,0.0,0.0,0.0,0.0,0.0,0.0,0.0,0.0,0.0,0.0,0.0,0.0,0.0,0.0,0.0,0.0,0.0,0.0,0.0,0.0,0.0,0.0,0.0,0.0,0.0,0.0,0.0,0.0,0.0,0.0,0.0,0.0,0.0,0.0,0.0,0.0,0.0,0.0,0.0,0.0,0.0,0.0,0.0,0.0,0.0,0.0,0.0,0.0,0.0,0.0,0.0,0.0,0.0,0.0,0.0,0.0,0.0,0.0,0.0,0.0,0.0,0.0,0.0,0.0,0.0,0.0,0.0,0.0,0.0,0.0,0.0,0.0,0.0,0.0,0.0,0.0,0.0,0.0,0.0,0.0,0.0,0.0,0.0,0.0,0.0,0.0,0.0,0.0,0.0,0.0,0.0,0.0,0.0,0.0,0.0,0.0,0.0,0.0,0.0,0.0,0.0,0.0,0.0,0.0,0.0,0.0,0.0,0.0,0.0,0.0,0.0,0.0,0.0,0.0,0.0,0.0,0.0,0.0,0.0,0.0,0.0,0.0,0.0,0.0,0.0,0.0,0.0,0.0,0.0,0.0,0.0,0.0,0.0,0.0,0.0,0.0,0.0,0.0,0.0,0.0,0.0,0.0,0.0,0.0,0.0,0.0,0.0,0.0,0.0,0.0,0.0,0.0,0.0,0.0,0.0,0.0,0.0,0.0,0.0,0.0,0.0,0.0,0.0,0.0,0.0,0.0,0.0,0.0,0.0,0.0,0.0,0.0,0.0,0.0,0.0,0.0,0.0,0.0,0.0,0.0,0.0,0.0,0.0,0.0,0.0,0.0,0.0,0.0,0.0,0.0,0.0,0.0,0.0,0.0,0.0,0.0,0.0,0.0,0.0,0.0,0.0,0.0,0.0,0.0,0.0,0.0,0.0,0.0,0.0,0.0,0.0,0.0,0.0,0.0,0.0,0.0,0.0,0.0,0.0,0.0,0.0,0.0,0.0,0.0,0.0,0.0,0.0,0.0,0.0,0.0,0.0,0.0,0.0,0.0,0.0,0.0,0.0,0.0,0.0,0.0,0.0,0.0,0.0,0.0,0.0,0.0,0.0,0.0,0.0,0.0,0.0,0.0,0.0,0.0,0.0,0.0,0.0,0.0,0.0,0.0,0.0,0.0,0.0,0.0,0.0,0.0,0.0,0.0,0.0,0.0,0.0,0.0,0.0,0.0,0.0,0.0,0.0,0.0,0.0,0.0,0.0,0.0,0.0,0.0,0.0,0.0,0.0,0.0,0.0,0.0,0.0,0.0,0.0,0.0,0.0,0.0,0.0,0.0,0.0,0.0,0.0,0.0,0.0,0.0,0.0,0.0,0.0,0.0,0.0,0.0,0.0,0.0,0.0,0.0,0.0,0.0,0.0,0.0,0.0,0.0,0.0,0.0,0.0,0.0,0.0,0.0,0.0,0.0,0.0,0.0,0.0,0.0,0.0,0.0,0.0,0.0,0.0,0.0,0.0,0.0,0.0,0.0,0.0,0.0,0.0,0.0,0.0,0.0,0.0,0.0,0.0,0.0,0.0,0.0,0.0,0.0,0.0,0.0,0.0,0.0,0.0,0.0,0.0,0.0,0.0,0.0,0.0,0.0,0.0,0.0,0.0,0.0,0.0,0.0,0.0,0.0,0.0,0.0,0.0,0.0,0.0,0.0,0.0,0.0,0.0,0.0,0.0,0.0,0.0,0.0,0.0,0.0,0.0,0.0,0.0,0.0,0.0,0.0,0.0,0.0,0.0,0.0,0.0,0.0,0.0,0.0,0.0,0.0,0.0,0.0,0.0,0.0,0.0,0.0,0.0,0.0,0.0,0.0,0.0,0.0,0.0,0.0,0.0,0.0,0.0,0.0,0.0,0.0,0.0,0.0,0.0,0.0,0.0,0.0,0.0,0.0,0.0,0.0,0.0,0.0,0.0,0.0,0.0,0.0,0.0,0.0,0.0,0.0,0.0,0.0,0.0,0.0,0.0,0.0,0.0,0.0,0.0,0.0,0.0,0.0,0.0,0.0,0.0,0.0,0.0,0.0,0.0,0.0,0.0,0.0,0.0,0.0,0.0,0.0,0.0,0.0,0.0,0.0,0.0,0.0,0.0,0.0,0.0,0.0,0.0,0.0,0.0,0.0,0.0,0.0,0.0,0.0,0.0,0.0,0.0,0.0,0.0,0.0,0.0,0.0,0.0,0.0,0.0,0.0,0.0,0.0,0.0,0.0,0.0,0.0,0.0,0.0,0.0,0.0,0.0,0.0,0.0,0.0,0.0,0.0,0.0,0.0,0.0,0.0,0.0,0.0,0.0,0.0,0.0,0.0,0.0,0.0,0.0,0.0,0.0,0.0,0.0,0.0,0.0,0.0,0.0,0.0,0.0,0.0,0.0,0.0,0.0,0.0,0.0,0.0,0.0,0.0,0.0,0.0,0.0,0.0,0.0,0.0,0.0,0.0,0.0,0.0,0.0,0.0,0.0,0.0,0.0,0.0,0.0,0.0,0.0,0.0,0.0,0.0,0.0,0.0,0.0,0.0,0.0,0.0,0.0,0.0,0.0,0.0,0.0,0.0,0.0,0.0,0.0,0.0,0.0,0.0,0.0,0.0,0.0,0.0,0.0,0.0,0.0,0.0,0.0,0.0,0.0,0.0,0.0,0.0,0.0,0.0,0.0,0.0,0.0,0.0,0.0,0.0,0.0,0.0,0.0,0.0,0.0,0.0,0.0,0.0,0.0,0.0,0.0,0.0,0.0,0.0,0.0,0.0,0.0,0.0,0.0,0.0,0.0,0.0,0.0,0.0,0.0,0.0,0.0,0.0,0.0,0.0,0.0,0.0,0.0,0.0,0.0,0.0,0.0,0.0,0.0,0.0,0.0,0.0,0.0,0.0,0.0,0.0,0.0,0.0,0.0,0.0,0.0,0.0,0.0,0.0,0.0,0.0,0.0,0.0,0.0,0.0,0.0,0.0,0.0,0.0,0.0,0.0,0.0,0.0,0.0,0.0,0.0,0.0,0.0,0.0,0.0,0.0,0.0,0.0,0.0,0.0,0.0,0.0,0.0,0.0,0.0,0.0,0.0,0.0,0.0,0.0,0.0,0.0,0.0,0.0,0.0,0.0,0.0,0.0,0.0,0.0,0.0,0.0,0.0,0.0,0.0,0.0,0.0,0.0,0.0,0.0,0.0,0.0,0.0,0.0,0.0,0.0,0.0,0.0,0.0,0.0,0.0,0.0,0.0,0.0,0.0,0.0,0.0,0.0,0.0,0.0,0.0,0.0,0.0,0.0,0.0,0.0,0.0,0.0,0.0,0.0,0.0,0.0,0.0,0.0,0.0,0.0,0.0,0.0,0.0,0.0,0.0,0.0,0.0,0.0,0.0,0.0,0.0,0.0,0.0,0.0,0.0,0.0,0.0,0.0,0.0,0.0,0.0,0.0,0.0,0.0,0.0,0.0,0.0,0.0,0.0,0.0,0.0,0.0,0.0,0.0,0.0,0.0,0.0,0.0,0.0,0.0,0.0,0.0,0.0,0.0,0.0,0.0,0.0,0.0,0.0,0.0,0.0,0.0,0.0,0.0,0.0,0.0,0.0,0.0,0.0,0.0,0.0,0.0,0.0,0.0,0.0,0.0,0.0,0.0,0.0,0.0,0.0,0.0,0.0,0.0,0.0,0.0,0.0,0.0,0.0,0.0,0.0,0.0,0.0,0.0,0.0,0.0,0.0,0.0,0.0,0.0,0.0,0.0,0.0,0.0,0.0,0.0,0.0,0.0,0.0,0.0,0.0,0.0,0.0,0.0,0.0,0.0,0.0,0.0,0.0,0.0,0.0,0.0,0.0,0.0,0.0,0.0,0.0,0.0,0.0,0.0,0.0,0.0,0.0,0.0,0.0,0.0,0.0,0.0,0.0,0.0,0.0,0.0,0.0,0.0,0.0,0.0,0.0,0.0,0.0,0.0,0.0,0.0,0.0,0.0,0.0,0.0,0.0,0.0,0.0,0.0,0.0,0.0,0.0,0.0,0.0,0.0,0.0,0.0,0.0,0.0,0.0,0.0,0.0,0.0,0.0,0.0,0.0,0.0,0.0,0.0,0.0,0.0,0.0,0.0,0.0,0.0,0.0,0.0,0.0,0.0,0.0,0.0,0.0,0.0,0.0,0.0,0.0,-1.8008,0.0,0.0,0.0,0.0,0.0,0.0,0.0,0.0,0.0,0.0,0.0,0.0,0.0,0.0,0.0,0.0,0.0,0.0,0.0,0.0,0.0,0.0,0.0,0.0,0.0,0.0,0.0,0.0,0.0,0.0,0.0,0.0,0.0,0.0,0.0,0.0,0.0,0.0,0.0,0.0,0.0,0.0,0.0,0.0,0.0,0.0,0.0,0.0,0.0,0.0,0.0,0.0,0.0,0.0,0.0,0.0,0.0,0.0,0.0,0.0,0.0,0.0,0.0,0.0,0.0,0.0,0.0,0.0,0.0,0.0,0.0,0.0,0.0,0.0,0.0,0.0,0.0,0.0,0.0,0.0,0.0,0.0,0.0,0.0,0.0,0.0,0.0,0.0,0.0,0.0,0.0,0.0,0.0,0.0,0.0,0.0,0.0,0.0,0.0,0.0,0.0,0.0,0.0,0.0,0.0,0.0,0.0,0.0,0.0,0.0,-1.8008,-1.8008,-1.8008,-1.8008,-1.8008,0.0,0.0,0.0,0.0,0.0,0.0,0.0,0.0,0.0,0.0,0.0,0.0,0.0,0.0,0.0,0.0,0.0,0.0,0.0,0.0,0.0,0.0,0.0,0.0,0.0,0.0,0.0,0.0,0.0,0.0,0.0,0.0,0.0,0.0,0.0,0.0,0.0,0.0,0.0,0.0,0.0,0.0,0.0,0.0,0.0,0.0,0.0,0.0,0.0,0.0,0.0,0.0,0.0,0.0,0.0,0.0,0.0,0.0,0.0,0.0,0.0,0.0,0.0,0.0,0.0,0.0,0.0,0.0,0.0,0.0,0.0,0.0,0.0,0.0,0.0,0.0,0.0,0.0,0.0,0.0,0.0,0.0,0.0,0.0,0.0,0.0,0.0,0.0,0.0,0.0,0.0,0.0,0.0,0.0,0.0,0.0,0.0,0.0,0.0,0.0,0.0,0.0,0.0,0.0,0.0,0.0,0.0,0.0,0.0,0.0,0.0,0.0,-1.8008,-1.8008,-1.8008,0.0,0.0,0.0,0.0,0.0,0.0,0.0,0.0,0.0,0.0,0.0,0.0,0.0,0.0,0.0,0.0,0.0,0.0,0.0,0.0,0.0,0.0,0.0,0.0,0.0,0.0,0.0,0.0,0.0,0.0,0.0,0.0,0.0,0.0,0.0,0.0,0.0,0.0,0.0,0.0,0.0,0.0,0.0,0.0,0.0,0.0,0.0,0.0,0.0,0.0,0.0,0.0,0.0,0.0,0.0,0.0,0.0,0.0,0.0,0.0,0.0,0.0,0.0,0.0,0.0,0.0,0.0,0.0,0.0,0.0,0.0,0.0,0.0,0.0,0.0,0.0,0.0,0.0,0.0,0.0,0.0,0.0,0.0,0.0,0.0,0.0,0.0,0.0,0.0,0.0,0.0,0.0,0.0,0.0,0.0,0.0,0.0,0.0,0.0,0.0,0.0,0.0,0.0,0.0,0.0,0.0,0.0,0.0,0.0,0.0,-1.8008,-1.8008,-1.8008,0.0,-1.8008,0.0,0.0,0.0,0.0,0.0,0.0,0.0,0.0,0.0,0.0,0.0,0.0,0.0,0.0,0.0,0.0,0.0,0.0,0.0,0.0,0.0,0.0,0.0,0.0,0.0,0.0,0.0,0.0,0.0,0.0,0.0,0.0,0.0,0.0,0.0,0.0,0.0,0.0,0.0,0.0,0.0,0.0,0.0,0.0,0.0,0.0,0.0,0.0,0.0,0.0,0.0,0.0,0.0,0.0,0.0,0.0,0.0,0.0,0.0,0.0,0.0,0.0,0.0,0.0,0.0,0.0,0.0,0.0,0.0,0.0,0.0,0.0,0.0,0.0,0.0,0.0,0.0,0.0,0.0,0.0,0.0,0.0,0.0,0.0,0.0,0.0,0.0,0.0,0.0,0.0,0.0,0.0,0.0,0.0,0.0,0.0,0.0,0.0,0.0,0.0,0.0,0.0,0.0,0.0,0.0,0.0,0.0,0.0,0.0,0.0,-1.8269,-1.8721,-1.8787,-1.8529,0.0,0.0,0.0,0.0,0.0,0.0,0.0,0.0,0.0,0.0,0.0,0.0,0.0,0.0,0.0,0.0,0.0,0.0,0.0,0.0,0.0,0.0,0.0,0.0,0.0,0.0,0.0,0.0,0.0,0.0,0.0,0.0,0.0,0.0,0.0,0.0,0.0,0.0,0.0,0.0,0.0,0.0,0.0,0.0,0.0,0.0,0.0,0.0,0.0,0.0,0.0,0.0,0.0,0.0,0.0,0.0,0.0,0.0,0.0,0.0,0.0,0.0,0.0,0.0,0.0,0.0,0.0,0.0,0.0,0.0,0.0,0.0,0.0,0.0,0.0,0.0,0.0,0.0,0.0,0.0,0.0,0.0,0.0,0.0,0.0,0.0,0.0,0.0,0.0,0.0,0.0,0.0,0.0,0.0,0.0,0.0,0.0,0.0,0.0,0.0,0.0,0.0,0.0,0.0,0.0,0.0,0.0,0.0,0.0,0.0,-1.8694,-1.9044,-1.9617,-1.9431,-1.8988,-1.8405,0.0,0.0,0.0,0.0,0.0,0.0,0.0,0.0,0.0,0.0,0.0,0.0,0.0,0.0,0.0,0.0,0.0,0.0,0.0,0.0,0.0,0.0,0.0,0.0,0.0,0.0,0.0,0.0,0.0,0.0,0.0,0.0,0.0,0.0,0.0,0.0,0.0,0.0,0.0,0.0,0.0,0.0,0.0,0.0,0.0,0.0,0.0,0.0,0.0,0.0,0.0,0.0,0.0,0.0,0.0,0.0,0.0,0.0,0.0,0.0,0.0,0.0,0.0,0.0,0.0,0.0,0.0,0.0,0.0,0.0,0.0,0.0,0.0,0.0,0.0,0.0,0.0,0.0,0.0,0.0,0.0,0.0,0.0,0.0,0.0,0.0,0.0,0.0,0.0,0.0,0.0,0.0,0.0,0.0,0.0,0.0,0.0,0.0,0.0,0.0,0.0,0.0,0.0,0.0,0.0,0.0,0.0,0.0,-2.0445,-2.0477,-2.0526,-2.0526,-1.9748,-1.9299,0.0,0.0,0.0,0.0,0.0,0.0,0.0,0.0,0.0,0.0,0.0,0.0,0.0,0.0,0.0,0.0,0.0,0.0,0.0,0.0,0.0,0.0,0.0,0.0,0.0,0.0,0.0,0.0,0.0,0.0,0.0,0.0,0.0,0.0,0.0,0.0,0.0,0.0,0.0,0.0,0.0,0.0,0.0,0.0,0.0,0.0,0.0,0.0,0.0,0.0,0.0,0.0,0.0,0.0,0.0,0.0,0.0,0.0,0.0,0.0,0.0,0.0,0.0,0.0,0.0,0.0,0.0,0.0,0.0,0.0,0.0,0.0,0.0,0.0,0.0,0.0,0.0,0.0,0.0,0.0,0.0,0.0,0.0,0.0,0.0,0.0,0.0,0.0,0.0,0.0,0.0,0.0,0.0,0.0,0.0,0.0,0.0,0.0,0.0,0.0,0.0,0.0,0.0,0.0,0.0,0.0,0.0,0.0,0.0,-2.208,-2.1672,-2.1164,-2.0655,-2.0846,-2.0462,0.0,0.0,0.0,0.0,0.0,0.0,0.0,0.0,0.0,0.0,0.0,0.0,0.0,0.0,0.0,0.0,0.0,0.0,0.0,0.0,0.0,0.0,0.0,0.0,0.0,0.0,0.0,0.0,0.0,0.0,0.0,0.0,0.0,0.0,0.0,0.0,0.0,0.0,0.0,0.0,0.0,0.0,0.0,0.0,0.0,0.0,0.0,0.0,0.0,0.0,0.0,0.0,0.0,0.0,0.0,0.0,0.0,0.0,0.0,0.0,0.0,0.0,0.0,0.0,0.0,0.0,0.0,0.0,0.0,0.0,0.0,0.0,0.0,0.0,0.0,0.0,0.0,0.0,0.0,0.0,0.0,0.0,0.0,0.0,0.0,0.0,0.0,0.0,0.0,0.0,0.0,0.0,0.0,0.0,0.0,0.0,0.0,0.0,0.0,0.0,0.0,0.0,0.0,0.0,0.0,0.0,0.0,0.0,0.0,-2.3018,0.0,-2.199,-2.1416,-2.1741,-2.1365,0.0,0.0,0.0,0.0,0.0,0.0,0.0,0.0,0.0,0.0,0.0,0.0,0.0,0.0,0.0,0.0,0.0,0.0,0.0,0.0,0.0,0.0,0.0,0.0,0.0,0.0,0.0,0.0,0.0,0.0,0.0,0.0,0.0,0.0,0.0,0.0,0.0,0.0,0.0,0.0,0.0,0.0,0.0,0.0,0.0,0.0,0.0,0.0,0.0,0.0,0.0,0.0,0.0,0.0,0.0,0.0,0.0,0.0,0.0,0.0,0.0,0.0,0.0,0.0,0.0,0.0,0.0,0.0,0.0,0.0,0.0,0.0,0.0,0.0,0.0,0.0,0.0,0.0,0.0,0.0,0.0,0.0,0.0,0.0,0.0,0.0,0.0,0.0,0.0,0.0,0.0,0.0,0.0,0.0,0.0,0.0,0.0,0.0,0.0,0.0,0.0,0.0,0.0,0.0,0.0,0.0,0.0,0.0,-2.2261,-2.3078,-2.3078,-2.3005,-2.3078,-2.2322,-2.1877,0.0,0.0,0.0,0.0,0.0,0.0,0.0,0.0,0.0,0.0,0.0,0.0,0.0,0.0,0.0,0.0,0.0,0.0,0.0,0.0,0.0,0.0,0.0,0.0,0.0,0.0,0.0,0.0,0.0,0.0,0.0,0.0,0.0,0.0,0.0,0.0,0.0,0.0,0.0,0.0,0.0,0.0,0.0,0.0,0.0,0.0,0.0,0.0,0.0,0.0,0.0,0.0,0.0,0.0,0.0,0.0,0.0,0.0,0.0,0.0,0.0,0.0,0.0,0.0,0.0,0.0,0.0,0.0,0.0,0.0,0.0,0.0,0.0,0.0,0.0,0.0,0.0,0.0,0.0,0.0,0.0,0.0,0.0,0.0,0.0,0.0,0.0,0.0,0.0,0.0,0.0,0.0,0.0,0.0,0.0,0.0,0.0,0.0,0.0,0.0,0.0,0.0,0.0,0.0,0.0,0.0,0.0,0.0,0.0,-2.3065,-2.3125,-2.3125,-2.3078,-2.2884,-2.2445,0.0,0.0,0.0,0.0,0.0,0.0,0.0,0.0,0.0,0.0,0.0,0.0,0.0,0.0,0.0,0.0,0.0,0.0,0.0,0.0,0.0,0.0,0.0,0.0,0.0,0.0,0.0,0.0,0.0,0.0,0.0,0.0,0.0,0.0,0.0,0.0,0.0,0.0,0.0,0.0,0.0,0.0,0.0,0.0,0.0,0.0,0.0,0.0,0.0,0.0,0.0,0.0,0.0,0.0,0.0,0.0,0.0,0.0,0.0,0.0,0.0,0.0,0.0,0.0,0.0,0.0,0.0,0.0,0.0,0.0,0.0,0.0,0.0,0.0,0.0,0.0,0.0,0.0,0.0,0.0,0.0,0.0,0.0,0.0,0.0,0.0,0.0,0.0,0.0,0.0,0.0,0.0,0.0,0.0,0.0,0.0,0.0,0.0,0.0,0.0,0.0,0.0,0.0,0.0,0.0,0.0,0.0,0.0,0.0,-2.3543,-2.3531,-2.3543,-2.3543,-2.3543,-2.3173,-2.2384,0.0,0.0,0.0,0.0,0.0,0.0,0.0,0.0,0.0,0.0,0.0,0.0,0.0,0.0,0.0,0.0,0.0,0.0,0.0,0.0,0.0,0.0,0.0,0.0,0.0,0.0,0.0,0.0,0.0,0.0,0.0,0.0,0.0,0.0,0.0,0.0,0.0,0.0,0.0,0.0,0.0,0.0,0.0,0.0,0.0,0.0,0.0,0.0,0.0,0.0,0.0,0.0,0.0,0.0,0.0,0.0,0.0,0.0,0.0,0.0,0.0,0.0,0.0,0.0,0.0,0.0,0.0,0.0,0.0,0.0,0.0,0.0,0.0,0.0,0.0,0.0,0.0,0.0,0.0,0.0,0.0,0.0,0.0,0.0,0.0,0.0,0.0,0.0,0.0,0.0,0.0,0.0,0.0,0.0,0.0,0.0,0.0,0.0,0.0,0.0,0.0,0.0,0.0,0.0,0.0,0.0,0.0,0.0,-2.4408,-2.4394,-2.4394,-2.4279,-2.4279,-2.3943,0.0,0.0,0.0,0.0,0.0,0.0,0.0,0.0,0.0,0.0,0.0,0.0,0.0,0.0,0.0,0.0,0.0,0.0,0.0,0.0,0.0,0.0,0.0,0.0,0.0,0.0,0.0,0.0,0.0,0.0,0.0,0.0,0.0,0.0,0.0,0.0,0.0,0.0,0.0,0.0,0.0,0.0,0.0,0.0,0.0,0.0,0.0,0.0,0.0,0.0,0.0,0.0,0.0,0.0,0.0,0.0,0.0,0.0,0.0,0.0,0.0,0.0,0.0,0.0,0.0,0.0,0.0,0.0,0.0,0.0,0.0,0.0,0.0,0.0,0.0,0.0,0.0,0.0,0.0,0.0,0.0,0.0,0.0,0.0,0.0,0.0,0.0,0.0,0.0,0.0,0.0,0.0,0.0,0.0,0.0,0.0,0.0,0.0,0.0,0.0,0.0,0.0,0.0,0.0,0.0,0.0,0.0,0.0,0.0,-2.5837,-2.5906,-2.5398,-2.4337,-2.4279,-2.3943,0.0,0.0,0.0,0.0,0.0,0.0,0.0,0.0,0.0,0.0,0.0,0.0,0.0,0.0,0.0,0.0,0.0,0.0,0.0,0.0,0.0,0.0,0.0,0.0,0.0,0.0,0.0,0.0,0.0,0.0,0.0,0.0,0.0,0.0,0.0,0.0,0.0,0.0,0.0,0.0,0.0,0.0,0.0,0.0,0.0,0.0,0.0,0.0,0.0,0.0,0.0,0.0,0.0,0.0,0.0,0.0,0.0,0.0,0.0,0.0,0.0,0.0,0.0,0.0,0.0,0.0,0.0,0.0,0.0,0.0,0.0,0.0,0.0,0.0,0.0,0.0,0.0,0.0,0.0,0.0,0.0,0.0,0.0,0.0,0.0,0.0,0.0,0.0,0.0,0.0,0.0,0.0,0.0,0.0,0.0,0.0,0.0,0.0,0.0,0.0,0.0,0.0,0.0,0.0,0.0,0.0,0.0,0.0,-2.5618,-2.6496,-2.6826,-2.6428,-2.5231,-2.4908,-2.4221,0.0,0.0,0.0,0.0,0.0,0.0,0.0,0.0,0.0,0.0,0.0,0.0,0.0,0.0,0.0,0.0,0.0,0.0,0.0,0.0,0.0,0.0,0.0,0.0,0.0,0.0,0.0,0.0,0.0,0.0,0.0,0.0,0.0,0.0,0.0,0.0,0.0,0.0,0.0,0.0,0.0,0.0,0.0,0.0,0.0,0.0,0.0,0.0,0.0,0.0,0.0,0.0,0.0,0.0,0.0,0.0,0.0,0.0,0.0,0.0,0.0,0.0,0.0,0.0,0.0,0.0,0.0,0.0,0.0,0.0,0.0,0.0,0.0,0.0,0.0,0.0,0.0,0.0,0.0,0.0,0.0,0.0,0.0,0.0,0.0,0.0,0.0,0.0,0.0,0.0,0.0,0.0,0.0,0.0,0.0,0.0,0.0,0.0,0.0,0.0,0.0,0.0,0.0,0.0,0.0,0.0,0.0,0.0,-2.6563,-2.6616,-2.724,-2.724,-2.6496,-2.5783,-2.4724,0.0,0.0,0.0,0.0,0.0,0.0,0.0,0.0,0.0,0.0,0.0,0.0,0.0,0.0,0.0,0.0,0.0,0.0,0.0,0.0,0.0,0.0,0.0,0.0,0.0,0.0,0.0,0.0,0.0,0.0,0.0,0.0,0.0,0.0,0.0,0.0,0.0,0.0,0.0,0.0,0.0,0.0,0.0,0.0,0.0,0.0,0.0,0.0,0.0,0.0,0.0,0.0,0.0,0.0,0.0,0.0,0.0,0.0,0.0,0.0,0.0,0.0,0.0,0.0,0.0,0.0,0.0,0.0,0.0,0.0,0.0,0.0,0.0,0.0,0.0,0.0,0.0,0.0,0.0,0.0,0.0,0.0,0.0,0.0,0.0,0.0,0.0,0.0,0.0,0.0,0.0,0.0,0.0,0.0,0.0,0.0,0.0,0.0,0.0,0.0,0.0,0.0,0.0,0.0,0.0,0.0,0.0,0.0,-2.6774,-2.7357,-2.7509,-2.7255,-2.651,-2.5783,-2.4964,0.0,0.0,0.0,0.0,0.0,0.0,0.0,0.0,0.0,0.0,0.0,0.0,0.0,0.0,0.0,0.0,0.0,0.0,0.0,0.0,0.0,0.0,0.0,0.0,0.0,0.0,0.0,0.0,0.0,0.0,0.0,0.0,0.0,0.0,0.0,0.0,0.0,0.0,0.0,0.0,0.0,0.0,0.0,0.0,0.0,0.0,0.0,0.0,-1.5791,0.0,0.0,0.0,0.0,0.0,0.0,0.0,0.0,0.0,0.0,0.0,0.0,0.0,0.0,0.0,0.0,0.0,0.0,0.0,0.0,0.0,0.0,0.0,0.0,0.0,0.0,0.0,0.0,0.0,0.0,0.0,0.0,0.0,0.0,0.0,0.0,0.0,0.0,0.0,0.0,0.0,0.0,0.0,0.0,0.0,0.0,0.0,0.0,0.0,0.0,0.0,0.0,0.0,0.0,0.0,0.0,0.0,0.0,0.0,-2.7203,-2.7575,-2.756,-2.7408,-2.7034,-2.6269,-2.5412,0.0,0.0,0.0,0.0,0.0,0.0,0.0,0.0,0.0,0.0,0.0,0.0,0.0,0.0,0.0,0.0,0.0,0.0,0.0,0.0,0.0,0.0,0.0,0.0,0.0,0.0,0.0,0.0,0.0,0.0,0.0,0.0,0.0,0.0,0.0,0.0,0.0,0.0,0.0,0.0,0.0,0.0,0.0,0.0,0.0,0.0,0.0,0.0,0.0,0.0,0.0,0.0,0.0,0.0,0.0,0.0,0.0,0.0,0.0,0.0,0.0,0.0,0.0,0.0,0.0,0.0,0.0,0.0,0.0,0.0,0.0,0.0,0.0,0.0,0.0,0.0,0.0,0.0,0.0,0.0,0.0,0.0,0.0,0.0,0.0,0.0,0.0,0.0,0.0,0.0,0.0,0.0,0.0,0.0,0.0,0.0,0.0,0.0,0.0,0.0,0.0,0.0,0.0,0.0,0.0,0.0,0.0,-2.7393,-2.7675,-2.7625,-2.766,-2.7725,-2.756,-2.6982,-2.6,-2.4509,0.0,0.0,0.0,0.0,0.0,0.0,0.0,0.0,0.0,0.0,0.0,0.0,0.0,0.0,0.0,0.0,0.0,0.0,0.0,0.0,0.0,0.0,0.0,0.0,0.0,0.0,0.0,0.0,0.0,0.0,0.0,0.0,0.0,0.0,0.0,0.0,0.0,0.0,-1.5234,-1.6219,0.0,0.0,0.0,0.0,0.0,0.0,0.0,0.0,-1.8008,0.0,0.0,0.0,0.0,0.0,0.0,0.0,0.0,0.0,0.0,0.0,0.0,0.0,0.0,0.0,0.0,0.0,0.0,0.0,0.0,0.0,0.0,0.0,0.0,0.0,0.0,0.0,0.0,0.0,0.0,0.0,0.0,0.0,0.0,0.0,0.0,0.0,0.0,0.0,0.0,0.0,0.0,0.0,0.0,0.0,0.0,0.0,0.0,0.0,0.0,0.0,0.0,0.0,0.0,0.0,0.0,-2.7408,-2.8027,-2.8091,-2.7625,-2.8091,-2.8091,-2.7625,-2.7458,-2.6759,-2.5287,0.0,0.0,0.0,0.0,0.0,0.0,0.0,0.0,0.0,0.0,0.0,0.0,0.0,0.0,0.0,0.0,0.0,0.0,0.0,0.0,0.0,0.0,0.0,0.0,0.0,0.0,0.0,0.0,0.0,0.0,0.0,0.0,0.0,0.0,0.0,0.0,0.0,0.0,0.0,-1.7148,-1.7784,0.0,0.0,0.0,0.0,0.0,0.0,0.0,0.0,-1.794,0.0,0.0,0.0,0.0,0.0,0.0,0.0,0.0,0.0,0.0,0.0,0.0,0.0,0.0,0.0,0.0,0.0,0.0,0.0,0.0,0.0,0.0,0.0,0.0,0.0,0.0,0.0,0.0,0.0,0.0,0.0,0.0,0.0,0.0,0.0,0.0,0.0,0.0,0.0,0.0,0.0,0.0,0.0,0.0,0.0,0.0,0.0,0.0,0.0,0.0,0.0,0.0,0.0,0.0,0.0,-2.761,-2.791,-2.7894,-2.7625,-2.791,-2.7894,-2.7625,-2.756,-2.693,0.0,0.0,0.0,0.0,0.0,0.0,0.0,0.0,0.0,0.0,0.0,0.0,0.0,0.0,0.0,0.0,0.0,0.0,0.0,0.0,0.0,0.0,0.0,0.0,0.0,0.0,0.0,0.0,0.0,0.0,0.0,0.0,0.0,0.0,0.0,0.0,0.0,0.0,0.0,0.0,-1.7716,-1.8008,-1.8008,0.0,0.0,0.0,0.0,0.0,0.0,-1.8008,-1.8008,0.0,0.0,0.0,0.0,0.0,0.0,0.0,0.0,0.0,0.0,0.0,0.0,0.0,0.0,0.0,0.0,0.0,0.0,0.0,0.0,0.0,0.0,0.0,0.0,0.0,0.0,0.0,0.0,0.0,0.0,0.0,0.0,0.0,0.0,0.0,0.0,0.0,0.0,0.0,0.0,0.0,0.0,0.0,0.0,0.0,0.0,0.0,0.0,0.0,0.0,0.0,0.0,0.0,0.0,0.0,-2.7625,-2.771,-2.771,-2.7625,-2.771,-2.771,-2.7625,-2.7473,-2.6745,0.0,0.0,0.0,0.0,0.0,0.0,0.0,0.0,0.0,0.0,0.0,0.0,0.0,0.0,0.0,0.0,0.0,0.0,0.0,0.0,0.0,0.0,0.0,0.0,0.0,0.0,0.0,0.0,0.0,0.0,0.0,0.0,0.0,0.0,0.0,0.0,0.0,0.0,0.0,0.0,0.0,-1.8008,-1.8008,-1.8144,0.0,0.0,0.0,0.0,-1.8529,-1.8529,0.0,0.0,0.0,0.0,0.0,0.0,0.0,0.0,0.0,0.0,0.0,0.0,0.0,0.0,0.0,0.0,0.0,0.0,0.0,0.0,0.0,0.0,0.0,0.0,0.0,0.0,0.0,0.0,0.0,0.0,0.0,0.0,0.0,0.0,0.0,0.0,0.0,0.0,0.0,0.0,0.0,0.0,0.0,0.0,0.0,0.0,0.0,0.0,0.0,0.0,0.0,0.0,0.0,0.0,0.0,0.0,-2.7625,-2.814,-2.814,-2.766,-2.814,-2.814,-2.7625,-2.6997,-2.6244,0.0,0.0,0.0,0.0,0.0,0.0,0.0,0.0,0.0,0.0,0.0,0.0,0.0,0.0,0.0,0.0,0.0,0.0,0.0,0.0,0.0,0.0,0.0,0.0,0.0,0.0,0.0,0.0,0.0,0.0,0.0,0.0,0.0,0.0,0.0,0.0,0.0,0.0,0.0,0.0,0.0,-1.8008,-1.8008,-1.8664,-1.9177,0.0,0.0,-2.0268,-2.0333,-2.0268,0.0,0.0,0.0,0.0,0.0,0.0,0.0,0.0,0.0,0.0,0.0,0.0,0.0,0.0,0.0,0.0,0.0,0.0,0.0,0.0,0.0,0.0,0.0,0.0,0.0,0.0,0.0,0.0,0.0,0.0,0.0,0.0,0.0,0.0,0.0,0.0,0.0,0.0,0.0,0.0,0.0,0.0,0.0,0.0,0.0,0.0,0.0,0.0,0.0,0.0,0.0,0.0,0.0,0.0,0.0,-2.756,-2.761,-2.7845,-2.7845,-2.7625,-2.786,-2.763,-2.6982,-2.6669,-2.596,0.0,0.0,0.0,0.0,0.0,0.0,0.0,0.0,0.0,0.0,0.0,0.0,0.0,0.0,0.0,0.0,0.0,0.0,0.0,0.0,0.0,0.0,0.0,0.0,0.0,0.0,0.0,0.0,0.0,0.0,0.0,0.0,0.0,0.0,0.0,0.0,0.0,0.0,0.0,0.0,0.0,0.0,-1.8721,-1.9497,0.0,0.0,0.0,-2.059,-2.059,0.0,0.0,0.0,0.0,0.0,0.0,0.0,0.0,0.0,0.0,0.0,0.0,0.0,0.0,0.0,0.0,0.0,0.0,0.0,0.0,0.0,0.0,0.0,0.0,0.0,0.0,0.0,0.0,0.0,0.0,0.0,0.0,0.0,0.0,0.0,0.0,0.0,0.0,0.0,0.0,0.0,0.0,0.0,0.0,0.0,0.0,0.0,0.0,0.0,0.0,0.0,0.0,0.0,0.0,0.0,0.0,0.0,-2.756,-2.756,-2.756,-2.756,-2.756,-2.724,-2.651,-2.6351,0.0,0.0,0.0,0.0,0.0,0.0,0.0,0.0,0.0,0.0,0.0,0.0,0.0,0.0,0.0,0.0,0.0,0.0,0.0,0.0,0.0,0.0,0.0,0.0,0.0,0.0,0.0,0.0,0.0,0.0,0.0,0.0,0.0,0.0,0.0,0.0,0.0,0.0,0.0,0.0,0.0,0.0,-1.9365,-1.9628,-2.0398,-2.0921,0.0,0.0,-2.1227,-2.1227,-2.1227,-2.0846,0.0,0.0,0.0,0.0,0.0,0.0,0.0,0.0,0.0,0.0,0.0,0.0,0.0,0.0,0.0,0.0,0.0,0.0,0.0,0.0,0.0,0.0,0.0,0.0,0.0,0.0,0.0,0.0,0.0,0.0,0.0,0.0,0.0,0.0,0.0,0.0,0.0,0.0,0.0,0.0,0.0,0.0,0.0,0.0,0.0,0.0,0.0,0.0,0.0,0.0,0.0,0.0,0.0,0.0,0.0,-2.756,-2.756,-2.756,-2.756,-2.756,-2.7255,-2.651,-2.5851,-2.5133,0.0,0.0,0.0,0.0,0.0,0.0,0.0,0.0,0.0,0.0,0.0,0.0,0.0,0.0,0.0,0.0,0.0,0.0,0.0,0.0,0.0,0.0,0.0,0.0,0.0,0.0,0.0,0.0,0.0,0.0,0.0,0.0,0.0,0.0,0.0,0.0,0.0,0.0,0.0,0.0,0.0,-1.9562,-2.0398,-2.1227,-2.1815,0.0,0.0,-2.2932,-2.2944,-2.2944,-2.2372,-2.0782,0.0,0.0,0.0,0.0,0.0,0.0,0.0,0.0,0.0,0.0,0.0,0.0,0.0,0.0,0.0,0.0,0.0,0.0,0.0,0.0,0.0,0.0,0.0,0.0,0.0,0.0,0.0,0.0,0.0,0.0,0.0,0.0,0.0,0.0,0.0,0.0,0.0,0.0,0.0,0.0,0.0,0.0,0.0,0.0,0.0,0.0,0.0,0.0,0.0,0.0,0.0,0.0,0.0,-2.756,-2.756,-2.756,-2.756,-2.756,-2.756,-2.7034,-2.5837,-2.5563,-2.4838,0.0,0.0,0.0,0.0,0.0,0.0,0.0,0.0,0.0,0.0,0.0,0.0,0.0,0.0,0.0,0.0,0.0,0.0,0.0,0.0,0.0,0.0,0.0,0.0,0.0,0.0,0.0,0.0,-1.7423,-1.7647,-1.794,0.0,0.0,0.0,0.0,0.0,0.0,0.0,0.0,0.0,0.0,-2.1037,-2.1365,-2.2125,0.0,0.0,-2.2884,-2.3125,-2.3125,-2.3125,-2.2689,-2.1616,-2.091,0.0,0.0,0.0,0.0,0.0,0.0,0.0,0.0,0.0,0.0,0.0,0.0,0.0,0.0,0.0,0.0,0.0,0.0,0.0,0.0,0.0,0.0,0.0,0.0,0.0,0.0,0.0,0.0,0.0,0.0,0.0,0.0,0.0,0.0,0.0,0.0,0.0,0.0,0.0,0.0,0.0,0.0,0.0,0.0,0.0,0.0,0.0,0.0,0.0,0.0,0.0,0.0,-2.756,-2.756,-2.756,-2.756,-2.756,-2.7408,-2.6707,-2.5453,-2.5175,-2.4439,0.0,0.0,0.0,0.0,0.0,0.0,0.0,0.0,0.0,0.0,0.0,0.0,0.0,0.0,0.0,0.0,0.0,0.0,0.0,0.0,0.0,0.0,0.0,0.0,0.0,0.0,0.0,0.0,-1.8008,-1.7978,-1.8035,0.0,0.0,0.0,0.0,0.0,0.0,0.0,0.0,0.0,0.0,-2.2002,-2.2199,-2.2763,-2.3125,-2.3125,-2.3125,-2.3125,-2.3125,-2.2884,-2.2445,-2.1616,0.0,0.0,0.0,0.0,0.0,0.0,0.0,0.0,0.0,0.0,0.0,0.0,0.0,0.0,0.0,0.0,0.0,0.0,0.0,0.0,0.0,0.0,0.0,0.0,0.0,0.0,0.0,0.0,0.0,0.0,-2.3125,0.0,0.0,0.0,0.0,0.0,0.0,0.0,0.0,0.0,0.0,0.0,0.0,0.0,0.0,0.0,0.0,0.0,0.0,0.0,0.0,0.0,0.0,0.0,-2.756,-2.756,-2.756,-2.7575,-2.6878,-2.6162,-2.5398,-2.4681,-2.3943,-2.3125,0.0,0.0,0.0,0.0,0.0,0.0,0.0,0.0,0.0,0.0,0.0,0.0,0.0,0.0,0.0,0.0,0.0,0.0,0.0,0.0,0.0,0.0,0.0,0.0,0.0,0.0,-1.8076,-1.8008,-1.8045,0.0,0.0,0.0,0.0,0.0,0.0,0.0,0.0,0.0,0.0,-2.1877,-2.2187,-2.2957,-2.3078,-2.3125,-2.3125,-2.3125,-2.3125,-2.3125,-2.2445,-2.1616,0.0,0.0,0.0,0.0,0.0,0.0,0.0,0.0,0.0,0.0,0.0,0.0,0.0,0.0,0.0,0.0,0.0,0.0,0.0,0.0,0.0,0.0,0.0,0.0,0.0,0.0,0.0,-2.3826,-2.3138,0.0,0.0,0.0,0.0,0.0,0.0,0.0,0.0,0.0,0.0,0.0,-2.3125,-2.3125,0.0,0.0,0.0,0.0,0.0,0.0,0.0,0.0,0.0,0.0,0.0,0.0,-2.756,-2.756,-2.756,-2.7357,-2.6878,-2.6616,-2.5892,-2.4738,-2.4452,-2.3943,-2.3125,0.0,0.0,0.0,0.0,0.0,0.0,0.0,0.0,0.0,0.0,0.0,0.0,0.0,0.0,0.0,0.0,0.0,0.0,0.0,0.0,0.0,0.0,0.0,0.0,0.0,-1.8212,0.0,0.0,0.0,0.0,0.0,0.0,0.0,0.0,0.0,0.0,0.0,-2.1753,-2.2567,-2.2702,-2.2763,-2.3078,-2.3125,-2.3125,0.0,0.0,0.0,0.0,0.0,0.0,0.0,0.0,0.0,0.0,0.0,0.0,0.0,0.0,-1.8008,-1.8008,-1.8008,-1.8008,-1.8008,0.0,0.0,0.0,0.0,0.0,0.0,0.0,0.0,0.0,0.0,0.0,0.0,0.0,0.0,0.0,0.0,-2.3125,0.0,0.0,0.0,0.0,0.0,0.0,0.0,0.0,-2.3125,-2.3125,-2.3125,-2.3125,-2.3125,0.0,-2.3125,-2.3125,0.0,0.0,0.0,0.0,0.0,0.0,0.0,0.0,-2.7565,-2.7565,-2.7314,-2.6974,-2.6358,-2.5948,-2.5287,-2.435,-2.4002,-2.3662,-2.3138,-2.2823,-2.2567,0.0,0.0,0.0,0.0,0.0,0.0,0.0,0.0,0.0,0.0,0.0,0.0,0.0,0.0,0.0,0.0,0.0,0.0,0.0,0.0,0.0,0.0,0.0,-1.8654,0.0,0.0,0.0,0.0,0.0,0.0,0.0,0.0,0.0,-2.2322,-2.231,-2.2506,-2.3017,-2.3125,-2.3125,-2.3125,0.0,0.0,0.0,0.0,0.0,0.0,0.0,-2.1928,-2.1101,-2.0268,-1.9497,-1.8911,-1.8405,-1.8008,-1.8008,0.0,0.0,-1.8008,-1.8008,-1.8008,-1.8008,-1.8008,-1.8008,-1.8008,-1.8008,-1.8008,0.0,0.0,0.0,0.0,0.0,0.0,0.0,0.0,-2.5453,-2.4553,0.0,-2.3198,0.0,0.0,0.0,0.0,0.0,-2.3125,0.0,0.0,-2.3125,-2.3125,-2.3125,-2.3125,-2.3125,-2.3125,-2.3125,-2.3125,-2.3125,-2.3125,0.0,0.0,0.0,0.0,0.0,0.0,-2.753,-2.7501,-2.6818,-2.6343,-2.6008,-2.4902,-2.4292,-2.4234,-2.3543,-2.3125,-2.3078,-2.2322,-2.1491,-2.0719,-1.9814,0.0,0.0,0.0,0.0,0.0,0.0,0.0,0.0,0.0,0.0,0.0,0.0,0.0,0.0,0.0,0.0,0.0,0.0,0.0,0.0,-1.8787,0.0,0.0,0.0,0.0,0.0,0.0,0.0,0.0,0.0,0.0,-2.3017,-2.3078,-2.3125,-2.3125,0.0,0.0,0.0,0.0,-2.3078,-2.3065,-2.3065,-2.2763,-2.2002,-2.1175,-2.0333,-1.9497,0.0,0.0,-1.8008,-1.8008,-1.8008,-1.8008,-1.8008,-1.8008,-1.8008,-1.8008,-1.8008,-1.8008,-1.8008,-1.8008,-1.8008,-1.8008,-1.8008,-2.756,0.0,0.0,0.0,0.0,-2.756,-2.7034,-2.6176,-2.6162,-2.5342,-2.3943,-2.393,0.0,0.0,0.0,0.0,0.0,0.0,-2.3125,-2.3125,-2.3125,-2.3125,-2.3125,-2.3125,-2.3125,-2.3125,-2.3125,-2.3125,-2.3125,-2.3125,-2.3198,-2.3484,0.0,0.0,0.0,0.0,-2.6548,-2.6519,-2.5992,-2.5467,-2.5054,-2.4518,-2.4002,-2.3484,-2.3245,-2.3125,-2.3078,-2.2322,-2.1815,-2.1502,-2.0074,0.0,0.0,0.0,0.0,0.0,0.0,0.0,0.0,0.0,0.0,0.0,0.0,0.0,0.0,0.0,0.0,0.0,0.0,0.0,-1.8844,-1.9177,-1.9562,0.0,0.0,0.0,0.0,0.0,0.0,0.0,0.0,0.0,-2.2261,-2.2763,-2.3125,0.0,0.0,-2.3125,-2.3125,-2.3125,-2.2896,-2.2322,0.0,0.0,0.0,-2.0782,-2.0268,-1.9431,-1.8586,-1.8008,-1.8008,-1.8008,-1.8008,-1.8008,-1.8008,-1.8008,-1.8008,-1.8008,-1.8008,-1.8008,-1.8008,-1.8008,-1.8008,-1.8008,-1.8008,-2.756,-2.756,-2.756,-2.756,-2.756,-2.756,-2.7203,-2.6496,-2.6496,-2.5837,-2.4724,-2.4738,-2.4509,-2.3989,-2.3695,0.0,0.0,0.0,-2.3125,-2.3125,-2.3125,-2.3125,-2.3125,-2.3125,-2.3125,-2.3125,-2.3125,-2.3125,-2.3125,-2.3125,-2.3125,-2.3138,0.0,0.0,-2.4292,-2.4724,-2.5199,-2.5742,-2.5256,-2.4637,-2.4021,-2.391,-2.3603,-2.3125,-2.2823,-2.2628,-2.2628,-2.1491,-2.0846,-2.0846,-1.9552,-1.8787,0.0,0.0,0.0,0.0,0.0,0.0,0.0,0.0,0.0,0.0,0.0,-1.8008,0.0,0.0,0.0,0.0,-1.8008,-1.8202,-1.8721,-1.911,0.0,0.0,0.0,0.0,0.0,0.0,0.0,-2.1158,-2.1451,-2.1635,-2.1439,-2.2137,-2.2628,-2.2628,-2.2628,-2.2641,-2.2641,0.0,-2.1928,-2.1416,-2.1365,-2.1112,-2.0204,-2.0074,-1.9759,-1.8921,-1.8395,-1.8008,-1.8008,-1.8008,-1.8008,-1.8008,-1.8008,-1.8008,-1.8008,-1.7716,-1.7569,-1.794,-1.8008,-1.8008,-1.8008,-1.8008,-1.8008,-2.756,-2.756,-2.756,-2.756,-2.756,-2.756,-2.7188,-2.6616,-2.6616,-2.6176,-2.5508,-2.5398,-2.5342,-2.5175,-2.4509,0.0,-2.3125,-2.3125,-2.3125,-2.3125,-2.3125,-2.3125,-2.3125,-2.3125,-2.3125,-2.3125,-2.3125,-2.3125,-2.3125,-2.3125,-2.3125,-2.3125,-2.3125,-2.3484,-2.415,-2.3502,-2.3819,-2.515,-2.4567,-2.3839,-2.3138,-2.3125,-2.3078,-2.3005,-2.2261,-2.1877,-2.1753,-2.0204,-1.9299,-1.9233,-1.8462,-1.8008,-1.8008,0.0,0.0,0.0,0.0,0.0,0.0,0.0,0.0,0.0,0.0,0.0,0.0,0.0,0.0,0.0,-1.8154,0.0,-1.8076,-1.8854,0.0,0.0,0.0,-2.1115,-2.255,-2.1841,-2.044,-1.8243,0.0,0.0,-2.0537,0.0,-2.1753,-2.169,-2.1803,-2.1889,-2.1815,-2.1164,-2.0602,-2.0526,-2.0526,-2.0204,-1.9365,-1.9177,-1.8977,-1.8202,-1.8008,-1.8008,-1.8008,-1.7862,-1.7862,-1.7794,-1.7794,-1.7725,-1.7784,-1.7001,-1.6784,-1.7579,-1.7716,-1.7716,-1.7647,-1.7647,-1.7579,-2.756,-2.756,-2.756,-2.756,-2.756,-2.756,-2.7509,-2.7357,-2.7306,-2.693,-2.6244,-2.5618,-2.4768,-2.3649,-2.3484,-2.3305,-2.3125,-2.3125,-2.3125,-2.3125,-2.3125,-2.3125,-2.3125,-2.3125,-2.3125,-2.3125,-2.3125,-2.3125,-2.3125,-2.3125,-2.3125,-2.3125,-2.3125,-2.3198,-2.3365,-2.317,-2.3255,-2.3658,-2.3475,-2.3305,-2.3125,-2.3125,-2.2823,-2.2199,-2.2002,-2.1553,-2.091,-1.989,-1.9299,-1.9299,-1.8472,-1.8008,-1.8008,-1.8008,0.0,0.0,0.0,0.0,0.0,0.0,0.0,0.0,0.0,-1.8008,-1.8008,0.0,-1.8542,0.0,-1.9358,-1.8977,-1.8967,-1.9166,0.0,0.0,-2.0074,-2.0194,-1.9343,-1.9732,-1.9541,-1.8162,-1.8451,-1.9,-1.953,-2.0386,-2.0655,-2.0009,-2.1037,-2.169,-2.1049,-2.0719,-2.0333,-1.9748,-1.9628,-1.9299,-1.8529,-1.8327,-1.8269,-1.8008,-1.8008,-1.8008,-1.8008,-1.7432,-1.6922,-1.6862,-1.6289,-1.5948,-1.5939,-1.5658,-1.5587,-1.5799,-1.5877,-1.5877,-1.5869,-1.5877,-1.5877,-2.756,-2.756,-2.756,-2.756,-2.756,-2.756,-2.756,-2.756,-2.756,-2.7188,-2.6443,-2.5742,-2.4724,-2.3662,-2.3662,-2.3424,-2.3125,-2.3125,-2.3125,-2.3125,-2.3125,-2.3125,-2.3125,-2.3125,-2.3125,-2.3125,-2.3125,-2.3125,-2.3125,-2.3125,-2.3125,-2.3125,-2.3125,-2.3125,-2.3125,-2.3125,-2.3125,-2.3125,-2.3125,-2.3125,-2.3078,-2.2763,-2.2396,-2.1939,-2.1164,-2.0526,-2.0009,-1.9177,-1.8721,-1.8721,-1.8269,-1.8008,-1.8008,-1.8008,-1.8008,0.0,0.0,0.0,0.0,0.0,0.0,0.0,0.0,0.0,0.0,0.0,-1.9106,0.0,-1.9845,0.0,-1.9299,-1.8988,-1.8721,-1.8721,-1.9177,-1.9044,-1.8076,-1.8559,-1.8721,-1.8081,-1.7994,-1.8178,-1.87,-1.9497,-1.9694,-1.8854,-1.9879,-2.059,-2.0074,-1.9694,-1.9243,-1.8798,-1.8721,-1.8586,-1.8076,-1.8008,-1.8008,-1.794,-1.7638,-1.7364,-1.7354,-1.6576,-1.6,-1.593,-1.5508,-1.5163,-1.5163,-1.4807,-1.4522,-1.4458,-1.4171,-1.4235,-1.5021,-1.5163,-1.5163,-2.756,-2.756,-2.756,-2.756,-2.756,-2.756,-2.756,-2.756,-2.7524,-2.6982,-2.6176,-2.5508,-2.4851,-2.4176,-2.4118,-2.3767,-2.3125,-2.3125,-2.3125,-2.3125,-2.3125,-2.3125,-2.3125,-2.3125,-2.3125,-2.3125,-2.3125,-2.3125,-2.3125,-2.3125,-2.3125,-2.3125,-2.3125,-2.3125,-2.3065,-2.2907,-2.2907,-2.3065,-2.276,-2.2662,-2.2832,-2.2091,-2.1584,-2.146,-2.0041,-1.9243,-1.911,-1.8395,-1.8008,-1.8008,-1.8008,-1.8008,-1.8008,-1.8008,-1.8008,0.0,-1.8008,0.0,0.0,0.0,0.0,0.0,0.0,0.0,0.0,-1.9097,-1.9977,-2.0537,-1.9944,-1.9441,-1.9309,-1.8519,-1.8008,-1.8008,-1.8008,-1.8008,-1.8008,-1.8008,-1.8008,-1.8008,-1.8008,-1.8008,-1.8076,-1.8654,-1.8787,-1.8269,-1.8654,-1.9166,-1.911,-1.8529,-1.8134,-1.8008,-1.8008,-1.7998,-1.7794,-1.7784,-1.7716,-1.7579,-1.6932,-1.6428,-1.6428,-1.5649,-1.5021,-1.495,-1.4807,-1.4736,-1.4807,-1.4099,-1.3528,-1.3528,-1.2952,-1.2945,-1.4235,-1.4665,-1.4799,-2.756,-2.756,-2.756,-2.756,-2.756,-2.756,-2.756,-2.7575,-2.6982,-2.5946,-2.4738,-2.4567,-2.406,-2.3365,-2.3305,-2.3258,-2.3125,-2.3125,-2.3125,-2.3125,-2.3125,-2.3125,-2.3125,-2.3125,-2.3125,-2.3125,-2.3125,-2.3125,-2.3125,-2.3125,-2.3125,-2.3125,-2.3125,-2.3125,-2.3053,0.0,0.0,0.0,-2.1093,-2.0497,-2.1464,-2.0726,-1.9923,-1.9242,-1.9295,0.0,-1.8259,-1.8076,-1.8008,-1.8008,-1.8008,0.0,0.0,0.0,0.0,0.0,0.0,0.0,0.0,0.0,0.0,0.0,-1.8921,-1.8903,-1.8155,-2.0681,-2.1863,-2.0741,-2.0462,-2.0074,-1.9365,-1.8529,-1.8008,-1.8008,-1.8008,-1.8008,-1.8008,-1.8008,-1.8008,-1.8008,-1.8008,-1.8008,-1.8008,-1.8144,-1.8202,-1.8008,-1.8134,-1.8259,-1.8202,-1.8066,-1.8008,-1.8008,-1.7862,-1.7647,-1.7001,-1.6853,-1.6645,-1.5939,-1.5658,-1.5446,-1.5367,-1.4593,-1.3954,-1.3882,-1.3382,-1.2872,-1.2872,-1.2659,-1.2592,-1.2519,-1.2372,-1.2445,-1.2806,-1.2879,-1.2879,-2.756,0.0,-2.756,-2.756,0.0,-2.756,-2.756,-2.756,-2.6826,-2.5673,-2.4279,-2.3884,-2.3484,-2.3125,-2.3125,-2.3125,-2.3125,-2.3125,-2.3125,-2.3125,-2.3125,-2.3125,-2.3125,-2.3125,-2.3125,-2.3125,-2.3125,-2.3125,-2.3125,-2.3125,-2.3125,-2.309,-2.3094,-2.2911,-2.2445,-2.1265,-2.1014,-2.1854,-2.0568,-2.0257,-2.0834,-2.0095,-1.9383,-1.8952,0.0,0.0,0.0,0.0,0.0,0.0,0.0,0.0,0.0,0.0,0.0,-1.8008,-1.8008,-1.8008,-1.8008,-1.8395,-1.8664,-1.8664,-1.9431,-1.9771,-1.9297,-2.1635,-2.2762,-2.1889,-2.1101,-2.0398,-1.9944,-1.8787,-1.8008,-1.8008,-1.8008,-1.8008,-1.8008,-1.8008,-1.8008,-1.8008,-1.8008,-1.8008,-1.8008,-1.8008,-1.7794,-1.7432,-1.7716,-1.7647,-1.6941,-1.7432,-1.7872,-1.7354,-1.6862,-1.6437,-1.6009,-1.593,-1.579,-1.5305,-1.4807,-1.4291,-1.3772,-1.291,-1.2117,-1.1668,-1.1533,-1.1471,-1.1025,-1.1552,-1.1996,-1.1174,-1.1248,-1.1316,-1.1025,-1.1242,-1.1539,-2.756,-2.756,-2.756,-2.756,-2.756,-2.756,-2.7509,-2.7372,0.0,0.0,0.0,-2.3412,-2.3125,-2.3125,-2.3125,-2.3125,-2.3125,-2.3125,-2.3125,-2.3125,-2.3125,-2.3125,-2.3125,-2.3125,-2.3125,-2.3125,-2.3125,-2.3125,-2.3065,-2.2944,-2.2884,-2.2909,-2.2849,-2.2241,-2.1255,-2.0816,-2.0453,-2.0139,-2.0169,-2.0178,-2.02,-1.9435,-1.8996,-1.892,-1.8365,-1.8008,-1.8008,-1.8008,-1.8008,-1.8008,-1.8008,-1.8008,-1.8008,-1.8008,-1.8008,-1.8008,-1.8008,-1.8008,-1.8008,-1.8008,-1.8337,-1.9044,-1.9748,-2.0268,-2.059,-2.1902,-2.2639,-2.2653,-2.129,-2.0333,-2.0333,-1.8988,-1.8008,-1.8008,-1.8008,-1.8008,-1.8008,-1.8008,-1.8008,-1.8008,-1.8008,-1.794,-1.7716,-1.7716,-1.7432,-1.6715,-1.6932,-1.7019,-1.5799,-1.6446,-1.7079,-1.6428,-1.5869,-1.5163,-1.472,-1.4641,-1.4569,-1.3917,-1.3281,-1.2625,-1.1797,-1.1069,-1.0265,-0.9669,-1.0045,-1.0115,-0.9599,-1.0576,-1.1174,-0.9599,-0.997,-1.0265,-0.9599,-0.982,-1.0265,-2.756,-2.756,-2.756,-2.756,-2.756,-2.756,-2.724,-2.6616,-2.5837,-2.5077,-2.4247,-2.3484,-2.3125,-2.3125,-2.3125,-2.3125,-2.3125,-2.3125,-2.3125,0.0,-2.3125,-2.3125,-2.3125,-2.3125,-2.3125,-2.3125,-2.3125,-2.3125,-2.3017,-2.2433,-2.2063,-2.2025,-2.1816,-2.0593,-1.884,-1.9932,-1.9863,-1.8395,-1.8363,-1.8532,-1.8882,-1.8096,-1.7668,-1.7678,-1.788,-1.8008,-1.8008,-1.7998,-1.8008,-1.8008,-1.8008,-1.8008,-1.8008,-1.8008,-1.8008,-1.8008,-1.8008,-1.8008,-1.8008,-1.8008,-1.8076,-1.8212,-1.8269,-1.8977,-2.0462,-2.0816,-2.0955,-2.091,-2.0074,-1.9497,-1.9431,-1.8586,-1.8008,-1.8008,-1.8008,-1.8008,-1.8008,-1.8008,-1.793,-1.7852,-1.8008,-1.7569,-1.6922,-1.6784,-1.6428,-1.5649,-1.5359,-1.5367,-1.5155,-1.5384,-1.5525,-1.5446,-1.5305,-1.4498,-1.3034,-1.2597,-1.2084,-1.0329,-1.026,-1.0185,-0.9884,-0.9669,-0.9372,-0.9221,-0.9367,-0.9372,-0.9221,-0.9448,-0.9599,-0.915,-0.9301,-0.9448,-0.915,-0.8694,-0.8537,-2.756,-2.756,-2.756,-2.756,-2.756,-2.756,-2.7203,-2.6443,-2.5728,-2.5007,-2.4234,-2.3412,-2.3125,-2.3125,-2.3125,-2.3125,-2.3125,-2.3125,-2.3125,-2.3125,-2.3125,-2.3125,-2.3125,-2.3125,-2.3125,-2.3125,-2.3125,-2.3125,-2.3065,-2.2702,-2.231,-2.1889,-2.0809,-1.9507,-1.8188,-1.8782,-1.8775,-1.8008,-1.8022,-1.7991,-1.794,-1.757,-1.7275,-1.7041,-1.7227,-1.7432,-1.7666,-1.7676,-1.7773,-1.8008,-1.8008,-1.8008,-1.8008,-1.8008,-1.8008,-1.8008,-1.8008,-1.8008,-1.8008,-1.8008,-1.8008,-1.8008,-1.8008,-1.8337,-1.911,-1.9173,-1.9598,-2.044,-1.9814,-1.9299,-1.9243,-1.8529,-1.8008,-1.8008,-1.8008,-1.8008,-1.8008,-1.8008,-1.7619,-1.6725,-1.6491,-1.6321,-1.5922,-1.5869,-1.5438,-1.4522,-1.3643,-1.3041,-1.3469,-1.2677,-1.2451,-1.3252,-1.3121,-1.2238,-1.0914,-1.0616,-1.0254,-0.9372,-0.9296,-0.9074,-0.8694,-0.8466,-0.8237,-0.7859,-0.8084,-0.8237,-0.7855,-0.8618,-0.8694,-0.7868,-0.8336,-0.8493,-0.788,-0.7273,-0.7192,-2.756,-2.756,-2.756,-2.756,-2.7575,-2.7408,-2.7034,-2.6457,-2.5563,-2.4838,-2.4234,-2.3484,-2.3125,-2.3125,-2.3125,-2.3125,-2.3125,-2.3125,-2.3125,-2.3125,-2.3125,-2.3125,-2.3125,-2.3125,-2.3125,-2.3125,-2.3125,-2.3125,-2.3078,-2.2944,-2.231,-2.1227,-1.9748,-1.8664,-1.8008,-1.8008,-1.8008,-1.7998,-1.7842,-1.7705,-1.7402,-1.7285,-1.707,-1.6704,-1.6665,-1.6885,-1.7217,-1.7334,-1.7529,-1.7852,-1.7959,-1.8008,-1.8008,-1.8008,-1.8008,-1.8008,-1.8008,-1.8008,-1.8008,-1.8008,-1.8008,-1.8008,-1.8008,-1.8008,-1.7998,-1.8034,-1.8497,-1.9716,-1.9365,-1.8977,-1.8921,-1.8395,-1.8008,-1.8008,-1.7794,-1.7745,-1.7988,-1.8037,-1.7254,-1.5566,-1.4829,-1.4636,-1.4814,-1.4879,-1.4371,-1.307,-1.1675,-1.1149,-1.1279,-1.0179,-1.0034,-1.0611,-1.0771,-1.0185,-0.9145,-0.8993,-0.8841,-0.8689,-0.8537,-0.8165,-0.7638,-0.7484,-0.7257,-0.6651,-0.6957,-0.7188,-0.6651,-0.7411,-0.7795,-0.6813,-0.6725,-0.6641,-0.5796,-0.6132,-0.5973,-2.756,-2.756,-2.756,-2.756,-2.7509,-2.693,-2.6616,-2.6283,-2.5007,-2.435,-2.4176,-2.3424,-2.3125,-2.3125,-2.3125,-2.3125,-2.3125,-2.3125,-2.3125,-2.3125,-2.3125,-2.3125,-2.3125,-2.3125,-2.3125,-2.3078,-2.3078,-2.3005,-2.3005,-2.2322,-2.1164,-1.9628,-1.8596,-1.8144,-1.8008,-1.8008,-1.8008,-1.7998,-1.7455,-1.7242,-1.7363,-1.6992,-1.6768,-1.6665,-1.6655,-1.6685,-1.6797,-1.7178,-1.7402,-1.7461,-1.7812,-1.8008,-1.8008,-1.8008,-1.8008,-1.8008,-1.793,-1.8008,-1.8008,-1.8008,-1.794,-1.8008,-1.8018,-1.8018,-1.8008,-1.7988,-1.8046,-1.8259,-1.8202,-1.8212,-1.8134,-1.7998,-1.7862,-1.7716,-1.7148,-1.7056,-1.771,-1.7999,-1.7309,-1.5384,-1.3689,-1.2856,-1.3678,-1.381,-1.307,-1.1452,-1.0783,-1.026,-0.9814,-0.9362,-0.877,-0.8609,-0.8841,-0.8917,-0.8165,-0.7936,-0.7629,-0.6945,-0.6644,-0.6651,-0.6655,-0.6504,-0.6278,-0.5799,-0.6126,-0.6122,-0.6203,-0.6521,-0.6514,-0.6203,-0.5093,-0.3513,-0.3595,-0.4235,-0.4557,-2.756,-2.756,-2.756,-2.756,-2.7509,-2.7255,-2.6654,-2.5797,-2.5231,-2.4439,-2.359,-2.3258,-2.3125,-2.3125,-2.3125,-2.3125,-2.3125,-2.3125,-2.3125,-2.3125,-2.3125,-2.3125,-2.3125,-2.3125,-2.3125,-2.3065,-2.2628,-2.2372,-2.2125,-2.1037,-2.0009,-1.9309,-1.8395,-1.8008,-1.8008,-1.8008,-1.8008,-1.7988,-1.7089,-1.6741,-1.6879,-1.6562,-1.6211,-1.5977,-1.5957,-1.6084,-1.6348,-1.6768,-1.7119,-1.7383,-1.7773,-1.8008,-1.8008,-1.6977,-1.6597,-1.7051,-1.6655,-1.6376,-1.6306,-1.6367,-1.6576,-1.7139,-1.7674,-1.7988,-1.8018,-1.8008,-1.7794,-1.7354,-1.7657,-1.7803,-1.7304,-1.7148,-1.7001,-1.6437,-1.6009,-1.5965,-1.6246,-1.6325,-1.5627,-1.3777,-1.2806,-1.2367,-1.2677,-1.2345,-1.1452,-1.0115,-0.9513,-0.8912,-0.8466,-0.7936,-0.7407,-0.7107,-0.7261,-0.7342,-0.7038,-0.6883,-0.6651,-0.643,-0.6281,-0.6285,-0.6203,-0.5012,-0.4382,-0.4465,-0.4148,-0.4148,-0.4304,-0.4543,-0.4621,-0.4709,-0.3137,-0.0626,0.1879,0.1802,0.133,-2.756,-2.756,-2.756,-2.756,-2.7575,-2.7578,-2.6741,-2.5467,-2.5175,-2.4323,-2.3185,-2.3125,-2.3125,-2.3125,-2.3125,-2.3125,-2.3125,-2.3125,-2.3125,-2.3125,-2.3125,-2.3125,-2.3078,-2.2823,-2.2763,-2.2628,-2.1939,-2.1553,-2.1353,-2.0074,-1.9299,-1.9177,-1.8462,-1.8008,-1.8008,-1.8008,-1.8008,-1.793,-1.6934,-1.649,-1.6597,-1.6172,-1.5732,-1.5439,-1.542,-1.5566,-1.5879,-1.6436,-1.6875,-1.7187,-1.7715,-1.7862,-1.7569,-1.6042,-1.5531,-1.6044,-1.5587,-1.5163,-1.5163,-1.5163,-1.5517,-1.6228,-1.7283,-1.7758,-1.7351,-1.7226,-1.6932,-1.6428,-1.6853,-1.6872,-1.6385,-1.6228,-1.586,-1.5305,-1.5021,-1.4895,-1.5166,-1.4848,-1.3613,-1.1827,-1.137,-1.1493,-1.1366,-1.087,-1.004,-0.9069,-0.8313,-0.7633,-0.7407,-0.6802,-0.6349,-0.62,-0.5879,-0.5721,-0.6045,-0.5637,-0.5565,-0.5413,-0.5257,-0.5494,-0.6061,-0.4787,-0.2817,-0.3056,-0.1877,-0.0468,0.0234,-0.0234,-0.1326,-0.2348,-0.1175,0.1724,0.3686,0.5355,0.543,-2.756,-2.756,-2.756,-2.756,-2.759,-2.752,-2.672,-2.5287,-2.4681,-2.3884,-2.3125,-2.3125,-2.3125,-2.3125,-2.3125,-2.3125,-2.3125,-2.3125,-2.3125,-2.3125,-2.3125,-2.3078,-2.3078,-2.2322,-2.1939,-2.1889,-2.1037,-2.0655,-2.0526,-1.9759,-1.9299,-1.9243,-1.8395,-1.8008,-1.8008,-1.8008,-1.8008,-1.792,-1.7122,-1.6685,-1.6587,-1.5918,-1.5518,-1.5498,-1.542,-1.5439,-1.5566,-1.6289,-1.6694,-1.6777,-1.7512,-1.7588,-1.6697,-1.5687,-1.5191,-1.5201,-1.5163,-1.5092,-1.5092,-1.5021,-1.5163,-1.5409,-1.6634,-1.7168,-1.5771,-1.5508,-1.5429,-1.5234,-1.5384,-1.5376,-1.5163,-1.5163,-1.5163,-1.495,-1.4243,-1.424,-1.5025,-1.3601,-1.1649,-1.0085,-0.9702,-0.9734,-0.9513,-0.9377,-0.8917,-0.8161,-0.7783,-0.7484,-0.6655,-0.6352,-0.6122,-0.5892,-0.5018,-0.3988,-0.5655,-0.5419,-0.4148,-0.3285,-0.3444,-0.3759,-0.5274,-0.5764,-0.3301,-0.0863,0.1803,0.3851,0.5283,0.5199,0.3999,0.2974,0.2109,0.3915,0.4704,0.5419,0.5652,-2.756,-2.756,-2.756,-2.7357,-2.6878,-2.6727,-2.5879,-2.4724,-2.4394,-2.3826,-2.3185,-2.3125,-2.3125,-2.3125,-2.3125,-2.3125,-2.3125,-2.3125,-2.3125,-2.3125,-2.3125,-2.2823,-2.2322,-2.2013,-2.1553,-2.0974,-2.0204,-1.9497,-1.8911,-1.8596,-1.8462,-1.8462,-1.8134,-1.8008,-1.8008,-1.8008,-1.8008,-1.7949,-1.7422,-1.7148,-1.709,-1.6562,-1.6198,-1.6221,-1.5693,-1.5547,-1.583,-1.6416,-1.6526,-1.6225,-1.7311,-1.7269,-1.5799,-1.4751,-1.3958,-1.344,-1.3302,-1.3375,-1.3375,-1.3382,-1.3593,-1.4171,-1.4243,-1.4784,-1.5013,-1.4814,-1.4443,-1.4291,-1.4243,-1.4019,-1.3593,-1.3875,-1.4027,-1.3375,-1.3025,-1.29,-1.3169,-1.2668,-1.1664,-1.0301,-0.9616,-0.9115,-0.8452,-0.8313,-0.7936,-0.7099,-0.688,-0.6655,-0.619,-0.5246,-0.4859,-0.583,-0.5674,-0.5355,-0.6006,-0.5839,-0.4641,-0.2195,-0.1176,-0.1175,-0.2119,-0.0235,0.2275,0.2273,0.4964,0.4873,0.5182,0.5973,0.5494,0.5802,0.5162,0.5151,0.5168,0.6264,0.6426,-2.756,-2.756,-2.756,-2.7306,-2.6715,-2.5611,-2.4983,-2.4584,-2.4394,-2.3826,-2.3185,-2.3125,-2.3125,-2.3125,-2.3125,-2.3125,-2.3125,-2.3125,-2.3125,-2.3125,-2.3125,-2.2811,-2.2249,-2.1741,-2.1175,-2.0462,-1.9431,-1.8529,-1.8076,-1.8008,-1.8008,-1.8008,-1.8008,-1.8008,-1.8008,-1.8008,-1.8008,-1.793,-1.7598,-1.7373,-1.7324,-1.6953,-1.6529,-1.6189,-1.5685,-1.5514,-1.5818,-1.6227,-1.6104,-1.5721,-1.6546,-1.6246,-1.4466,-1.3643,-1.2952,-1.2378,-1.2305,-1.2305,-1.2305,-1.2305,-1.2592,-1.3171,-1.2736,-1.2933,-1.4076,-1.3814,-1.3534,-1.3288,-1.3237,-1.2879,-1.2204,-1.2418,-1.2492,-1.1916,-1.1842,-1.1774,-1.1732,-1.2045,-1.1178,-0.9336,-0.8433,-0.7927,-0.748,-0.7334,-0.703,-0.6342,-0.6274,-0.6281,-0.6051,-0.526,-0.3763,-0.4408,-0.5451,-0.4972,-0.362,-0.1803,-0.2275,-0.0392,0.1568,0.1569,0.1883,0.4325,0.5596,0.5755,0.5584,0.4851,0.5002,0.5948,0.6574,0.7045,0.7261,0.7238,0.7249,0.7253,0.7411,-2.756,-2.756,-2.756,-2.7509,-2.7056,-2.4868,-2.4204,-2.5037,-2.4567,-2.3826,-2.3185,-2.3125,-2.304,-2.3027,-2.304,-2.3065,-2.3062,-2.304,-2.3125,-2.3125,-2.3125,-2.3005,-2.2702,-2.1353,-2.059,-2.0268,-1.8844,-1.8076,-1.8008,-1.8008,-1.8008,-1.8008,-1.8008,-1.8008,-1.8008,-1.8008,-1.8008,-1.7939,-1.7637,-1.7432,-1.7334,-1.6912,-1.626,-1.5485,-1.5348,-1.5274,-1.5301,-1.5614,-1.5408,-1.4753,-1.5068,-1.4308,-1.2891,-1.2458,-1.2305,-1.2305,-1.2305,-1.2305,-1.2305,-1.2305,-1.2305,-1.2452,-1.2291,-1.2358,-1.2579,-1.2579,-1.2432,-1.2285,-1.2218,-1.1916,-1.1007,-1.0858,-1.0858,-1.0783,-1.0789,-1.0657,-1.0645,-1.1432,-1.0726,-0.7524,-0.6619,-0.6335,-0.6338,-0.6423,-0.6349,-0.5957,-0.6129,-0.6302,-0.6077,-0.5439,-0.3934,-0.2121,-0.1964,-0.2121,0.0392,0.2909,0.2041,0.1805,0.3536,0.4484,0.4164,0.5668,0.5581,0.5817,0.6518,0.5938,0.6846,0.7714,0.7936,0.8322,0.8699,0.8851,0.8623,0.847,0.8694,-2.756,-2.756,-2.756,-2.7306,-2.6878,-2.6381,-2.5686,-2.4667,-2.4408,-2.3826,-2.3185,-2.3125,-2.2937,-2.2723,-2.2937,-2.2865,-2.2623,-2.2937,-2.3125,-2.3065,-2.3065,-2.2433,-2.1479,-2.0846,-1.9944,-1.8921,-1.8269,-1.8008,-1.8008,-1.8008,-1.8008,-1.8008,-1.8008,-1.8008,-1.8008,-1.8008,-1.8008,-1.7998,-1.7891,-1.7533,-1.6952,-1.6677,-1.6206,-1.5377,-1.5239,-1.4955,-1.4268,-1.4693,-1.4604,-1.3993,-1.4713,-1.4336,-1.2712,-1.2278,-1.2305,-1.2305,-1.2305,-1.2305,-1.2305,-1.2305,-1.2305,-1.2305,-1.2305,-1.2305,-1.2305,-1.2305,-1.1996,-1.1465,-1.1242,-1.087,-1.0045,-0.975,-0.9744,-0.9744,-0.975,-0.975,-0.9468,-0.9428,-0.834,-0.6788,-0.6257,-0.6271,-0.6274,-0.6281,-0.5811,-0.4776,-0.5347,-0.6002,-0.5846,-0.3777,-0.1885,-0.0393,0.0235,0.149,0.3377,0.4321,0.3606,0.329,0.4555,0.5668,0.5743,0.5814,0.5805,0.6032,0.6732,0.7573,0.8479,0.9079,0.9221,0.9296,0.9372,0.9372,0.9296,0.9523,0.9825,-2.756,-2.756,-2.756,-2.7203,-2.6539,-2.6716,-2.5841,-2.4363,-2.3943,-2.3543,-2.3138,-2.3125,-2.2949,-2.2698,-2.2786,-2.2702,-2.2577,-2.2573,-2.2541,-2.2604,-2.2518,-2.1756,-2.0643,-2.0268,-1.9431,-1.8269,-1.8008,-1.8008,-1.8008,-1.8008,-1.8008,-1.8008,-1.8008,-1.8008,-1.8008,-1.8008,-1.7872,-1.7579,-1.7491,-1.7001,-1.6289,-1.607,-1.5658,-1.4807,-1.4665,-1.4099,-1.3302,-1.3528,-1.3521,-1.3361,-1.3835,-1.347,-1.2378,-1.2305,-1.2305,-1.2305,-1.2305,-1.2305,-1.2305,-1.2305,-1.2305,-1.2305,-1.2305,-1.2305,-1.2231,-1.207,-1.1391,-1.0938,-1.0415,-0.9814,-0.8993,-0.8765,-0.8618,-0.8161,-0.8542,-0.8542,-0.8241,-0.7633,-0.7107,-0.6423,-0.6278,-0.5964,-0.5407,-0.5977,-0.5746,-0.4714,-0.4088,-0.3936,-0.3461,-0.1728,-0.0079,0.1806,0.3698,0.4805,0.5674,0.5662,0.509,0.5012,0.5254,0.5808,0.5967,0.6119,0.6109,0.6338,0.6957,0.7868,0.8775,0.9599,1.0045,1.0045,1.0271,1.0576,1.0875,1.0726,1.095,-2.756,-2.756,-2.756,-2.7203,-2.6414,-2.5685,-2.4912,-2.4221,-2.359,-2.3245,-2.3138,-2.3125,-2.3015,-2.2937,-2.256,-2.2502,-2.2695,-2.1885,-2.1425,-2.149,-2.13,-2.0894,-2.0322,-1.9628,-1.8787,-1.8134,-1.8008,-1.8008,-1.8008,-1.8008,-1.8008,-1.8008,-1.7862,-1.7862,-1.7725,-1.7862,-1.7226,-1.6636,-1.6498,-1.607,-1.5163,-1.5084,-1.4665,-1.3673,-1.3593,-1.3237,-1.2586,-1.2485,-1.2418,-1.2305,-1.2532,-1.2539,-1.2305,-1.2305,-1.2305,-1.2305,-1.2305,-1.2305,-1.2305,-1.2305,-1.2305,-1.2305,-1.2305,-1.2231,-1.2003,-1.1391,-1.0783,-1.0335,-0.9664,-0.8765,-0.7936,-0.7706,-0.7326,-0.6641,-0.7249,-0.733,-0.6493,-0.6423,-0.6032,-0.5799,-0.5811,-0.5659,-0.4068,-0.5034,-0.5123,-0.4729,-0.2357,-0.1099,0.0471,0.1492,0.2435,0.3934,0.528,0.6071,0.6217,0.6129,0.5637,0.5637,0.5796,0.5954,0.6345,0.6497,0.6872,0.7103,0.7557,0.8466,0.9367,1.0421,1.1093,1.1323,1.17,1.2231,1.215,1.1774,1.1694,-2.756,-2.756,-2.756,-2.7137,-2.6261,-2.4542,-2.3956,-2.4239,-2.406,-2.3531,-2.3185,-2.3125,-2.2924,-2.2535,-2.2339,-2.1894,-2.1316,-2.1069,-2.0389,-1.9635,-1.9781,-1.9771,-1.9486,-1.8787,-1.8269,-1.8008,-1.8008,-1.8008,-1.8008,-1.8008,-1.8008,-1.794,-1.7364,-1.7001,-1.6932,-1.6367,-1.5869,-1.5587,-1.5579,-1.5084,-1.4235,-1.4099,-1.3665,-1.2806,-1.2659,-1.2592,-1.2305,-1.2305,-1.2305,-1.2305,-1.2305,-1.2305,-1.2305,-1.2305,-1.2305,-1.2305,-1.2305,-1.2305,-1.2305,-1.2305,-1.2305,-1.2305,-1.2231,-1.199,-1.1242,-1.0938,-1.011,-0.9064,-0.8237,-0.7783,-0.6949,-0.6718,-0.649,-0.6416,-0.6644,-0.6648,-0.6345,-0.6197,-0.5246,-0.2652,-0.4392,-0.5196,-0.48,-0.3219,-0.0,-0.0,-0.0549,0.1256,0.2987,0.3932,0.4646,0.3999,0.4781,0.573,0.6278,0.6271,0.6183,0.618,0.6183,0.618,0.6644,0.7022,0.7783,0.8466,0.8988,0.9814,1.0795,1.1774,1.2231,1.2305,1.2305,1.2305,1.2305,1.215,1.2291,-2.756,-2.7575,-2.7586,-2.6986,-2.5861,-2.3919,-2.3398,-2.3722,-2.3767,-2.3543,-2.3198,-2.3125,-2.2962,-2.2589,-2.2033,-2.1423,-2.0747,-1.9987,-1.9258,-1.8807,-1.8771,-1.8767,-1.8586,-1.8202,-1.8008,-1.8008,-1.8008,-1.8008,-1.8008,-1.8008,-1.7794,-1.7451,-1.7282,-1.6778,-1.6,-1.5246,-1.4688,-1.4585,-1.4522,-1.4091,-1.3237,-1.3098,-1.2879,-1.2372,-1.2305,-1.2305,-1.2305,-1.2305,-1.2305,-1.2305,-1.2305,-1.2305,-1.2305,-1.2305,-1.2305,-1.2305,-1.2305,-1.2305,-1.2305,-1.2305,-1.2305,-1.2224,-1.1996,-1.1391,-1.0783,-1.011,-0.8836,-0.8084,-0.748,-0.6872,-0.649,-0.6264,-0.6268,-0.6271,-0.6271,-0.6278,-0.6274,-0.6288,-0.4309,-0.2033,-0.1959,-0.0,-0.0,-0.1335,-0.0,-0.0,-0.0,0.362,0.5448,0.6002,0.6071,0.5332,0.4929,0.5876,0.6349,0.6342,0.6567,0.6567,0.7173,0.7096,0.7399,0.7855,0.8466,0.9296,1.019,1.1013,1.162,1.215,1.2305,1.2305,1.2305,1.2526,1.2666,1.2879,1.2952,-2.756,-2.7604,-2.7587,-2.6759,-2.5301,-2.38,-2.3109,-2.3148,-2.3185,-2.3138,-2.3125,-2.3125,-2.31,-2.3027,-2.1716,-2.1009,-2.0841,-1.9006,-1.8395,-1.8222,-1.8161,-1.8045,-1.8134,-1.8066,-1.8008,-1.8008,-1.8008,-1.8008,-1.794,-1.793,-1.7432,-1.6881,-1.7227,-1.6571,-1.5171,-1.4292,-1.3871,-1.3658,-1.3528,-1.3237,-1.2592,-1.2445,-1.2378,-1.2378,-1.2305,-1.2305,-1.2305,-1.2305,-1.2305,-1.2305,-1.2305,-1.2305,-1.2305,-1.2305,-1.2305,-1.2305,-1.2305,-1.2305,-1.2231,-1.2157,-1.2077,-1.1922,-1.1162,-1.0559,-1.0034,-0.8908,-0.7931,-0.748,-0.6795,-0.6416,-0.6342,-0.6274,-0.5957,-0.5879,-0.5892,-0.6291,-0.6288,-0.6308,-0.4646,-0.0,-0.0,-0.0,-0.0,0.0393,-0.0,-0.0,0.3458,0.4242,0.5671,0.6142,0.6291,0.6038,0.5954,0.6112,0.6342,0.6493,0.6795,0.7099,0.8156,0.8456,0.8609,0.8983,0.9216,0.9895,1.0795,1.1242,1.1391,1.1774,1.2224,1.2452,1.2519,1.2952,1.339,1.3738,1.3954,-2.756,-2.7575,-2.7599,-2.6741,-2.5287,-2.3774,-2.3129,-2.3125,-2.3125,-2.3125,-2.3125,-2.3125,-2.3125,-2.3027,-2.1656,-2.0708,-2.0102,-1.8537,-1.7811,-1.7595,-1.7573,-1.7725,-1.793,-1.7998,-1.8008,-1.8008,-1.8008,-1.8008,-1.7862,-1.7354,-1.6775,-1.6585,-1.5672,-1.4745,-1.4027,-1.3281,-1.2712,-1.2592,-1.2592,-1.2592,-1.2378,-1.2305,-1.2305,-1.2305,-1.2305,-1.2305,-1.2305,-1.2305,-1.2305,-1.2305,-1.2305,-1.2305,-1.2305,-1.2305,-1.2305,-1.2305,-1.2231,-1.2231,-1.215,-1.1545,-1.1087,-1.1019,-1.0196,-0.9291,-0.8537,-0.8161,-0.7403,-0.6872,-0.6416,-0.6264,-0.6274,-0.6274,-0.5646,-0.5018,-0.5509,-0.6318,-0.624,-0.6162,-0.4012,-0.0,-0.0,-0.0,-0.0,-0.0,0.4016,0.4648,0.4716,0.4784,0.5413,0.6203,0.6274,0.6268,0.6264,0.6342,0.6799,0.7099,0.7778,0.808,0.8988,0.9814,0.9965,1.0254,1.0634,1.0938,1.1397,1.1694,1.1983,1.2204,1.2806,1.2806,1.2945,1.3593,1.4163,1.4522,1.5092,-2.756,-2.759,-2.7601,-2.6775,-2.526,-2.3755,-2.309,-2.3122,-2.3125,-2.3125,-2.3125,-2.3125,-2.3125,-2.2992,-2.1946,-2.0903,-1.9638,-1.8082,-1.7076,-1.6948,-1.7129,-1.751,-1.7715,-1.791,-1.8008,-1.8008,-1.8008,-1.8008,-1.7794,-1.707,-1.6428,-1.5948,-1.4984,-1.4191,-1.3178,-1.2592,-1.2372,-1.2378,-1.2305,-1.2305,-1.2305,-1.2305,-1.2305,-1.2305,-1.2305,-1.2305,-1.2305,-1.2305,-1.2305,-1.2305,-1.2305,-1.2305,-1.2305,-1.2305,-1.2305,-1.2305,-1.1768,-1.162,-1.1391,-1.0714,-1.0115,-1.0045,-0.914,-0.8461,-0.7783,-0.7403,-0.6872,-0.649,-0.6261,-0.6268,-0.6278,-0.6295,-0.5503,-0.519,-0.5523,-0.6257,-0.6015,-0.4575,-0.275,-0.0,-0.0,-0.0,-0.0,0.4967,0.5677,0.5436,0.55,0.5565,0.564,0.6274,0.6268,0.6261,0.6261,0.6567,0.7176,0.7936,0.8912,0.9362,1.004,1.0795,1.1168,1.1607,1.2044,1.2204,1.2285,1.2718,1.3011,1.3237,1.352,1.3947,1.4307,1.4585,1.5013,1.5579,1.6149,-2.756,-2.7604,-2.7579,-2.6748,-2.5259,-2.3769,-2.3081,-2.31,-2.3125,-2.3125,-2.3125,-2.3125,-2.3125,-2.2871,-2.2039,-2.0938,-1.928,-1.778,-1.6621,-1.6494,-1.6816,-1.7187,-1.7432,-1.7715,-1.792,-1.7988,-1.8008,-1.8008,-1.7716,-1.6922,-1.5939,-1.5259,-1.472,-1.3769,-1.2606,-1.2305,-1.2305,-1.2305,-1.2305,-1.2305,-1.2305,-1.2305,-1.2305,-1.2305,-1.2305,-1.2305,-1.2305,-1.2305,-1.2305,-1.2305,-1.2305,-1.2231,-1.2077,-1.2077,-1.2077,-1.2003,-1.1093,-1.064,-1.0415,-0.9664,-0.9069,-0.8993,-0.8161,-0.7629,-0.7326,-0.6872,-0.649,-0.6338,-0.6264,-0.6274,-0.6285,-0.6308,-0.5846,-0.5129,-0.5134,-0.53,-0.4582,-0.165,0.0785,-0.0,-0.0,-0.0,0.4166,0.5593,0.5986,0.6298,0.6285,0.6274,0.6271,0.6345,0.6338,0.6563,0.6641,0.7698,0.8456,0.8836,0.989,1.049,1.1087,1.1613,1.2218,1.2579,1.2858,1.2938,1.3164,1.3593,1.4019,1.4235,1.4593,1.5163,1.5446,1.5508,1.6,1.6636,1.7139,-2.756,-2.7604,-2.7579,-2.6748,-2.5245,-2.3769,-2.3094,-2.31,-2.3125,-2.3125,-2.3125,-2.3125,-2.3065,-2.2689,-2.1416,-1.9737,-1.8286,-1.7115,-1.666,-1.6455,-1.6543,-1.6703,-1.7197,-1.7471,-1.7676,-1.7939,-1.794,-1.7862,-1.7501,-1.6367,-1.5446,-1.4887,-1.3695,-1.2532,-1.2459,-1.2305,-1.2305,-1.2305,-1.2305,-1.2305,-1.2305,-1.2305,-1.2305,-1.2305,-1.2305,-1.2305,-1.2305,-1.2305,-1.2305,-1.2305,-1.2305,-1.1774,-1.1242,-1.1013,-1.0938,-1.087,-1.0115,-0.9518,-0.9442,-0.8613,-0.8165,-0.7859,-0.7173,-0.6641,-0.6567,-0.6416,-0.6338,-0.6264,-0.6274,-0.6285,-0.6318,-0.5846,-0.4252,-0.2515,-0.0,-0.0,-0.0,0.1885,0.4489,0.4325,0.4646,0.4646,0.519,0.574,0.6054,0.6285,0.6274,0.6268,0.6264,0.6338,0.649,0.6795,0.7096,0.8609,1.0034,1.026,1.0864,1.1465,1.199,1.2425,1.2952,1.3382,1.36,1.3947,1.4299,1.4728,1.5084,1.5296,1.5517,1.5877,1.6149,1.6428,1.6784,1.7139,1.7501,-2.7357,-2.7078,-2.7422,-2.6517,-2.4811,-2.361,-2.3094,-2.31,-2.3125,-2.3125,-2.3125,-2.3078,-2.2823,-2.2384,-2.1741,-2.0056,-1.8297,-1.7052,-1.6621,-1.6387,-1.6201,-1.6292,-1.6816,-1.7119,-1.7092,-1.7052,-1.7086,-1.7285,-1.7139,-1.5939,-1.495,-1.4171,-1.2952,-1.2305,-1.2305,-1.2305,-1.2305,-1.2305,-1.2305,-1.2305,-1.2305,-1.2305,-1.2305,-1.2305,-1.2305,-1.2305,-1.2231,-1.1694,-1.1539,-1.1397,-1.1019,-1.0576,-1.0045,-0.9669,-0.9518,-0.9744,-0.9064,-0.8537,-0.8389,-0.7633,-0.7022,-0.7026,-0.657,-0.6338,-0.6261,-0.6338,-0.6264,-0.6274,-0.6295,-0.6308,-0.6247,-0.4411,-0.212,-0.0,-0.0,-0.0,-0.0,-0.0,0.5517,0.6308,0.5827,0.5503,0.5335,0.5802,0.6197,0.6271,0.6264,0.6338,0.6335,0.6641,0.6868,0.7625,0.8156,0.9357,1.0789,1.1162,1.1533,1.2211,1.2806,1.3237,1.3882,1.4378,1.4942,1.5359,1.5711,1.593,1.6149,1.6367,1.6446,1.6594,1.6941,1.7285,1.7423,1.7647,1.7862,-2.7255,-2.675,-2.707,-2.6118,-2.454,-2.347,-2.3111,-2.31,-2.3125,-2.3125,-2.3065,-2.2884,-2.2506,-2.1939,-2.1318,-2.0239,-1.8464,-1.7254,-1.668,-1.6318,-1.6123,-1.6084,-1.6299,-1.6504,-1.66,-1.6282,-1.6189,-1.6349,-1.614,-1.5226,-1.4458,-1.3745,-1.2813,-1.2305,-1.2305,-1.2305,-1.2305,-1.2305,-1.2305,-1.2305,-1.2305,-1.2305,-1.2305,-1.2231,-1.215,-1.1922,-1.1774,-1.1019,-1.0565,-1.0346,-0.9895,-0.9296,-0.8917,-0.8237,-0.8089,-0.8466,-0.7936,-0.7557,-0.733,-0.6949,-0.649,-0.649,-0.6335,-0.6261,-0.6264,-0.6271,-0.6274,-0.6291,-0.6308,-0.5523,-0.4332,-0.2043,-0.0,-0.0,-0.0,-0.0,-0.0,0.3214,0.5743,0.6295,0.6291,0.6126,0.5876,0.5873,0.6268,0.6268,0.6261,0.6718,0.6868,0.7249,0.7706,0.8685,0.9513,1.0335,1.1242,1.1768,1.2211,1.2799,1.331,1.3738,1.4657,1.55,1.5992,1.6489,1.6706,1.6922,1.7207,1.7285,1.7295,1.7442,1.7862,1.794,1.7794,1.7794,1.793,-2.7575,-2.7372,-2.6179,-2.5495,-2.5007,-2.369,-2.3075,-2.3125,-2.3125,-2.3125,-2.3078,-2.2445,-2.2075,-2.1565,-2.0204,-1.9069,-1.8175,-1.7563,-1.7031,-1.665,-1.6309,-1.6113,-1.6001,-1.5623,-1.5731,-1.5431,-1.535,-1.535,-1.5084,-1.4307,-1.3882,-1.3455,-1.2739,-1.2305,-1.2305,-1.2305,-1.2305,-1.2305,-1.2305,-1.2305,-1.2305,-1.2231,-1.2231,-1.2003,-1.1465,-1.0938,-1.087,-1.004,-0.9518,-0.9448,-0.9372,-0.877,-0.8165,-0.7936,-0.7253,-0.6872,-0.6567,-0.6493,-0.6567,-0.6412,-0.6261,-0.6261,-0.6261,-0.6268,-0.5876,-0.5727,-0.5659,-0.6322,-0.6087,-0.4491,-0.0,-0.0,-0.0,-0.0,0.3066,0.2512,0.2116,0.3522,0.5889,0.6281,0.6278,0.6271,0.6183,0.6183,0.6261,0.6261,0.6412,0.6868,0.7476,0.8008,0.8836,0.989,1.0415,1.1168,1.1545,1.2077,1.2659,1.3244,1.381,1.4378,1.5367,1.628,1.6922,1.7285,1.7569,1.7638,1.7647,1.7794,1.794,1.8008,1.8008,1.8008,1.8008,1.8008,1.8008,-2.7357,-2.6959,-2.674,-2.5883,-2.4694,-2.359,-2.3125,-2.3125,-2.3125,-2.3125,-2.3078,-2.275,-2.2125,-2.0974,-1.9365,-1.8395,-1.7988,-1.7588,-1.7305,-1.7051,-1.6587,-1.6052,-1.5576,-1.5314,-1.5186,-1.4261,-1.4063,-1.378,-1.3655,-1.3738,-1.3528,-1.2879,-1.2519,-1.2305,-1.2305,-1.2305,-1.2305,-1.2305,-1.2305,-1.2305,-1.215,-1.1768,-1.1471,-1.1397,-1.0496,-1.0045,-0.9744,-0.8988,-0.8461,-0.8313,-0.8008,-0.7399,-0.7022,-0.6949,-0.6721,-0.6412,-0.6338,-0.6338,-0.6335,-0.6261,-0.6261,-0.6264,-0.6187,-0.5718,-0.4696,-0.36,-0.4162,-0.6165,-0.3936,-0.0,-0.0,-0.0,-0.0,0.3224,0.4967,0.4716,0.4153,0.5015,0.6274,0.6271,0.6264,0.6261,0.6335,0.649,0.649,0.6563,0.6868,0.7403,0.8232,0.9059,1.0115,1.1316,1.162,1.1848,1.2003,1.2305,1.2806,1.3455,1.4458,1.5092,1.6079,1.6932,1.7501,1.7716,1.7794,1.793,1.8008,1.8008,1.8008,1.8008,1.8008,1.8008,1.8008,1.8076,1.8202,-2.7188,-2.6597,-2.7276,-2.6301,-2.4247,-2.3424,-2.3125,-2.3125,-2.3125,-2.3125,-2.2944,-2.2567,-2.1542,-2.0268,-1.8854,-1.8076,-1.7978,-1.7676,-1.748,-1.7285,-1.6699,-1.5935,-1.5296,-1.4962,-1.4113,-1.2779,-1.3116,-1.2906,-1.2816,-1.2806,-1.2879,-1.2298,-1.2378,-1.2305,-1.2305,-1.2231,-1.2224,-1.1774,-1.144,-1.1372,-1.1242,-1.0789,-1.049,-1.0115,-0.9593,-0.8922,-0.8765,-0.7931,-0.7476,-0.7249,-0.6868,-0.6563,-0.6412,-0.6412,-0.6412,-0.6261,-0.6261,-0.6264,-0.6264,-0.6264,-0.6264,-0.6271,-0.6203,-0.574,-0.4311,-0.188,-0.0784,-0.4093,-0.2277,-0.0,-0.0,-0.0,-0.0,0.4805,0.6077,0.622,0.6285,0.6274,0.6268,0.6264,0.6261,0.6261,0.6412,0.6641,0.6795,0.6791,0.7249,0.7931,0.8988,1.011,1.0944,1.2003,1.2077,1.215,1.2224,1.2526,1.3025,1.381,1.4807,1.5877,1.6862,1.7364,1.7794,1.794,1.8008,1.8008,1.8008,1.8008,1.8008,1.8008,1.8008,1.8008,1.8008,1.8134,1.8586,-2.7152,-2.6568,-2.7262,-2.6273,-2.4221,-2.3424,-2.3125,-2.3125,-2.3125,-2.3078,-2.275,-2.1604,-2.0451,-1.9365,-1.8586,-1.8008,-1.7998,-1.7978,-1.7677,-1.7083,-1.6392,-1.571,-1.4919,-1.4001,-1.3323,-1.2888,-1.2656,-1.2383,-1.2365,-1.2452,-1.2445,-1.2298,-1.2305,-1.2305,-1.2311,-1.2244,-1.17,-1.0926,-1.0049,-0.9681,-0.9723,-0.9523,-0.9448,-0.9145,-0.8461,-0.7855,-0.7855,-0.7022,-0.6567,-0.6567,-0.6412,-0.6338,-0.6261,-0.6261,-0.6261,-0.6261,-0.6261,-0.6268,-0.6271,-0.6268,-0.6268,-0.6281,-0.622,-0.5839,-0.4323,-0.1726,-0.0785,-0.0,0.0235,-0.0,-0.0,0.3066,0.4646,0.5755,0.6305,0.6291,0.6274,0.6268,0.6261,0.6261,0.6335,0.6412,0.6718,0.7022,0.7173,0.7326,0.8228,0.8983,1.011,1.1162,1.162,1.2231,1.2231,1.2305,1.2378,1.2813,1.3528,1.445,1.5446,1.6515,1.7579,1.794,1.8008,1.8008,1.8008,1.8008,1.8008,1.8008,1.8008,1.8008,1.8008,1.8066,1.8586,1.9044,1.9628,-2.7152,-2.6472,-2.5992,-2.5172,-2.4221,-2.3424,-2.3125,-2.3125,-2.3065,-2.2763,-2.2322,-2.1101,-2.0139,-1.9243,-1.8462,-1.8008,-1.8027,-1.7997,-1.7541,-1.6958,-1.6222,-1.5266,-1.4292,-1.3516,-1.2987,-1.2466,-1.2161,-1.2158,-1.2291,-1.2305,-1.2305,-1.2305,-1.2231,-1.2305,-1.2311,-1.2035,-1.1279,-0.9793,-0.8524,-0.7983,-0.9125,-0.8618,-0.8389,-0.8313,-0.7403,-0.6945,-0.6791,-0.6567,-0.6335,-0.6261,-0.6261,-0.6261,-0.6261,-0.6261,-0.6261,-0.6261,-0.6264,-0.6274,-0.6278,-0.6278,-0.6281,-0.6308,-0.6162,-0.5288,-0.0,-0.0,-0.0,-0.0,0.2358,0.3224,0.4252,0.4242,0.4392,0.5659,0.6288,0.6278,0.6271,0.6261,0.6261,0.6261,0.6412,0.6567,0.7022,0.7557,0.7629,0.7859,0.8908,1.0034,1.1087,1.1842,1.215,1.2305,1.2305,1.2452,1.2519,1.3244,1.4099,1.5092,1.6079,1.7001,1.7862,1.794,1.8008,1.8008,1.8008,1.8076,1.8076,1.8008,1.8008,1.8008,1.8134,1.8269,1.8977,1.9944,2.059,-2.7034,-2.6108,-2.5384,-2.473,-2.4234,-2.3424,-2.3125,-2.3125,-2.3125,-2.2628,-2.1815,-2.0794,-1.9879,-1.9177,-1.8395,-1.8008,-1.7988,-1.7938,-1.7408,-1.6639,-1.5728,-1.4727,-1.3782,-1.3062,-1.2606,-1.2069,-1.2017,-1.2151,-1.2291,-1.2305,-1.2305,-1.2231,-1.2003,-1.1848,-1.1706,-1.144,-1.0547,-0.8822,-0.7559,-0.6859,-0.8152,-0.7783,-0.7326,-0.7326,-0.6721,-0.649,-0.6412,-0.6335,-0.6335,-0.6261,-0.6261,-0.6261,-0.6261,-0.6264,-0.6264,-0.6268,-0.6274,-0.6285,-0.6291,-0.6295,-0.6305,-0.6322,-0.4411,-0.2752,-0.0,-0.0,-0.0,-0.0,0.4729,0.6247,0.6244,0.5344,0.5015,0.6207,0.6278,0.6268,0.6264,0.6261,0.6261,0.6257,0.6725,0.7577,0.7778,0.8385,0.9064,0.9362,1.0265,1.1019,1.162,1.215,1.2231,1.2305,1.2305,1.2519,1.2732,1.3738,1.4807,1.5728,1.6645,1.7217,1.7794,1.794,1.8008,1.8008,1.8076,1.8144,1.8337,1.8596,1.8327,1.7998,1.8395,1.8844,2.0009,2.0974,2.1553,-2.6701,-2.5536,-2.5786,-2.5285,-2.4116,-2.3412,-2.3125,-2.3078,-2.3005,-2.2506,-2.1491,-2.0074,-1.9365,-1.9044,-1.8269,-1.8008,-1.7979,-1.7967,-1.7524,-1.6551,-1.4887,-1.4099,-1.3506,-1.2954,-1.2417,-1.2352,-1.2251,-1.2238,-1.2298,-1.207,-1.215,-1.1774,-1.1162,-1.064,-1.0708,-0.99,-0.8846,-0.7851,-0.6743,-0.6608,-0.663,-0.6641,-0.6567,-0.649,-0.6416,-0.6261,-0.6261,-0.6261,-0.6261,-0.6261,-0.6261,-0.6261,-0.6264,-0.6271,-0.6193,-0.5957,-0.6207,-0.6305,-0.6325,-0.6247,-0.5686,-0.5048,-0.0,-0.0,-0.0,-0.0,-0.0,0.4095,0.5924,0.6315,0.6224,0.6207,0.6122,0.6193,0.6264,0.6264,0.6261,0.6338,0.6338,0.7042,0.8214,0.899,0.9018,0.9286,1.026,1.1013,1.17,1.215,1.2231,1.2305,1.2305,1.2445,1.2445,1.2886,1.331,1.4522,1.5517,1.6437,1.707,1.7579,1.7862,1.794,1.8008,1.8008,1.8076,1.8144,1.8721,1.9309,1.9177,1.9233,1.9299,1.9879,2.1049,2.1939,2.2322,-2.5742,-2.4924,-2.4595,-2.3946,-2.3223,-2.3119,-2.3065,-2.3005,-2.2506,-2.1479,-2.0257,-1.9431,-1.8921,-1.8472,-1.8202,-1.8008,-1.7979,-1.7967,-1.7524,-1.6358,-1.4268,-1.3621,-1.3215,-1.2806,-1.2305,-1.2305,-1.2305,-1.2305,-1.2305,-1.1768,-1.1385,-1.1007,-0.9809,-0.8908,-0.9003,-0.8794,-0.8588,-0.7107,-0.6475,-0.6325,-0.6257,-0.6261,-0.6261,-0.6261,-0.6261,-0.6261,-0.6261,-0.6261,-0.6261,-0.6261,-0.6261,-0.6264,-0.6271,-0.6278,-0.5721,-0.5174,-0.5104,-0.6322,-0.537,-0.4256,-0.2121,-0.0,-0.0,-0.0,-0.0,-0.0,-0.0,0.5042,0.6152,0.622,0.6285,0.6274,0.6268,0.6264,0.6261,0.6261,0.6261,0.6338,0.6574,0.7979,0.9163,0.9808,1.0062,1.0346,1.1168,1.1545,1.2077,1.2157,1.2305,1.2305,1.2305,1.2592,1.2806,1.3244,1.3962,1.5084,1.5939,1.6715,1.7285,1.7794,1.8008,1.8008,1.8008,1.8008,1.8076,1.8269,1.911,1.989,2.0398,2.059,2.0719,2.0782,2.1553,2.231,2.2823,-2.5191,-2.4581,-2.3895,-2.316,-2.2576,-2.2534,-2.2471,-2.2285,-2.172,-2.0655,-1.9497,-1.9044,-1.8596,-1.8144,-1.8008,-1.8008,-1.8037,-1.7995,-1.7125,-1.6044,-1.4346,-1.3557,-1.3039,-1.2659,-1.2378,-1.2305,-1.2224,-1.2144,-1.17,-1.1087,-1.0409,-0.9508,-0.8461,-0.7855,-0.7714,-0.7654,-0.7585,-0.6493,-0.6254,-0.6254,-0.6261,-0.6261,-0.6261,-0.6261,-0.6261,-0.6261,-0.6261,-0.6261,-0.6261,-0.6264,-0.6268,-0.6274,-0.6281,-0.6048,-0.5497,-0.511,-0.3688,-0.4332,-0.2989,-0.2123,-0.0,-0.0,-0.0,-0.0,-0.0,-0.0,-0.0,0.4716,0.5817,0.6203,0.6274,0.6264,0.6261,0.6261,0.6261,0.6261,0.6331,0.6331,0.7103,0.8593,1.0138,1.0703,1.1037,1.1558,1.2077,1.2157,1.2305,1.2305,1.2378,1.2519,1.2659,1.2952,1.3593,1.4307,1.4942,1.572,1.6498,1.6991,1.7501,1.8008,1.8008,1.8008,1.8008,1.8008,1.8134,1.8529,1.9694,2.0526,2.1353,2.1865,2.2063,2.2187,2.231,2.2628,2.3065,-2.507,-2.4375,-2.3789,-2.2999,-2.2243,-2.1652,-2.1301,-2.1021,-2.0711,-2.0084,-1.9191,-1.8422,-1.8076,-1.8008,-1.8008,-1.793,-1.792,-1.7942,-1.689,-1.5564,-1.4431,-1.3623,-1.2921,-1.2445,-1.215,-1.215,-1.1996,-1.1465,-1.0864,-1.026,-0.9362,-0.8309,-0.7706,-0.7173,-0.6799,-0.6648,-0.657,-0.6338,-0.6261,-0.6261,-0.6261,-0.6261,-0.6261,-0.6261,-0.6261,-0.6261,-0.6261,-0.6264,-0.6268,-0.6271,-0.6278,-0.6285,-0.6217,-0.6155,-0.6084,-0.4888,-0.1962,-0.0,-0.0,-0.0,-0.0,-0.0,-0.0,-0.0,-0.0,0.354,0.4562,0.4867,0.5569,0.5957,0.6264,0.6261,0.6261,0.6261,0.6261,0.6254,0.6321,0.678,0.7706,0.9099,1.1027,1.1845,1.1868,1.2305,1.2305,1.2305,1.2305,1.2305,1.2526,1.3171,1.3317,1.3528,1.4307,1.5429,1.607,1.6498,1.6991,1.7501,1.7647,1.8008,1.8008,1.8008,1.8008,1.8076,1.8134,1.8787,2.0009,2.1353,2.2616,2.2944,2.2823,2.2823,2.2689,2.2811,2.3125,-2.3535,-2.2524,-2.2332,-2.1609,-2.0615,-2.0378,-2.0365,-2.0358,-2.0086,-1.9497,-1.8708,-1.8198,-1.7978,-1.8008,-1.8008,-1.7569,-1.7449,-1.7404,-1.6668,-1.5484,-1.3928,-1.3462,-1.3018,-1.2512,-1.199,-1.1465,-1.1162,-1.0714,-0.9744,-0.9216,-0.8156,-0.6949,-0.6872,-0.6567,-0.6412,-0.6261,-0.6261,-0.6261,-0.6261,-0.6261,-0.6261,-0.6261,-0.6261,-0.6261,-0.6261,-0.6261,-0.6264,-0.6268,-0.6274,-0.6278,-0.6288,-0.6298,-0.624,-0.3692,-0.1803,-0.1727,-0.0,-0.0,-0.0,-0.0,0.11,0.2672,0.1883,0.2277,-0.0,0.5202,0.5908,0.5733,0.5562,0.6109,0.6264,0.6261,0.6261,0.6261,0.6412,0.6556,0.6619,0.7061,0.8134,1.0304,1.2162,1.2203,1.2311,1.2305,1.2305,1.2305,1.2305,1.2378,1.2739,1.3455,1.389,1.4099,1.5163,1.6358,1.6715,1.707,1.7501,1.793,1.8008,1.8008,1.8008,1.8008,1.8008,1.8269,1.8787,1.9497,2.0344,2.1678,2.3065,2.3125,2.3005,2.3065,2.3125,2.3125,2.3125,-2.2801,-2.2053,-2.1534,-2.072,-1.9888,-1.9815,-1.9799,-1.9648,-1.9485,-1.897,-1.808,-1.7836,-1.7852,-1.793,-1.7569,-1.7139,-1.6724,-1.6545,-1.5899,-1.4466,-1.2919,-1.283,-1.2718,-1.2211,-1.1465,-1.0864,-1.026,-0.9664,-0.8689,-0.7783,-0.6795,-0.6412,-0.6261,-0.6261,-0.6261,-0.6261,-0.6261,-0.6261,-0.6261,-0.6261,-0.6261,-0.6261,-0.6261,-0.6261,-0.6261,-0.6261,-0.6268,-0.6274,-0.6281,-0.6295,-0.6305,-0.5274,-0.4411,-0.1255,-0.0,-0.0,-0.0,-0.0,-0.0,-0.0,-0.0,0.4408,0.3929,0.4323,0.4873,0.6061,0.621,0.6119,0.6193,0.6268,0.6264,0.6261,0.6261,0.6261,0.6637,0.6934,0.7214,0.7415,0.9175,1.1509,1.2277,1.2251,1.2305,1.2305,1.2378,1.2452,1.2666,1.3025,1.3382,1.4019,1.4386,1.4673,1.5939,1.7207,1.7423,1.7501,1.7716,1.8008,1.8008,1.8008,1.8008,1.8144,1.8202,1.8854,1.9628,2.0344,2.0985,2.2051,2.3125,2.3125,2.3125,2.3125,2.3125,2.3125,2.3125,-2.274,-2.2452,-2.1224,-2.0346,-1.985,-1.9823,-1.9356,-1.8661,-1.8816,-1.8408,-1.7546,-1.737,-1.7473,-1.7378,-1.693,-1.6435,-1.5956,-1.5686,-1.4969,-1.3528,-1.2151,-1.1803,-1.1749,-1.1168,-1.049,-1.019,-0.9669,-0.8689,-0.7706,-0.6945,-0.649,-0.6261,-0.6261,-0.6261,-0.6261,-0.6261,-0.6261,-0.6261,-0.6261,-0.6264,-0.6264,-0.6261,-0.6261,-0.6264,-0.6264,-0.6264,-0.6274,-0.6285,-0.6295,-0.6315,-0.5207,-0.3459,-0.1649,-0.0,-0.0,-0.0,-0.0,-0.0,-0.0,-0.0,-0.0,0.5042,0.6244,0.5905,0.6051,0.6288,0.6281,0.6274,0.6268,0.6264,0.6261,0.6335,0.6335,0.6718,0.7096,0.777,0.8433,0.8934,1.0375,1.2096,1.2331,1.2305,1.2305,1.2305,1.2305,1.2452,1.2952,1.3455,1.4019,1.4585,1.5084,1.5305,1.6515,1.7647,1.7716,1.7794,1.7862,1.8008,1.8008,1.8008,1.8008,1.8202,1.8462,1.9243,2.0009,2.091,2.169,2.2567,2.3065,2.3125,2.3125,2.3125,2.3125,2.3125,2.3125,-2.2801,-2.1805,-2.057,-1.9952,-1.9798,-1.9798,-1.9032,-1.7918,-1.7901,-1.7673,-1.7236,-1.6991,-1.671,-1.6425,-1.6116,-1.5463,-1.4633,-1.4721,-1.4061,-1.2492,-1.1033,-1.0748,-1.0858,-1.0121,-0.9362,-0.8689,-0.8084,-0.771,-0.6945,-0.6412,-0.6261,-0.6261,-0.6261,-0.6261,-0.6261,-0.6261,-0.6261,-0.6264,-0.6268,-0.6274,-0.6274,-0.6268,-0.6264,-0.6274,-0.6281,-0.62,-0.621,-0.6308,-0.6318,-0.6087,-0.2909,-0.1178,-0.0,-0.0,-0.0,-0.0,-0.0,-0.0,0.3383,0.4012,0.4959,0.5503,0.6291,0.6278,0.6271,0.6274,0.6271,0.6268,0.6264,0.6261,0.6335,0.6412,0.6644,0.7099,0.7778,0.8756,0.9648,1.0622,1.1668,1.1983,1.2231,1.2305,1.2305,1.2378,1.2305,1.2666,1.3237,1.381,1.4514,1.5155,1.6,1.6437,1.7088,1.7872,1.8008,1.8008,1.8008,1.8008,1.8008,1.8008,1.8008,1.8462,1.8911,1.9562,2.0333,2.1302,2.2002,2.2567,2.2957,2.3065,2.3125,2.3125,2.3125,2.3125,2.3125,-2.2363,-2.1554,-2.032,-1.9798,-1.9683,-1.9132,-1.833,-1.7622,-1.7246,-1.6835,-1.6394,-1.6036,-1.5807,-1.5402,-1.4982,-1.4432,-1.357,-1.369,-1.2889,-1.1409,-1.0267,-0.9911,-0.9562,-0.9145,-0.8613,-0.7859,-0.7253,-0.6795,-0.6335,-0.6261,-0.6261,-0.6261,-0.6261,-0.6264,-0.6268,-0.6268,-0.6268,-0.6274,-0.62,-0.6288,-0.6051,-0.5565,-0.5718,-0.573,-0.5572,-0.5575,-0.6149,-0.6084,-0.4967,-0.3936,-0.1178,-0.0,-0.0,-0.0,-0.0,-0.0,-0.0,0.3779,0.5526,0.6318,0.6302,0.6288,0.6278,0.6271,0.6264,0.6264,0.6264,0.6261,0.6261,0.6261,0.6567,0.6644,0.7099,0.7553,0.8836,1.0034,1.0783,1.1539,1.2063,1.2144,1.2305,1.2305,1.2452,1.2952,1.3025,1.3455,1.3954,1.4799,1.5367,1.579,1.6636,1.7207,1.7725,1.794,1.8008,1.8008,1.8008,1.8008,1.8008,1.8008,1.8134,1.8777,1.942,2.0139,2.091,2.1741,2.2445,2.2823,2.2957,2.3065,2.3125,2.3125,2.3125,2.3125,2.3305,-2.1758,-2.1424,-2.0283,-1.9747,-1.9478,-1.8231,-1.756,-1.7335,-1.6821,-1.6093,-1.541,-1.4906,-1.4953,-1.4564,-1.3637,-1.3278,-1.2961,-1.2884,-1.1854,-1.0813,-0.9638,-0.9155,-0.8666,-0.8161,-0.7629,-0.7249,-0.6795,-0.6567,-0.6335,-0.6261,-0.6261,-0.6264,-0.6268,-0.6271,-0.6278,-0.6203,-0.6126,-0.5811,-0.5817,-0.623,-0.543,-0.4233,-0.4309,-0.4307,-0.4545,-0.4316,-0.5202,-0.4807,-0.3066,-0.0,-0.0,-0.0,-0.0,-0.0,-0.0,0.1806,0.3936,0.5442,0.6315,0.6302,0.6288,0.6278,0.6274,0.6271,0.6261,0.6261,0.6261,0.6335,0.6335,0.649,0.6795,0.7176,0.7629,0.8533,0.9959,1.1087,1.1694,1.2224,1.2305,1.2305,1.2305,1.2305,1.2813,1.331,1.381,1.4243,1.5021,1.593,1.6636,1.6853,1.7354,1.7638,1.7862,1.8008,1.8008,1.8008,1.8008,1.8008,1.8008,1.8076,1.8395,1.9497,2.0333,2.0782,2.1553,2.2322,2.2689,2.3005,2.3065,2.3125,2.3125,2.3125,2.3125,2.3185,2.3531,-2.188,-2.0881,-2.0093,-1.9475,-1.8838,-1.7954,-1.7246,-1.6743,-1.6595,-1.6093,-1.5186,-1.3985,-1.3554,-1.3763,-1.2866,-1.2277,-1.1984,-1.2011,-1.1417,-1.0466,-0.9155,-0.8486,-0.7918,-0.7249,-0.6718,-0.649,-0.6412,-0.6335,-0.6261,-0.6261,-0.6264,-0.6271,-0.6193,-0.62,-0.6291,-0.6054,-0.5575,-0.4865,-0.5112,-0.5683,-0.5599,-0.424,-0.227,-0.2821,-0.4169,-0.3064,-0.2277,-0.1335,-0.0707,-0.0,-0.0,-0.0,-0.0,-0.0,-0.0,0.3618,0.5846,0.5993,0.6298,0.6288,0.6278,0.6268,0.6264,0.6264,0.6261,0.6261,0.6335,0.649,0.6567,0.6949,0.7253,0.7706,0.8309,0.9814,1.1316,1.1694,1.215,1.2305,1.2305,1.2378,1.2372,1.2732,1.3317,1.381,1.4378,1.495,1.5799,1.6645,1.6922,1.7432,1.8008,1.8008,1.8008,1.8008,1.8008,1.8008,1.8008,1.8008,1.8202,1.8529,1.9299,2.0655,2.1365,2.1428,2.2002,2.2823,2.3065,2.3125,2.3125,2.3125,2.3125,2.3125,2.3125,2.3245,2.3543]},{"header":{"parameterUnit":"m.s-1","parameterCategory":1,"la1":31.0,"la2":29.5877,"lo1":-88.7671,"lo2":-86.6584,"dy":0.0162,"dx":0.0185,"nx":115,"ny":88,"refTime":"2024-02-16T06:00:00:Z","depth":0,"parameterNumber":3,"parameterNumberName":"V-component_of_WINDS"},"data":[0.0,0.0,0.0,0.0,0.0,0.0,0.0,0.0,0.0,0.0,0.0,0.0,0.0,0.0,0.0,0.0,0.0,0.0,0.0,0.0,0.0,0.0,0.0,0.0,0.0,0.0,0.0,0.0,0.0,0.0,0.0,0.0,0.0,0.0,0.0,0.0,0.0,0.0,0.0,0.0,0.0,0.0,0.0,0.0,0.0,0.0,0.0,0.0,0.0,0.0,0.0,0.0,0.0,0.0,0.0,0.0,0.0,0.0,0.0,0.0,0.0,0.0,0.0,0.0,0.0,0.0,0.0,0.0,0.0,0.0,0.0,0.0,0.0,0.0,0.0,0.0,0.0,0.0,0.0,0.0,0.0,0.0,0.0,0.0,0.0,0.0,0.0,0.0,0.0,0.0,0.0,0.0,0.0,0.0,0.0,0.0,0.0,0.0,0.0,0.0,0.0,0.0,0.0,0.0,0.0,0.0,0.0,0.0,0.0,0.0,0.0,0.0,0.0,0.0,0.0,0.0,0.0,0.0,0.0,0.0,0.0,0.0,0.0,0.0,0.0,0.0,0.0,0.0,0.0,0.0,0.0,0.0,0.0,0.0,0.0,0.0,0.0,0.0,0.0,0.0,0.0,0.0,0.0,0.0,0.0,0.0,0.0,0.0,0.0,0.0,0.0,0.0,0.0,0.0,0.0,0.0,0.0,0.0,0.0,0.0,0.0,0.0,0.0,0.0,0.0,0.0,0.0,0.0,0.0,0.0,0.0,0.0,0.0,0.0,0.0,0.0,0.0,0.0,0.0,0.0,0.0,0.0,0.0,0.0,0.0,0.0,0.0,0.0,0.0,0.0,0.0,0.0,0.0,0.0,0.0,0.0,0.0,0.0,0.0,0.0,0.0,0.0,0.0,0.0,0.0,0.0,0.0,0.0,0.0,0.0,0.0,0.0,0.0,0.0,0.0,0.0,0.0,0.0,0.0,0.0,0.0,0.0,0.0,0.0,0.0,0.0,0.0,0.0,0.0,0.0,0.0,0.0,0.0,0.0,0.0,0.0,0.0,0.0,0.0,0.0,0.0,0.0,0.0,0.0,0.0,0.0,0.0,0.0,0.0,0.0,0.0,0.0,0.0,0.0,0.0,0.0,0.0,0.0,0.0,0.0,0.0,0.0,0.0,0.0,0.0,0.0,0.0,0.0,0.0,0.0,0.0,0.0,0.0,0.0,0.0,0.0,0.0,0.0,0.0,0.0,0.0,0.0,0.0,0.0,0.0,0.0,0.0,0.0,0.0,0.0,0.0,0.0,0.0,0.0,0.0,0.0,0.0,0.0,0.0,0.0,0.0,0.0,0.0,0.0,0.0,0.0,0.0,0.0,0.0,0.0,0.0,0.0,0.0,0.0,0.0,0.0,0.0,0.0,0.0,0.0,0.0,0.0,0.0,0.0,0.0,0.0,0.0,0.0,0.0,0.0,0.0,0.0,0.0,0.0,0.0,0.0,0.0,0.0,0.0,0.0,0.0,0.0,0.0,0.0,0.0,0.0,0.0,0.0,0.0,0.0,0.0,0.0,0.0,0.0,0.0,0.0,0.0,0.0,0.0,0.0,0.0,0.0,0.0,0.0,0.0,0.0,0.0,0.0,0.0,0.0,0.0,0.0,0.0,0.0,0.0,0.0,0.0,0.0,0.0,0.0,0.0,0.0,0.0,0.0,0.0,0.0,0.0,0.0,0.0,0.0,0.0,0.0,0.0,0.0,0.0,0.0,0.0,0.0,0.0,0.0,0.0,0.0,0.0,0.0,0.0,0.0,0.0,0.0,0.0,0.0,0.0,0.0,0.0,0.0,0.0,0.0,0.0,0.0,0.0,0.0,0.0,0.0,0.0,0.0,0.0,0.0,0.0,0.0,0.0,0.0,0.0,0.0,0.0,0.0,0.0,0.0,0.0,0.0,0.0,0.0,0.0,0.0,0.0,0.0,0.0,0.0,0.0,0.0,0.0,0.0,0.0,0.0,0.0,0.0,0.0,0.0,0.0,0.0,0.0,0.0,0.0,0.0,0.0,0.0,0.0,0.0,0.0,0.0,0.0,0.0,0.0,0.0,0.0,0.0,0.0,0.0,0.0,0.0,0.0,0.0,0.0,0.0,0.0,0.0,0.0,0.0,0.0,0.0,0.0,0.0,0.0,0.0,0.0,0.0,0.0,0.0,0.0,0.0,0.0,0.0,0.0,0.0,0.0,0.0,0.0,0.0,0.0,0.0,0.0,0.0,0.0,0.0,0.0,0.0,0.0,0.0,0.0,0.0,0.0,0.0,0.0,0.0,0.0,0.0,0.0,0.0,0.0,0.0,0.0,0.0,0.0,0.0,0.0,0.0,0.0,0.0,0.0,0.0,0.0,0.0,0.0,0.0,0.0,0.0,0.0,0.0,0.0,0.0,0.0,0.0,0.0,0.0,0.0,0.0,0.0,0.0,0.0,0.0,0.0,0.0,0.0,0.0,0.0,0.0,0.0,0.0,0.0,0.0,0.0,0.0,0.0,0.0,0.0,0.0,0.0,0.0,0.0,0.0,0.0,0.0,0.0,0.0,0.0,0.0,0.0,0.0,0.0,0.0,0.0,0.0,0.0,0.0,0.0,0.0,0.0,0.0,0.0,0.0,0.0,0.0,0.0,0.0,0.0,0.0,0.0,0.0,0.0,0.0,0.0,0.0,0.0,0.0,0.0,0.0,0.0,0.0,0.0,0.0,0.0,0.0,0.0,0.0,0.0,0.0,0.0,0.0,0.0,0.0,0.0,0.0,0.0,0.0,0.0,0.0,0.0,0.0,0.0,0.0,0.0,0.0,0.0,0.0,0.0,0.0,0.0,0.0,0.0,0.0,0.0,0.0,0.0,0.0,0.0,0.0,0.0,0.0,0.0,0.0,0.0,0.0,0.0,0.0,0.0,0.0,0.0,0.0,0.0,0.0,0.0,0.0,0.0,0.0,0.0,0.0,0.0,0.0,0.0,0.0,0.0,0.0,0.0,0.0,0.0,0.0,0.0,0.0,0.0,0.0,0.0,0.0,0.0,0.0,0.0,0.0,0.0,0.0,0.0,0.0,0.0,0.0,0.0,0.0,0.0,0.0,0.0,0.0,0.0,0.0,0.0,0.0,0.0,0.0,0.0,0.0,0.0,0.0,0.0,0.0,0.0,0.0,0.0,0.0,0.0,0.0,0.0,0.0,0.0,0.0,0.0,0.0,0.0,0.0,0.0,0.0,0.0,0.0,0.0,0.0,0.0,0.0,0.0,0.0,0.0,0.0,0.0,0.0,0.0,0.0,0.0,0.0,0.0,0.0,0.0,0.0,0.0,0.0,0.0,0.0,0.0,0.0,0.0,0.0,0.0,0.0,0.0,0.0,0.0,0.0,0.0,0.0,0.0,0.0,0.0,0.0,0.0,0.0,0.0,0.0,0.0,0.0,0.0,0.0,0.0,0.0,0.0,0.0,0.0,0.0,0.0,0.0,0.0,0.0,0.0,0.0,0.0,0.0,0.0,0.0,0.0,0.0,0.0,0.0,0.0,0.0,0.0,0.0,0.0,0.0,0.0,0.0,0.0,0.0,0.0,0.0,0.0,0.0,0.0,0.0,0.0,0.0,0.0,0.0,0.0,0.0,0.0,0.0,0.0,0.0,0.0,0.0,0.0,0.0,0.0,0.0,0.0,0.0,0.0,0.0,0.0,0.0,0.0,0.0,0.0,0.0,0.0,0.0,0.0,0.0,0.0,0.0,0.0,0.0,0.0,0.0,0.0,0.0,0.0,0.0,0.0,0.0,0.0,0.0,0.0,0.0,0.0,0.0,0.0,0.0,0.0,0.0,0.0,0.0,0.0,0.0,0.0,0.0,0.0,0.0,0.0,0.0,0.0,0.0,0.0,0.0,0.0,0.0,0.0,0.0,0.0,0.0,0.0,0.0,0.0,0.0,0.0,0.0,0.0,0.0,0.0,0.0,0.0,0.0,0.0,0.0,0.0,0.0,0.0,0.0,0.0,0.0,0.0,0.0,0.0,0.0,0.0,0.0,0.0,0.0,0.0,0.0,0.0,0.0,0.0,0.0,0.0,0.0,0.0,0.0,0.0,0.0,0.0,0.0,0.0,0.0,0.0,0.0,0.0,0.0,0.0,0.0,0.0,0.0,0.0,0.0,0.0,0.0,0.0,0.0,0.0,0.0,0.0,0.0,0.0,0.0,0.0,0.0,0.0,0.0,0.0,0.0,0.0,0.0,0.0,0.0,0.0,0.0,-3.119,0.0,0.0,0.0,0.0,0.0,0.0,0.0,0.0,0.0,0.0,0.0,0.0,0.0,0.0,0.0,0.0,0.0,0.0,0.0,0.0,0.0,0.0,0.0,0.0,0.0,0.0,0.0,0.0,0.0,0.0,0.0,0.0,0.0,0.0,0.0,0.0,0.0,0.0,0.0,0.0,0.0,0.0,0.0,0.0,0.0,0.0,0.0,0.0,0.0,0.0,0.0,0.0,0.0,0.0,0.0,0.0,0.0,0.0,0.0,0.0,0.0,0.0,0.0,0.0,0.0,0.0,0.0,0.0,0.0,0.0,0.0,0.0,0.0,0.0,0.0,0.0,0.0,0.0,0.0,0.0,0.0,0.0,0.0,0.0,0.0,0.0,0.0,0.0,0.0,0.0,0.0,0.0,0.0,0.0,0.0,0.0,0.0,0.0,0.0,0.0,0.0,0.0,0.0,0.0,0.0,0.0,0.0,0.0,0.0,0.0,-3.119,-3.119,-3.119,-3.119,-3.119,0.0,0.0,0.0,0.0,0.0,0.0,0.0,0.0,0.0,0.0,0.0,0.0,0.0,0.0,0.0,0.0,0.0,0.0,0.0,0.0,0.0,0.0,0.0,0.0,0.0,0.0,0.0,0.0,0.0,0.0,0.0,0.0,0.0,0.0,0.0,0.0,0.0,0.0,0.0,0.0,0.0,0.0,0.0,0.0,0.0,0.0,0.0,0.0,0.0,0.0,0.0,0.0,0.0,0.0,0.0,0.0,0.0,0.0,0.0,0.0,0.0,0.0,0.0,0.0,0.0,0.0,0.0,0.0,0.0,0.0,0.0,0.0,0.0,0.0,0.0,0.0,0.0,0.0,0.0,0.0,0.0,0.0,0.0,0.0,0.0,0.0,0.0,0.0,0.0,0.0,0.0,0.0,0.0,0.0,0.0,0.0,0.0,0.0,0.0,0.0,0.0,0.0,0.0,0.0,0.0,0.0,0.0,0.0,0.0,0.0,0.0,0.0,-3.119,-3.119,-3.119,0.0,0.0,0.0,0.0,0.0,0.0,0.0,0.0,0.0,0.0,0.0,0.0,0.0,0.0,0.0,0.0,0.0,0.0,0.0,0.0,0.0,0.0,0.0,0.0,0.0,0.0,0.0,0.0,0.0,0.0,0.0,0.0,0.0,0.0,0.0,0.0,0.0,0.0,0.0,0.0,0.0,0.0,0.0,0.0,0.0,0.0,0.0,0.0,0.0,0.0,0.0,0.0,0.0,0.0,0.0,0.0,0.0,0.0,0.0,0.0,0.0,0.0,0.0,0.0,0.0,0.0,0.0,0.0,0.0,0.0,0.0,0.0,0.0,0.0,0.0,0.0,0.0,0.0,0.0,0.0,0.0,0.0,0.0,0.0,0.0,0.0,0.0,0.0,0.0,0.0,0.0,0.0,0.0,0.0,0.0,0.0,0.0,0.0,0.0,0.0,0.0,0.0,0.0,0.0,0.0,0.0,0.0,0.0,0.0,0.0,-3.119,-3.119,-3.119,0.0,-3.119,0.0,0.0,0.0,0.0,0.0,0.0,0.0,0.0,0.0,0.0,0.0,0.0,0.0,0.0,0.0,0.0,0.0,0.0,0.0,0.0,0.0,0.0,0.0,0.0,0.0,0.0,0.0,0.0,0.0,0.0,0.0,0.0,0.0,0.0,0.0,0.0,0.0,0.0,0.0,0.0,0.0,0.0,0.0,0.0,0.0,0.0,0.0,0.0,0.0,0.0,0.0,0.0,0.0,0.0,0.0,0.0,0.0,0.0,0.0,0.0,0.0,0.0,0.0,0.0,0.0,0.0,0.0,0.0,0.0,0.0,0.0,0.0,0.0,0.0,0.0,0.0,0.0,0.0,0.0,0.0,0.0,0.0,0.0,0.0,0.0,0.0,0.0,0.0,0.0,0.0,0.0,0.0,0.0,0.0,0.0,0.0,0.0,0.0,0.0,0.0,0.0,0.0,0.0,0.0,0.0,0.0,0.0,0.0,0.0,0.0,-3.1015,-3.0699,-3.0658,-3.0838,0.0,0.0,0.0,0.0,0.0,0.0,0.0,0.0,0.0,0.0,0.0,0.0,0.0,0.0,0.0,0.0,0.0,0.0,0.0,0.0,0.0,0.0,0.0,0.0,0.0,0.0,0.0,0.0,0.0,0.0,0.0,0.0,0.0,0.0,0.0,0.0,0.0,0.0,0.0,0.0,0.0,0.0,0.0,0.0,0.0,0.0,0.0,0.0,0.0,0.0,0.0,0.0,0.0,0.0,0.0,0.0,0.0,0.0,0.0,0.0,0.0,0.0,0.0,0.0,0.0,0.0,0.0,0.0,0.0,0.0,0.0,0.0,0.0,0.0,0.0,0.0,0.0,0.0,0.0,0.0,0.0,0.0,0.0,0.0,0.0,0.0,0.0,0.0,0.0,0.0,0.0,0.0,0.0,0.0,0.0,0.0,0.0,0.0,0.0,0.0,0.0,0.0,0.0,0.0,0.0,0.0,0.0,0.0,0.0,0.0,-3.0807,-3.0477,-3.0064,-3.0208,-3.0535,-3.0935,0.0,0.0,0.0,0.0,0.0,0.0,0.0,0.0,0.0,0.0,0.0,0.0,0.0,0.0,0.0,0.0,0.0,0.0,0.0,0.0,0.0,0.0,0.0,0.0,0.0,0.0,0.0,0.0,0.0,0.0,0.0,0.0,0.0,0.0,0.0,0.0,0.0,0.0,0.0,0.0,0.0,0.0,0.0,0.0,0.0,0.0,0.0,0.0,0.0,0.0,0.0,0.0,0.0,0.0,0.0,0.0,0.0,0.0,0.0,0.0,0.0,0.0,0.0,0.0,0.0,0.0,0.0,0.0,0.0,0.0,0.0,0.0,0.0,0.0,0.0,0.0,0.0,0.0,0.0,0.0,0.0,0.0,0.0,0.0,0.0,0.0,0.0,0.0,0.0,0.0,0.0,0.0,0.0,0.0,0.0,0.0,0.0,0.0,0.0,0.0,0.0,0.0,0.0,0.0,0.0,0.0,0.0,0.0,-3.0312,-2.9794,-2.9451,-2.9451,-2.9978,-3.0293,0.0,0.0,0.0,0.0,0.0,0.0,0.0,0.0,0.0,0.0,0.0,0.0,0.0,0.0,0.0,0.0,0.0,0.0,0.0,0.0,0.0,0.0,0.0,0.0,0.0,0.0,0.0,0.0,0.0,0.0,0.0,0.0,0.0,0.0,0.0,0.0,0.0,0.0,0.0,0.0,0.0,0.0,0.0,0.0,0.0,0.0,0.0,0.0,0.0,0.0,0.0,0.0,0.0,0.0,0.0,0.0,0.0,0.0,0.0,0.0,0.0,0.0,0.0,0.0,0.0,0.0,0.0,0.0,0.0,0.0,0.0,0.0,0.0,0.0,0.0,0.0,0.0,0.0,0.0,0.0,0.0,0.0,0.0,0.0,0.0,0.0,0.0,0.0,0.0,0.0,0.0,0.0,0.0,0.0,0.0,0.0,0.0,0.0,0.0,0.0,0.0,0.0,0.0,0.0,0.0,0.0,0.0,0.0,0.0,-2.9704,-2.9155,-2.8996,-2.9361,-2.9225,-2.9496,0.0,0.0,0.0,0.0,0.0,0.0,0.0,0.0,0.0,0.0,0.0,0.0,0.0,0.0,0.0,0.0,0.0,0.0,0.0,0.0,0.0,0.0,0.0,0.0,0.0,0.0,0.0,0.0,0.0,0.0,0.0,0.0,0.0,0.0,0.0,0.0,0.0,0.0,0.0,0.0,0.0,0.0,0.0,0.0,0.0,0.0,0.0,0.0,0.0,0.0,0.0,0.0,0.0,0.0,0.0,0.0,0.0,0.0,0.0,0.0,0.0,0.0,0.0,0.0,0.0,0.0,0.0,0.0,0.0,0.0,0.0,0.0,0.0,0.0,0.0,0.0,0.0,0.0,0.0,0.0,0.0,0.0,0.0,0.0,0.0,0.0,0.0,0.0,0.0,0.0,0.0,0.0,0.0,0.0,0.0,0.0,0.0,0.0,0.0,0.0,0.0,0.0,0.0,0.0,0.0,0.0,0.0,0.0,0.0,-2.8808,0.0,-2.84,-2.881,-2.8591,-2.8873,0.0,0.0,0.0,0.0,0.0,0.0,0.0,0.0,0.0,0.0,0.0,0.0,0.0,0.0,0.0,0.0,0.0,0.0,0.0,0.0,0.0,0.0,0.0,0.0,0.0,0.0,0.0,0.0,0.0,0.0,0.0,0.0,0.0,0.0,0.0,0.0,0.0,0.0,0.0,0.0,0.0,0.0,0.0,0.0,0.0,0.0,0.0,0.0,0.0,0.0,0.0,0.0,0.0,0.0,0.0,0.0,0.0,0.0,0.0,0.0,0.0,0.0,0.0,0.0,0.0,0.0,0.0,0.0,0.0,0.0,0.0,0.0,0.0,0.0,0.0,0.0,0.0,0.0,0.0,0.0,0.0,0.0,0.0,0.0,0.0,0.0,0.0,0.0,0.0,0.0,0.0,0.0,0.0,0.0,0.0,0.0,0.0,0.0,0.0,0.0,0.0,0.0,0.0,0.0,0.0,0.0,0.0,0.0,-2.8238,-2.7625,-2.7625,-2.766,-2.7625,-2.8189,-2.8511,0.0,0.0,0.0,0.0,0.0,0.0,0.0,0.0,0.0,0.0,0.0,0.0,0.0,0.0,0.0,0.0,0.0,0.0,0.0,0.0,0.0,0.0,0.0,0.0,0.0,0.0,0.0,0.0,0.0,0.0,0.0,0.0,0.0,0.0,0.0,0.0,0.0,0.0,0.0,0.0,0.0,0.0,0.0,0.0,0.0,0.0,0.0,0.0,0.0,0.0,0.0,0.0,0.0,0.0,0.0,0.0,0.0,0.0,0.0,0.0,0.0,0.0,0.0,0.0,0.0,0.0,0.0,0.0,0.0,0.0,0.0,0.0,0.0,0.0,0.0,0.0,0.0,0.0,0.0,0.0,0.0,0.0,0.0,0.0,0.0,0.0,0.0,0.0,0.0,0.0,0.0,0.0,0.0,0.0,0.0,0.0,0.0,0.0,0.0,0.0,0.0,0.0,0.0,0.0,0.0,0.0,0.0,0.0,0.0,-2.761,-2.756,-2.756,-2.7625,-2.776,-2.8091,0.0,0.0,0.0,0.0,0.0,0.0,0.0,0.0,0.0,0.0,0.0,0.0,0.0,0.0,0.0,0.0,0.0,0.0,0.0,0.0,0.0,0.0,0.0,0.0,0.0,0.0,0.0,0.0,0.0,0.0,0.0,0.0,0.0,0.0,0.0,0.0,0.0,0.0,0.0,0.0,0.0,0.0,0.0,0.0,0.0,0.0,0.0,0.0,0.0,0.0,0.0,0.0,0.0,0.0,0.0,0.0,0.0,0.0,0.0,0.0,0.0,0.0,0.0,0.0,0.0,0.0,0.0,0.0,0.0,0.0,0.0,0.0,0.0,0.0,0.0,0.0,0.0,0.0,0.0,0.0,0.0,0.0,0.0,0.0,0.0,0.0,0.0,0.0,0.0,0.0,0.0,0.0,0.0,0.0,0.0,0.0,0.0,0.0,0.0,0.0,0.0,0.0,0.0,0.0,0.0,0.0,0.0,0.0,0.0,-2.7203,-2.7188,-2.7203,-2.7203,-2.7203,-2.7494,-2.814,0.0,0.0,0.0,0.0,0.0,0.0,0.0,0.0,0.0,0.0,0.0,0.0,0.0,0.0,0.0,0.0,0.0,0.0,0.0,0.0,0.0,0.0,0.0,0.0,0.0,0.0,0.0,0.0,0.0,0.0,0.0,0.0,0.0,0.0,0.0,0.0,0.0,0.0,0.0,0.0,0.0,0.0,0.0,0.0,0.0,0.0,0.0,0.0,0.0,0.0,0.0,0.0,0.0,0.0,0.0,0.0,0.0,0.0,0.0,0.0,0.0,0.0,0.0,0.0,0.0,0.0,0.0,0.0,0.0,0.0,0.0,0.0,0.0,0.0,0.0,0.0,0.0,0.0,0.0,0.0,0.0,0.0,0.0,0.0,0.0,0.0,0.0,0.0,0.0,0.0,0.0,0.0,0.0,0.0,0.0,0.0,0.0,0.0,0.0,0.0,0.0,0.0,0.0,0.0,0.0,0.0,0.0,0.0,-2.6404,-2.639,-2.639,-2.6496,-2.6496,-2.6826,0.0,0.0,0.0,0.0,0.0,0.0,0.0,0.0,0.0,0.0,0.0,0.0,0.0,0.0,0.0,0.0,0.0,0.0,0.0,0.0,0.0,0.0,0.0,0.0,0.0,0.0,0.0,0.0,0.0,0.0,0.0,0.0,0.0,0.0,0.0,0.0,0.0,0.0,0.0,0.0,0.0,0.0,0.0,0.0,0.0,0.0,0.0,0.0,0.0,0.0,0.0,0.0,0.0,0.0,0.0,0.0,0.0,0.0,0.0,0.0,0.0,0.0,0.0,0.0,0.0,0.0,0.0,0.0,0.0,0.0,0.0,0.0,0.0,0.0,0.0,0.0,0.0,0.0,0.0,0.0,0.0,0.0,0.0,0.0,0.0,0.0,0.0,0.0,0.0,0.0,0.0,0.0,0.0,0.0,0.0,0.0,0.0,0.0,0.0,0.0,0.0,0.0,0.0,0.0,0.0,0.0,0.0,0.0,0.0,-2.4951,-2.4908,-2.5398,-2.6443,-2.6496,-2.6826,0.0,0.0,0.0,0.0,0.0,0.0,0.0,0.0,0.0,0.0,0.0,0.0,0.0,0.0,0.0,0.0,0.0,0.0,0.0,0.0,0.0,0.0,0.0,0.0,0.0,0.0,0.0,0.0,0.0,0.0,0.0,0.0,0.0,0.0,0.0,0.0,0.0,0.0,0.0,0.0,0.0,0.0,0.0,0.0,0.0,0.0,0.0,0.0,0.0,0.0,0.0,0.0,0.0,0.0,0.0,0.0,0.0,0.0,0.0,0.0,0.0,0.0,0.0,0.0,0.0,0.0,0.0,0.0,0.0,0.0,0.0,0.0,0.0,0.0,0.0,0.0,0.0,0.0,0.0,0.0,0.0,0.0,0.0,0.0,0.0,0.0,0.0,0.0,0.0,0.0,0.0,0.0,0.0,0.0,0.0,0.0,0.0,0.0,0.0,0.0,0.0,0.0,0.0,0.0,0.0,0.0,0.0,0.0,-2.5175,-2.4279,-2.3943,-2.4323,-2.5563,-2.5906,-2.6549,0.0,0.0,0.0,0.0,0.0,0.0,0.0,0.0,0.0,0.0,0.0,0.0,0.0,0.0,0.0,0.0,0.0,0.0,0.0,0.0,0.0,0.0,0.0,0.0,0.0,0.0,0.0,0.0,0.0,0.0,0.0,0.0,0.0,0.0,0.0,0.0,0.0,0.0,0.0,0.0,0.0,0.0,0.0,0.0,0.0,0.0,0.0,0.0,0.0,0.0,0.0,0.0,0.0,0.0,0.0,0.0,0.0,0.0,0.0,0.0,0.0,0.0,0.0,0.0,0.0,0.0,0.0,0.0,0.0,0.0,0.0,0.0,0.0,0.0,0.0,0.0,0.0,0.0,0.0,0.0,0.0,0.0,0.0,0.0,0.0,0.0,0.0,0.0,0.0,0.0,0.0,0.0,0.0,0.0,0.0,0.0,0.0,0.0,0.0,0.0,0.0,0.0,0.0,0.0,0.0,0.0,0.0,0.0,-2.4234,-2.4176,-2.3471,-2.3471,-2.4279,-2.5007,-2.6054,0.0,0.0,0.0,0.0,0.0,0.0,0.0,0.0,0.0,0.0,0.0,0.0,0.0,0.0,0.0,0.0,0.0,0.0,0.0,0.0,0.0,0.0,0.0,0.0,0.0,0.0,0.0,0.0,0.0,0.0,0.0,0.0,0.0,0.0,0.0,0.0,0.0,0.0,0.0,0.0,0.0,0.0,0.0,0.0,0.0,0.0,0.0,0.0,0.0,0.0,0.0,0.0,0.0,0.0,0.0,0.0,0.0,0.0,0.0,0.0,0.0,0.0,0.0,0.0,0.0,0.0,0.0,0.0,0.0,0.0,0.0,0.0,0.0,0.0,0.0,0.0,0.0,0.0,0.0,0.0,0.0,0.0,0.0,0.0,0.0,0.0,0.0,0.0,0.0,0.0,0.0,0.0,0.0,0.0,0.0,0.0,0.0,0.0,0.0,0.0,0.0,0.0,0.0,0.0,0.0,0.0,0.0,0.0,-2.4002,-2.3365,-2.3185,-2.3484,-2.4292,-2.5007,-2.5851,0.0,0.0,0.0,0.0,0.0,0.0,0.0,0.0,0.0,0.0,0.0,0.0,0.0,0.0,0.0,0.0,0.0,0.0,0.0,0.0,0.0,0.0,0.0,0.0,0.0,0.0,0.0,0.0,0.0,0.0,0.0,0.0,0.0,0.0,0.0,0.0,0.0,0.0,0.0,0.0,0.0,0.0,0.0,0.0,0.0,0.0,0.0,0.0,-3.2021,0.0,0.0,0.0,0.0,0.0,0.0,0.0,0.0,0.0,0.0,0.0,0.0,0.0,0.0,0.0,0.0,0.0,0.0,0.0,0.0,0.0,0.0,0.0,0.0,0.0,0.0,0.0,0.0,0.0,0.0,0.0,0.0,0.0,0.0,0.0,0.0,0.0,0.0,0.0,0.0,0.0,0.0,0.0,0.0,0.0,0.0,0.0,0.0,0.0,0.0,0.0,0.0,0.0,0.0,0.0,0.0,0.0,0.0,0.0,-2.3543,-2.3138,-2.3125,-2.3305,-2.3708,-2.4496,-2.5412,0.0,0.0,0.0,0.0,0.0,0.0,0.0,0.0,0.0,0.0,0.0,0.0,0.0,0.0,0.0,0.0,0.0,0.0,0.0,0.0,0.0,0.0,0.0,0.0,0.0,0.0,0.0,0.0,0.0,0.0,0.0,0.0,0.0,0.0,0.0,0.0,0.0,0.0,0.0,0.0,0.0,0.0,0.0,0.0,0.0,0.0,0.0,0.0,0.0,0.0,0.0,0.0,0.0,0.0,0.0,0.0,0.0,0.0,0.0,0.0,0.0,0.0,0.0,0.0,0.0,0.0,0.0,0.0,0.0,0.0,0.0,0.0,0.0,0.0,0.0,0.0,0.0,0.0,0.0,0.0,0.0,0.0,0.0,0.0,0.0,0.0,0.0,0.0,0.0,0.0,0.0,0.0,0.0,0.0,0.0,0.0,0.0,0.0,0.0,0.0,0.0,0.0,0.0,0.0,0.0,0.0,0.0,-2.3292,-2.3017,-2.3078,-2.3005,-2.2957,-2.3125,-2.3767,-2.4781,-2.6283,0.0,0.0,0.0,0.0,0.0,0.0,0.0,0.0,0.0,0.0,0.0,0.0,0.0,0.0,0.0,0.0,0.0,0.0,0.0,0.0,0.0,0.0,0.0,0.0,0.0,0.0,0.0,0.0,0.0,0.0,0.0,0.0,0.0,0.0,0.0,0.0,0.0,0.0,-3.2484,-3.2004,0.0,0.0,0.0,0.0,0.0,0.0,0.0,0.0,-3.119,0.0,0.0,0.0,0.0,0.0,0.0,0.0,0.0,0.0,0.0,0.0,0.0,0.0,0.0,0.0,0.0,0.0,0.0,0.0,0.0,0.0,0.0,0.0,0.0,0.0,0.0,0.0,0.0,0.0,0.0,0.0,0.0,0.0,0.0,0.0,0.0,0.0,0.0,0.0,0.0,0.0,0.0,0.0,0.0,0.0,0.0,0.0,0.0,0.0,0.0,0.0,0.0,0.0,0.0,0.0,0.0,-2.3305,-2.2494,-2.2445,-2.3078,-2.2445,-2.2445,-2.3078,-2.3245,-2.3989,-2.5508,0.0,0.0,0.0,0.0,0.0,0.0,0.0,0.0,0.0,0.0,0.0,0.0,0.0,0.0,0.0,0.0,0.0,0.0,0.0,0.0,0.0,0.0,0.0,0.0,0.0,0.0,0.0,0.0,0.0,0.0,0.0,0.0,0.0,0.0,0.0,0.0,0.0,0.0,0.0,-3.1582,-3.1274,0.0,0.0,0.0,0.0,0.0,0.0,0.0,0.0,-3.123,0.0,0.0,0.0,0.0,0.0,0.0,0.0,0.0,0.0,0.0,0.0,0.0,0.0,0.0,0.0,0.0,0.0,0.0,0.0,0.0,0.0,0.0,0.0,0.0,0.0,0.0,0.0,0.0,0.0,0.0,0.0,0.0,0.0,0.0,0.0,0.0,0.0,0.0,0.0,0.0,0.0,0.0,0.0,0.0,0.0,0.0,0.0,0.0,0.0,0.0,0.0,0.0,0.0,0.0,0.0,-2.3065,-2.2702,-2.2689,-2.3078,-2.2702,-2.2689,-2.3078,-2.3125,-2.3826,0.0,0.0,0.0,0.0,0.0,0.0,0.0,0.0,0.0,0.0,0.0,0.0,0.0,0.0,0.0,0.0,0.0,0.0,0.0,0.0,0.0,0.0,0.0,0.0,0.0,0.0,0.0,0.0,0.0,0.0,0.0,0.0,0.0,0.0,0.0,0.0,0.0,0.0,0.0,0.0,-3.1312,-3.119,-3.119,0.0,0.0,0.0,0.0,0.0,0.0,-3.119,-3.119,0.0,0.0,0.0,0.0,0.0,0.0,0.0,0.0,0.0,0.0,0.0,0.0,0.0,0.0,0.0,0.0,0.0,0.0,0.0,0.0,0.0,0.0,0.0,0.0,0.0,0.0,0.0,0.0,0.0,0.0,0.0,0.0,0.0,0.0,0.0,0.0,0.0,0.0,0.0,0.0,0.0,0.0,0.0,0.0,0.0,0.0,0.0,0.0,0.0,0.0,0.0,0.0,0.0,0.0,0.0,-2.3078,-2.2944,-2.2944,-2.3078,-2.2944,-2.2944,-2.3078,-2.3258,-2.3975,0.0,0.0,0.0,0.0,0.0,0.0,0.0,0.0,0.0,0.0,0.0,0.0,0.0,0.0,0.0,0.0,0.0,0.0,0.0,0.0,0.0,0.0,0.0,0.0,0.0,0.0,0.0,0.0,0.0,0.0,0.0,0.0,0.0,0.0,0.0,0.0,0.0,0.0,0.0,0.0,0.0,-3.119,-3.119,-3.1112,0.0,0.0,0.0,0.0,-3.0838,-3.0838,0.0,0.0,0.0,0.0,0.0,0.0,0.0,0.0,0.0,0.0,0.0,0.0,0.0,0.0,0.0,0.0,0.0,0.0,0.0,0.0,0.0,0.0,0.0,0.0,0.0,0.0,0.0,0.0,0.0,0.0,0.0,0.0,0.0,0.0,0.0,0.0,0.0,0.0,0.0,0.0,0.0,0.0,0.0,0.0,0.0,0.0,0.0,0.0,0.0,0.0,0.0,0.0,0.0,0.0,0.0,0.0,-2.3078,-2.2384,-2.2384,-2.3005,-2.2384,-2.2384,-2.3078,-2.378,-2.458,0.0,0.0,0.0,0.0,0.0,0.0,0.0,0.0,0.0,0.0,0.0,0.0,0.0,0.0,0.0,0.0,0.0,0.0,0.0,0.0,0.0,0.0,0.0,0.0,0.0,0.0,0.0,0.0,0.0,0.0,0.0,0.0,0.0,0.0,0.0,0.0,0.0,0.0,0.0,0.0,0.0,-3.119,-3.119,-3.0757,-3.0393,0.0,0.0,-2.9629,-2.9585,-2.9629,0.0,0.0,0.0,0.0,0.0,0.0,0.0,0.0,0.0,0.0,0.0,0.0,0.0,0.0,0.0,0.0,0.0,0.0,0.0,0.0,0.0,0.0,0.0,0.0,0.0,0.0,0.0,0.0,0.0,0.0,0.0,0.0,0.0,0.0,0.0,0.0,0.0,0.0,0.0,0.0,0.0,0.0,0.0,0.0,0.0,0.0,0.0,0.0,0.0,0.0,0.0,0.0,0.0,0.0,0.0,-2.3125,-2.3065,-2.275,-2.275,-2.3078,-2.2763,-2.298,-2.3767,-2.4118,-2.4851,0.0,0.0,0.0,0.0,0.0,0.0,0.0,0.0,0.0,0.0,0.0,0.0,0.0,0.0,0.0,0.0,0.0,0.0,0.0,0.0,0.0,0.0,0.0,0.0,0.0,0.0,0.0,0.0,0.0,0.0,0.0,0.0,0.0,0.0,0.0,0.0,0.0,0.0,0.0,0.0,0.0,0.0,-3.0699,-3.0166,0.0,0.0,0.0,-2.9406,-2.9406,0.0,0.0,0.0,0.0,0.0,0.0,0.0,0.0,0.0,0.0,0.0,0.0,0.0,0.0,0.0,0.0,0.0,0.0,0.0,0.0,0.0,0.0,0.0,0.0,0.0,0.0,0.0,0.0,0.0,0.0,0.0,0.0,0.0,0.0,0.0,0.0,0.0,0.0,0.0,0.0,0.0,0.0,0.0,0.0,0.0,0.0,0.0,0.0,0.0,0.0,0.0,0.0,0.0,0.0,0.0,0.0,0.0,-2.3125,-2.3125,-2.3125,-2.3125,-2.3125,-2.3471,-2.4292,-2.4465,0.0,0.0,0.0,0.0,0.0,0.0,0.0,0.0,0.0,0.0,0.0,0.0,0.0,0.0,0.0,0.0,0.0,0.0,0.0,0.0,0.0,0.0,0.0,0.0,0.0,0.0,0.0,0.0,0.0,0.0,0.0,0.0,0.0,0.0,0.0,0.0,0.0,0.0,0.0,0.0,0.0,0.0,-3.0251,-3.0081,-2.954,-2.9196,0.0,0.0,-2.895,-2.895,-2.895,-2.9225,0.0,0.0,0.0,0.0,0.0,0.0,0.0,0.0,0.0,0.0,0.0,0.0,0.0,0.0,0.0,0.0,0.0,0.0,0.0,0.0,0.0,0.0,0.0,0.0,0.0,0.0,0.0,0.0,0.0,0.0,0.0,0.0,0.0,0.0,0.0,0.0,0.0,0.0,0.0,0.0,0.0,0.0,0.0,0.0,0.0,0.0,0.0,0.0,0.0,0.0,0.0,0.0,0.0,0.0,0.0,-2.3125,-2.3125,-2.3125,-2.3125,-2.3125,-2.3484,-2.4292,-2.4964,-2.5687,0.0,0.0,0.0,0.0,0.0,0.0,0.0,0.0,0.0,0.0,0.0,0.0,0.0,0.0,0.0,0.0,0.0,0.0,0.0,0.0,0.0,0.0,0.0,0.0,0.0,0.0,0.0,0.0,0.0,0.0,0.0,0.0,0.0,0.0,0.0,0.0,0.0,0.0,0.0,0.0,0.0,-3.0123,-2.954,-2.895,-2.8559,0.0,0.0,-2.7695,-2.771,-2.771,-2.8125,-2.9271,0.0,0.0,0.0,0.0,0.0,0.0,0.0,0.0,0.0,0.0,0.0,0.0,0.0,0.0,0.0,0.0,0.0,0.0,0.0,0.0,0.0,0.0,0.0,0.0,0.0,0.0,0.0,0.0,0.0,0.0,0.0,0.0,0.0,0.0,0.0,0.0,0.0,0.0,0.0,0.0,0.0,0.0,0.0,0.0,0.0,0.0,0.0,0.0,0.0,0.0,0.0,0.0,0.0,-2.3125,-2.3125,-2.3125,-2.3125,-2.3125,-2.3125,-2.3708,-2.4951,-2.5231,-2.5946,0.0,0.0,0.0,0.0,0.0,0.0,0.0,0.0,0.0,0.0,0.0,0.0,0.0,0.0,0.0,0.0,0.0,0.0,0.0,0.0,0.0,0.0,0.0,0.0,0.0,0.0,0.0,0.0,-3.1432,-3.1351,-3.123,0.0,0.0,0.0,0.0,0.0,0.0,0.0,0.0,0.0,0.0,-2.9088,-2.8873,-2.8319,0.0,0.0,-2.776,-2.756,-2.756,-2.756,-2.7894,-2.8685,-2.918,0.0,0.0,0.0,0.0,0.0,0.0,0.0,0.0,0.0,0.0,0.0,0.0,0.0,0.0,0.0,0.0,0.0,0.0,0.0,0.0,0.0,0.0,0.0,0.0,0.0,0.0,0.0,0.0,0.0,0.0,0.0,0.0,0.0,0.0,0.0,0.0,0.0,0.0,0.0,0.0,0.0,0.0,0.0,0.0,0.0,0.0,0.0,0.0,0.0,0.0,0.0,0.0,-2.3125,-2.3125,-2.3125,-2.3125,-2.3125,-2.3305,-2.4047,-2.5342,-2.5618,-2.6322,0.0,0.0,0.0,0.0,0.0,0.0,0.0,0.0,0.0,0.0,0.0,0.0,0.0,0.0,0.0,0.0,0.0,0.0,0.0,0.0,0.0,0.0,0.0,0.0,0.0,0.0,0.0,0.0,-3.119,-3.114,-3.0926,0.0,0.0,0.0,0.0,0.0,0.0,0.0,0.0,0.0,0.0,-2.8415,-2.8286,-2.786,-2.756,-2.756,-2.756,-2.756,-2.756,-2.776,-2.8091,-2.8685,0.0,0.0,0.0,0.0,0.0,0.0,0.0,0.0,0.0,0.0,0.0,0.0,0.0,0.0,0.0,0.0,0.0,0.0,0.0,0.0,0.0,0.0,0.0,0.0,0.0,0.0,0.0,0.0,0.0,0.0,-2.756,0.0,0.0,0.0,0.0,0.0,0.0,0.0,0.0,0.0,0.0,0.0,0.0,0.0,0.0,0.0,0.0,0.0,0.0,0.0,0.0,0.0,0.0,0.0,-2.3125,-2.3125,-2.3125,-2.3138,-2.3884,-2.461,-2.5398,-2.6122,-2.6826,-2.756,0.0,0.0,0.0,0.0,0.0,0.0,0.0,0.0,0.0,0.0,0.0,0.0,0.0,0.0,0.0,0.0,0.0,0.0,0.0,0.0,0.0,0.0,0.0,0.0,0.0,0.0,-3.1151,-3.119,-3.0943,0.0,0.0,0.0,0.0,0.0,0.0,0.0,0.0,0.0,0.0,-2.8511,-2.8271,-2.7725,-2.7625,-2.756,-2.756,-2.756,-2.756,-2.756,-2.8091,-2.8685,0.0,0.0,0.0,0.0,0.0,0.0,0.0,0.0,0.0,0.0,0.0,0.0,0.0,0.0,0.0,0.0,0.0,0.0,0.0,0.0,0.0,0.0,0.0,0.0,0.0,0.0,0.0,-2.693,-2.7575,0.0,0.0,0.0,0.0,0.0,0.0,0.0,0.0,0.0,0.0,0.0,-2.756,-2.756,0.0,0.0,0.0,0.0,0.0,0.0,0.0,0.0,0.0,0.0,0.0,0.0,-2.3125,-2.3125,-2.3125,-2.3365,-2.3884,-2.4176,-2.4894,-2.6068,-2.6336,-2.6826,-2.756,0.0,0.0,0.0,0.0,0.0,0.0,0.0,0.0,0.0,0.0,0.0,0.0,0.0,0.0,0.0,0.0,0.0,0.0,0.0,0.0,0.0,0.0,0.0,0.0,0.0,-3.1072,0.0,0.0,0.0,0.0,0.0,0.0,0.0,0.0,0.0,0.0,0.0,-2.8606,-2.7993,-2.791,-2.786,-2.7625,-2.756,-2.756,0.0,0.0,0.0,0.0,0.0,0.0,0.0,0.0,0.0,0.0,0.0,0.0,0.0,0.0,-3.119,-3.119,-3.119,-3.119,-3.119,0.0,0.0,0.0,0.0,0.0,0.0,0.0,0.0,0.0,0.0,0.0,0.0,0.0,0.0,0.0,0.0,-2.756,0.0,0.0,0.0,0.0,0.0,0.0,0.0,0.0,-2.756,-2.756,-2.756,-2.756,-2.756,0.0,-2.756,-2.756,0.0,0.0,0.0,0.0,0.0,0.0,0.0,0.0,-2.3542,-2.3542,-2.3535,-2.3865,-2.4687,-2.4948,-2.5508,-2.6457,-2.6774,-2.71,-2.7575,-2.781,-2.7993,0.0,0.0,0.0,0.0,0.0,0.0,0.0,0.0,0.0,0.0,0.0,0.0,0.0,0.0,0.0,0.0,0.0,0.0,0.0,0.0,0.0,0.0,0.0,-3.074,0.0,0.0,0.0,0.0,0.0,0.0,0.0,0.0,0.0,-2.8189,-2.8174,-2.8042,-2.7675,-2.756,-2.756,-2.756,0.0,0.0,0.0,0.0,0.0,0.0,0.0,-2.8448,-2.9042,-2.9629,-3.0166,-3.0559,-3.0935,-3.119,-3.119,0.0,0.0,-3.119,-3.119,-3.119,-3.119,-3.119,-3.119,-3.119,-3.119,-3.119,0.0,0.0,0.0,0.0,0.0,0.0,0.0,0.0,-2.5342,-2.6215,0.0,-2.7524,0.0,0.0,0.0,0.0,0.0,-2.756,0.0,0.0,-2.756,-2.756,-2.756,-2.756,-2.756,-2.756,-2.756,-2.756,-2.756,-2.756,0.0,0.0,0.0,0.0,0.0,0.0,-2.4356,-2.4331,-2.436,-2.4673,-2.5447,-2.6127,-2.651,-2.6563,-2.7203,-2.756,-2.7625,-2.8189,-2.8779,-2.9316,-2.9935,0.0,0.0,0.0,0.0,0.0,0.0,0.0,0.0,0.0,0.0,0.0,0.0,0.0,0.0,0.0,0.0,0.0,0.0,0.0,0.0,-3.0658,0.0,0.0,0.0,0.0,0.0,0.0,0.0,0.0,0.0,0.0,-2.7675,-2.7625,-2.756,-2.756,0.0,0.0,0.0,0.0,-2.7625,-2.761,-2.761,-2.786,-2.8415,-2.9012,-2.9585,-3.0166,0.0,0.0,-3.119,-3.119,-3.119,-3.119,-3.119,-3.119,-3.119,-3.119,-3.119,-3.119,-3.119,-3.119,-3.119,-3.119,-3.119,-2.3125,0.0,0.0,0.0,0.0,-2.3125,-2.3708,-2.4624,-2.461,-2.5453,-2.6826,-2.6811,0.0,0.0,0.0,0.0,0.0,0.0,-2.756,-2.756,-2.756,-2.756,-2.756,-2.756,-2.756,-2.756,-2.756,-2.756,-2.756,-2.756,-2.7524,-2.7255,0.0,0.0,0.0,0.0,-2.5083,-2.5056,-2.51,-2.5467,-2.6172,-2.6408,-2.6774,-2.7255,-2.7458,-2.756,-2.7625,-2.8189,-2.8559,-2.8795,-2.9761,0.0,0.0,0.0,0.0,0.0,0.0,0.0,0.0,0.0,0.0,0.0,0.0,0.0,0.0,0.0,0.0,0.0,0.0,0.0,-3.0601,-3.0393,-3.0123,0.0,0.0,0.0,0.0,0.0,0.0,0.0,0.0,0.0,-2.8238,-2.786,-2.756,0.0,0.0,-2.756,-2.756,-2.756,-2.7775,-2.8189,0.0,0.0,0.0,-2.9271,-2.9629,-3.0208,-3.0781,-3.119,-3.119,-3.119,-3.119,-3.119,-3.119,-3.119,-3.119,-3.119,-3.119,-3.119,-3.119,-3.119,-3.119,-3.119,-3.119,-2.3125,-2.3125,-2.3125,-2.3125,-2.3125,-2.3125,-2.3543,-2.4279,-2.4279,-2.4951,-2.6054,-2.6068,-2.6283,-2.6759,-2.7019,0.0,0.0,0.0,-2.756,-2.756,-2.756,-2.756,-2.756,-2.756,-2.756,-2.756,-2.756,-2.756,-2.756,-2.756,-2.756,-2.7575,0.0,0.0,-2.651,-2.6054,-2.5868,-2.5855,-2.5813,-2.619,-2.6913,-2.6907,-2.7152,-2.756,-2.781,-2.7944,-2.7944,-2.8779,-2.9225,-2.9225,-3.0107,-3.0658,0.0,0.0,0.0,0.0,0.0,0.0,0.0,0.0,0.0,0.0,0.0,-3.119,0.0,0.0,0.0,0.0,-3.119,-3.1055,-3.0699,-3.0435,0.0,0.0,0.0,0.0,0.0,0.0,0.0,-2.8856,-2.8858,-2.8842,-2.8842,-2.8334,-2.7944,-2.7944,-2.7944,-2.7959,-2.7959,0.0,-2.8448,-2.881,-2.8873,-2.9058,-2.9673,-2.9761,-2.9995,-3.0576,-3.0918,-3.119,-3.119,-3.119,-3.119,-3.119,-3.119,-3.119,-3.119,-3.1312,-3.1372,-3.123,-3.119,-3.119,-3.119,-3.119,-3.119,-2.3125,-2.3125,-2.3125,-2.3125,-2.3125,-2.3125,-2.3531,-2.4176,-2.4176,-2.4624,-2.5287,-2.5398,-2.5453,-2.5618,-2.6283,0.0,-2.756,-2.756,-2.756,-2.756,-2.756,-2.756,-2.756,-2.756,-2.756,-2.756,-2.756,-2.756,-2.756,-2.756,-2.756,-2.756,-2.756,-2.7255,-2.6587,-2.6564,-2.657,-2.6619,-2.6576,-2.6945,-2.7575,-2.756,-2.7625,-2.766,-2.8238,-2.8511,-2.8606,-2.9673,-3.0293,-3.0335,-3.0878,-3.119,-3.119,0.0,0.0,0.0,0.0,0.0,0.0,0.0,0.0,0.0,0.0,0.0,0.0,0.0,0.0,0.0,-3.1128,0.0,-3.1151,-3.0617,0.0,0.0,0.0,-2.9466,-2.9521,-2.9517,-2.9464,-2.948,0.0,0.0,-2.9467,0.0,-2.8606,-2.8654,-2.8543,-2.8527,-2.8559,-2.8996,-2.9422,-2.9451,-2.9451,-2.9673,-3.0251,-3.0393,-3.0518,-3.1055,-3.119,-3.119,-3.119,-3.1252,-3.1252,-3.1291,-3.1291,-3.1329,-3.1274,-3.164,-3.1733,-3.1389,-3.1312,-3.1312,-3.1351,-3.1351,-3.1389,-2.3125,-2.3125,-2.3125,-2.3125,-2.3125,-2.3125,-2.3185,-2.3365,-2.3424,-2.3826,-2.458,-2.5175,-2.5986,-2.7086,-2.7255,-2.7408,-2.756,-2.756,-2.756,-2.756,-2.756,-2.756,-2.756,-2.756,-2.756,-2.756,-2.756,-2.756,-2.756,-2.756,-2.756,-2.756,-2.756,-2.7524,-2.7357,-2.7369,-2.7348,-2.7336,-2.7365,-2.7408,-2.756,-2.756,-2.781,-2.8286,-2.8415,-2.8732,-2.918,-2.9908,-3.0293,-3.0293,-3.0895,-3.119,-3.119,-3.119,0.0,0.0,0.0,0.0,0.0,0.0,0.0,0.0,0.0,-3.119,-3.119,0.0,-3.1012,0.0,-3.0533,-3.0518,-3.0502,-3.0377,0.0,0.0,-2.9761,-2.9798,-3.0658,-3.0385,-3.0091,-3.0078,-3.0109,-3.0112,-3.0074,-2.9524,-2.9361,-2.9805,-2.9088,-2.8654,-2.9104,-2.9316,-2.9585,-2.9978,-3.0081,-3.0293,-3.0838,-3.0958,-3.1015,-3.119,-3.119,-3.119,-3.119,-3.1449,-3.166,-3.1714,-3.1968,-3.2162,-3.2144,-3.2282,-3.2316,-3.2213,-3.2196,-3.2196,-3.2179,-3.2196,-3.2196,-2.3125,-2.3125,-2.3125,-2.3125,-2.3125,-2.3125,-2.3125,-2.3125,-2.3125,-2.3531,-2.4337,-2.5077,-2.6054,-2.71,-2.71,-2.7306,-2.756,-2.756,-2.756,-2.756,-2.756,-2.756,-2.756,-2.756,-2.756,-2.756,-2.756,-2.756,-2.756,-2.756,-2.756,-2.756,-2.756,-2.756,-2.756,-2.756,-2.756,-2.756,-2.756,-2.756,-2.7625,-2.786,-2.8155,-2.8463,-2.8996,-2.9451,-2.9805,-3.0393,-3.0699,-3.0699,-3.1015,-3.119,-3.119,-3.119,-3.119,0.0,0.0,0.0,0.0,0.0,0.0,0.0,0.0,0.0,0.0,0.0,-3.0576,0.0,-3.0125,0.0,-3.0293,-3.0535,-3.0699,-3.0699,-3.0393,-3.0477,-3.1151,-3.0888,-3.0699,-3.0695,-3.0701,-3.0706,-3.0666,-3.0166,-3.0038,-3.0617,-2.9892,-2.9406,-2.9761,-3.0038,-3.0351,-3.0675,-3.0699,-3.0781,-3.1151,-3.119,-3.119,-3.123,-3.1334,-3.1487,-3.147,-3.1842,-3.2092,-3.2127,-3.2332,-3.2517,-3.2517,-3.2681,-3.2809,-3.2858,-3.2983,-3.2934,-3.2583,-3.2517,-3.2517,-2.3125,-2.3125,-2.3125,-2.3125,-2.3125,-2.3125,-2.3125,-2.3125,-2.3198,-2.3767,-2.4624,-2.5287,-2.596,-2.6616,-2.6669,-2.6982,-2.756,-2.756,-2.756,-2.756,-2.756,-2.756,-2.756,-2.756,-2.756,-2.756,-2.756,-2.756,-2.756,-2.756,-2.756,-2.756,-2.756,-2.756,-2.761,-2.7665,-2.7665,-2.761,-2.761,-2.7614,-2.7575,-2.8148,-2.8513,-2.8607,-2.9713,-3.0351,-3.0435,-3.0918,-3.119,-3.119,-3.119,-3.119,-3.119,-3.119,-3.119,0.0,-3.119,0.0,0.0,0.0,0.0,0.0,0.0,0.0,0.0,-3.012,-2.9897,-2.9467,-2.9848,-3.0225,-3.0309,-3.0821,-3.119,-3.119,-3.119,-3.119,-3.119,-3.119,-3.119,-3.119,-3.119,-3.119,-3.1151,-3.074,-3.0658,-3.1015,-3.074,-3.0377,-3.0435,-3.0838,-3.1095,-3.119,-3.119,-3.1173,-3.1291,-3.1274,-3.1312,-3.1389,-3.1677,-3.1897,-3.1897,-3.2264,-3.2583,-3.2616,-3.2681,-3.2713,-3.2681,-3.3014,-3.3273,-3.3273,-3.3522,-3.3504,-3.2934,-3.2745,-3.2663,-2.3125,-2.3125,-2.3125,-2.3125,-2.3125,-2.3125,-2.3125,-2.3138,-2.3767,-2.4838,-2.6068,-2.6229,-2.6721,-2.7357,-2.7408,-2.7473,-2.756,-2.756,-2.756,-2.756,-2.756,-2.756,-2.756,-2.756,-2.756,-2.756,-2.756,-2.756,-2.756,-2.756,-2.756,-2.756,-2.756,-2.756,-2.7595,0.0,0.0,0.0,-2.7488,-2.7449,-2.7473,-2.8009,-2.8586,-2.9072,-2.9854,0.0,-3.0998,-3.1151,-3.119,-3.119,-3.119,0.0,0.0,0.0,0.0,0.0,0.0,0.0,0.0,0.0,0.0,0.0,-3.0576,-3.0104,-2.9626,-2.9127,-2.9013,-2.9348,-2.9496,-2.9761,-3.0251,-3.0838,-3.119,-3.119,-3.119,-3.119,-3.119,-3.119,-3.119,-3.119,-3.119,-3.119,-3.119,-3.1112,-3.1055,-3.119,-3.1095,-3.0998,-3.1055,-3.1134,-3.119,-3.119,-3.1252,-3.1351,-3.164,-3.1696,-3.1806,-3.2144,-3.2282,-3.2384,-3.24,-3.2777,-3.3075,-3.3105,-3.3332,-3.3532,-3.3532,-3.3634,-3.368,-3.3707,-3.3762,-3.3734,-3.3578,-3.355,-3.355,-2.3125,0.0,-2.3125,-2.3125,0.0,-2.3125,-2.3125,-2.3125,-2.3943,-2.5119,-2.6496,-2.6878,-2.7255,-2.756,-2.756,-2.756,-2.756,-2.756,-2.756,-2.756,-2.756,-2.756,-2.756,-2.756,-2.756,-2.756,-2.756,-2.756,-2.756,-2.756,-2.756,-2.764,-2.7891,-2.8041,-2.8091,-2.8607,-2.8791,-2.848,-2.8439,-2.8399,-2.8415,-2.8966,-2.9424,-2.9749,0.0,0.0,0.0,0.0,0.0,0.0,0.0,0.0,0.0,0.0,0.0,-3.119,-3.119,-3.119,-3.119,-3.0918,-3.0757,-3.0757,-3.0208,-2.9729,-2.9433,-2.8842,-2.8488,-2.8527,-2.9042,-2.954,-2.9848,-3.0658,-3.119,-3.119,-3.119,-3.119,-3.119,-3.119,-3.119,-3.119,-3.119,-3.119,-3.119,-3.119,-3.1291,-3.1449,-3.1312,-3.1351,-3.1694,-3.1449,-3.1269,-3.147,-3.1714,-3.1914,-3.2109,-3.2127,-3.2196,-3.2451,-3.2681,-3.2867,-3.3046,-3.3413,-3.375,-3.3887,-3.3975,-3.4037,-3.4184,-3.403,-3.3876,-3.4136,-3.4111,-3.4068,-3.4184,-3.4093,-3.3993,-2.3125,-2.3125,-2.3125,-2.3125,-2.3125,-2.3125,-2.3185,-2.3378,0.0,0.0,0.0,-2.7291,-2.756,-2.756,-2.756,-2.756,-2.756,-2.756,-2.756,-2.756,-2.756,-2.756,-2.756,-2.756,-2.756,-2.756,-2.756,-2.756,-2.761,-2.771,-2.776,-2.779,-2.8343,-2.8724,-2.8856,-2.9319,-2.9621,-2.9717,-2.9484,-2.9359,-2.9392,-2.9927,-3.0253,-3.0278,-3.0868,-3.119,-3.119,-3.119,-3.119,-3.119,-3.119,-3.119,-3.119,-3.119,-3.119,-3.119,-3.119,-3.119,-3.119,-3.119,-3.0975,-3.0477,-2.9978,-2.9629,-2.9406,-2.8934,-2.8461,-2.7974,-2.8904,-2.9585,-2.9585,-3.0535,-3.119,-3.119,-3.119,-3.119,-3.119,-3.119,-3.119,-3.119,-3.119,-3.123,-3.1312,-3.1312,-3.1449,-3.177,-3.1677,-3.1674,-3.2213,-3.1932,-3.162,-3.1897,-3.2179,-3.2517,-3.2677,-3.2692,-3.2723,-3.2985,-3.3288,-3.3543,-3.3781,-3.4067,-3.4379,-3.4572,-3.4464,-3.4423,-3.4612,-3.4325,-3.4136,-3.4612,-3.4486,-3.4379,-3.4612,-3.4529,-3.4379,-2.3125,-2.3125,-2.3125,-2.3125,-2.3125,-2.3125,-2.3471,-2.4176,-2.4951,-2.5742,-2.6578,-2.7255,-2.756,-2.756,-2.756,-2.756,-2.756,-2.756,-2.756,0.0,-2.756,-2.756,-2.756,-2.756,-2.756,-2.756,-2.756,-2.756,-2.7675,-2.8076,-2.8367,-2.8446,-2.895,-2.9547,-3.0005,-3.0114,-3.044,-3.0918,-2.9819,-2.923,-2.9214,-2.9822,-3.0145,-3.0162,-3.0813,-3.119,-3.119,-3.1173,-3.119,-3.119,-3.119,-3.119,-3.119,-3.119,-3.119,-3.119,-3.119,-3.119,-3.119,-3.119,-3.1151,-3.1072,-3.1015,-3.0518,-2.9496,-2.9319,-2.9243,-2.918,-2.9761,-3.0166,-3.0208,-3.0781,-3.119,-3.119,-3.119,-3.119,-3.119,-3.119,-3.1213,-3.1235,-3.119,-3.1372,-3.166,-3.1733,-3.1897,-3.2264,-3.2382,-3.24,-3.25,-3.2435,-3.2368,-3.2384,-3.2451,-3.2755,-3.3302,-3.347,-3.3658,-3.4319,-3.436,-3.4383,-3.447,-3.4572,-3.4674,-3.4714,-3.4655,-3.4674,-3.4714,-3.4653,-3.4612,-3.4753,-3.4713,-3.4653,-3.4753,-3.487,-3.4889,-2.3125,-2.3125,-2.3125,-2.3125,-2.3125,-2.3125,-2.3543,-2.4337,-2.5063,-2.5783,-2.6563,-2.7291,-2.756,-2.756,-2.756,-2.756,-2.756,-2.756,-2.756,-2.756,-2.756,-2.756,-2.756,-2.756,-2.756,-2.756,-2.756,-2.756,-2.761,-2.791,-2.8174,-2.8527,-2.9444,-3.0182,-3.0723,-3.0799,-3.094,-3.119,-3.0594,-3.009,-2.9711,-2.9977,-2.9922,-2.9516,-2.9837,-3.0192,-3.0598,-3.0615,-3.0784,-3.119,-3.119,-3.119,-3.119,-3.119,-3.119,-3.119,-3.119,-3.119,-3.119,-3.119,-3.119,-3.119,-3.119,-3.0975,-3.0435,-3.0095,-2.975,-2.9464,-2.9935,-3.0293,-3.0351,-3.0838,-3.119,-3.119,-3.119,-3.119,-3.119,-3.119,-3.13,-3.1455,-3.1512,-3.1689,-3.2109,-3.2179,-3.2366,-3.2809,-3.3141,-3.332,-3.3128,-3.346,-3.3524,-3.3216,-3.331,-3.3623,-3.4096,-3.419,-3.4342,-3.4674,-3.4694,-3.4773,-3.487,-3.4926,-3.4981,-3.5088,-3.5016,-3.4981,-3.5069,-3.4889,-3.487,-3.5126,-3.5058,-3.504,-3.5183,-3.5353,-3.535,-2.3125,-2.3125,-2.3125,-2.3125,-2.3138,-2.3305,-2.3708,-2.435,-2.5231,-2.5946,-2.6563,-2.7255,-2.756,-2.756,-2.756,-2.756,-2.756,-2.756,-2.756,-2.756,-2.756,-2.756,-2.756,-2.756,-2.756,-2.756,-2.756,-2.756,-2.7625,-2.771,-2.8174,-2.895,-2.9978,-3.0757,-3.119,-3.119,-3.119,-3.1173,-3.106,-3.0666,-3.0142,-2.9939,-2.9567,-2.9079,-2.9011,-2.9245,-2.982,-3.0023,-3.0362,-3.092,-3.1106,-3.119,-3.119,-3.119,-3.119,-3.119,-3.119,-3.119,-3.119,-3.119,-3.119,-3.119,-3.119,-3.119,-3.1173,-3.0769,-3.0332,-2.9929,-3.0251,-3.0518,-3.0576,-3.0918,-3.119,-3.119,-3.1291,-3.1363,-3.1314,-3.1399,-3.1614,-3.1914,-3.1983,-3.2115,-3.2506,-3.2648,-3.2854,-3.3393,-3.3906,-3.4061,-3.3957,-3.4364,-3.4427,-3.4172,-3.4162,-3.4383,-3.4734,-3.4774,-3.4813,-3.4851,-3.4889,-3.5018,-3.5176,-3.5209,-3.5277,-3.5456,-3.5377,-3.5331,-3.5456,-3.5245,-3.5162,-3.5465,-3.5422,-3.5398,-3.5586,-3.5688,-3.5695,-2.3125,-2.3125,-2.3125,-2.3125,-2.3185,-2.3826,-2.4176,-2.4509,-2.5783,-2.6457,-2.6616,-2.7306,-2.756,-2.756,-2.756,-2.756,-2.756,-2.756,-2.756,-2.756,-2.756,-2.756,-2.756,-2.756,-2.756,-2.7625,-2.7625,-2.766,-2.766,-2.8189,-2.8996,-3.0081,-3.0797,-3.1112,-3.119,-3.119,-3.119,-3.1173,-3.054,-3.0166,-3.0074,-2.9431,-2.9042,-2.9011,-2.8994,-2.9045,-2.9093,-2.9753,-3.0142,-3.0243,-3.0852,-3.119,-3.119,-3.119,-3.119,-3.119,-3.1213,-3.119,-3.119,-3.119,-3.123,-3.119,-3.1207,-3.1207,-3.119,-3.1157,-3.11,-3.0998,-3.1055,-3.1072,-3.1095,-3.1173,-3.1252,-3.1312,-3.1582,-3.1743,-3.1786,-3.2139,-3.2383,-3.2435,-3.2445,-3.2637,-3.3021,-3.3136,-3.3393,-3.3981,-3.42,-3.436,-3.451,-3.4636,-3.4851,-3.4851,-3.4813,-3.4793,-3.5018,-3.507,-3.5138,-3.532,-3.5417,-3.5456,-3.5475,-3.5523,-3.5603,-3.5605,-3.5649,-3.563,-3.5636,-3.5619,-3.558,-3.5636,-3.5673,-3.5667,-3.5698,-3.5785,-3.5824,-2.3125,-2.3125,-2.3125,-2.3125,-2.3185,-2.3484,-2.4105,-2.5021,-2.5563,-2.6322,-2.7137,-2.7473,-2.756,-2.756,-2.756,-2.756,-2.756,-2.756,-2.756,-2.756,-2.756,-2.756,-2.756,-2.756,-2.756,-2.761,-2.7944,-2.8125,-2.8319,-2.9088,-2.9805,-3.0309,-3.0918,-3.119,-3.119,-3.119,-3.119,-3.1157,-3.0051,-2.944,-2.9384,-2.8687,-2.8078,-2.7672,-2.7638,-2.7858,-2.8315,-2.9042,-2.9651,-3.0108,-3.0784,-3.119,-3.119,-3.1431,-3.1545,-3.1568,-3.1823,-3.1967,-3.2003,-3.195,-3.1842,-3.1565,-3.156,-3.1472,-3.1207,-3.119,-3.1291,-3.147,-3.1368,-3.1308,-3.1542,-3.1582,-3.164,-3.1914,-3.2109,-3.2197,-3.2231,-3.2388,-3.2579,-3.2853,-3.293,-3.3076,-3.346,-3.3688,-3.3981,-3.4423,-3.4595,-3.4774,-3.4926,-3.507,-3.5226,-3.5327,-3.5296,-3.5299,-3.5381,-3.5411,-3.5456,-3.5556,-3.5622,-3.5641,-3.5636,-3.5665,-3.5689,-3.5718,-3.5717,-3.5717,-3.5698,-3.5708,-3.5698,-3.5766,-3.5859,-3.5873,-3.5849,-3.5873,-3.5835,-2.3125,-2.3125,-2.3125,-2.3125,-2.3138,-2.3346,-2.4184,-2.5356,-2.5618,-2.6428,-2.7509,-2.756,-2.756,-2.756,-2.756,-2.756,-2.756,-2.756,-2.756,-2.756,-2.756,-2.756,-2.7625,-2.781,-2.786,-2.7944,-2.8463,-2.8732,-2.8857,-2.9761,-3.0293,-3.0393,-3.0878,-3.119,-3.119,-3.119,-3.119,-3.1055,-2.978,-2.8999,-2.8892,-2.801,-2.7249,-2.6742,-2.6708,-2.6962,-2.7503,-2.8467,-2.9228,-2.977,-3.0683,-3.1252,-3.1372,-3.1655,-3.1844,-3.2004,-3.2316,-3.2517,-3.2517,-3.2517,-3.235,-3.2021,-3.1998,-3.1871,-3.1627,-3.1562,-3.1677,-3.1897,-3.1696,-3.1731,-3.1985,-3.2021,-3.2161,-3.2451,-3.2583,-3.2684,-3.271,-3.277,-3.3069,-3.3397,-3.3494,-3.3617,-3.3969,-3.4213,-3.4445,-3.4754,-3.4963,-3.5157,-3.5226,-3.5407,-3.5551,-3.5617,-3.5612,-3.5618,-3.5643,-3.5591,-3.5642,-3.5685,-3.5709,-3.5693,-3.574,-3.5755,-3.5788,-3.5827,-3.581,-3.5778,-3.578,-3.578,-3.5737,-3.5821,-3.5879,-3.5896,-3.5826,-3.5832,-3.5801,-2.3125,-2.3125,-2.3125,-2.3125,-2.315,-2.3923,-2.4699,-2.5508,-2.6122,-2.6878,-2.756,-2.756,-2.756,-2.756,-2.756,-2.756,-2.756,-2.756,-2.756,-2.756,-2.756,-2.7625,-2.7625,-2.8189,-2.8463,-2.8527,-2.9088,-2.9361,-2.9451,-2.9995,-3.0293,-3.0351,-3.0918,-3.119,-3.119,-3.119,-3.119,-3.1038,-2.9807,-2.9045,-2.8876,-2.7571,-2.6877,-2.6843,-2.6708,-2.6742,-2.6962,-2.8213,-2.9062,-2.9059,-3.0484,-3.1406,-3.1735,-3.1811,-3.2029,-3.2413,-3.2517,-3.255,-3.255,-3.2583,-3.2517,-3.2488,-3.2472,-3.2458,-3.2335,-3.2332,-3.2348,-3.2484,-3.2435,-3.2417,-3.2517,-3.2517,-3.2517,-3.2616,-3.2952,-3.3145,-3.3161,-3.3454,-3.3832,-3.4046,-3.4116,-3.4229,-3.4595,-3.4693,-3.4793,-3.4999,-3.5105,-3.5209,-3.5475,-3.557,-3.563,-3.5689,-3.5704,-3.5696,-3.5707,-3.5724,-3.5717,-3.5748,-3.5772,-3.576,-3.5825,-3.5888,-3.5923,-3.5947,-3.5912,-3.5888,-3.5883,-3.5855,-3.5793,-3.5795,-3.5758,-3.5743,-3.5727,-3.5724,-3.5688,-2.3125,-2.3125,-2.3125,-2.3365,-2.3884,-2.4171,-2.4991,-2.6054,-2.639,-2.693,-2.7509,-2.756,-2.756,-2.756,-2.756,-2.756,-2.756,-2.756,-2.756,-2.756,-2.756,-2.781,-2.8189,-2.8431,-2.8732,-2.9134,-2.9673,-3.0166,-3.0559,-3.0797,-3.0878,-3.0878,-3.1095,-3.119,-3.119,-3.119,-3.119,-3.1089,-3.0176,-2.9702,-2.96,-2.8687,-2.8198,-2.8095,-2.7182,-2.6928,-2.7418,-2.8433,-2.936,-3.0039,-3.1069,-3.1806,-3.2213,-3.2556,-3.2883,-3.3266,-3.3343,-3.3314,-3.3314,-3.3332,-3.3225,-3.2983,-3.2952,-3.282,-3.2565,-3.2506,-3.263,-3.2867,-3.2952,-3.3027,-3.3225,-3.3087,-3.3045,-3.3314,-3.3494,-3.3605,-3.3647,-3.3881,-3.4116,-3.4226,-3.4384,-3.4621,-3.4869,-3.4963,-3.507,-3.5289,-3.5392,-3.5475,-3.5559,-3.5631,-3.5706,-3.5798,-3.5823,-3.5832,-3.5888,-3.5856,-3.5853,-3.589,-3.5918,-3.5899,-3.5934,-3.5878,-3.5904,-3.5885,-3.5889,-3.5803,-3.5739,-3.5695,-3.5693,-3.5624,-3.5604,-3.5527,-3.5643,-3.5526,-3.5537,-2.3125,-2.3125,-2.3125,-2.3424,-2.3949,-2.4198,-2.4983,-2.6133,-2.639,-2.693,-2.7509,-2.756,-2.756,-2.756,-2.756,-2.756,-2.756,-2.756,-2.756,-2.756,-2.756,-2.7795,-2.8222,-2.8591,-2.9012,-2.9496,-3.0208,-3.0838,-3.1151,-3.119,-3.119,-3.119,-3.119,-3.119,-3.119,-3.119,-3.119,-3.1055,-3.048,-3.0091,-3.0006,-2.9364,-2.9066,-2.9056,-2.8152,-2.7845,-2.8391,-2.9124,-2.9971,-3.0855,-3.1616,-3.2231,-3.2684,-3.3141,-3.3522,-3.378,-3.3807,-3.3807,-3.3807,-3.3807,-3.368,-3.3437,-3.3396,-3.3257,-3.296,-3.2943,-3.3081,-3.3306,-3.339,-3.355,-3.376,-3.3661,-3.3634,-3.3884,-3.391,-3.3954,-3.4072,-3.4252,-3.4401,-3.4542,-3.4793,-3.5032,-3.519,-3.5261,-3.5343,-3.5512,-3.5584,-3.5622,-3.5682,-3.5728,-3.5799,-3.5902,-3.5937,-3.5947,-3.5951,-3.5912,-3.5904,-3.5935,-3.5923,-3.5942,-3.5927,-3.5873,-3.5835,-3.583,-3.5758,-3.5648,-3.5588,-3.5541,-3.547,-3.5419,-3.5296,-3.5181,-3.5239,-3.5258,-3.5245,-2.3125,-2.3125,-2.3125,-2.3185,-2.3416,-2.4015,-2.4738,-2.559,-2.6229,-2.693,-2.7509,-2.756,-2.758,-2.7565,-2.758,-2.761,-2.7485,-2.758,-2.756,-2.756,-2.756,-2.766,-2.791,-2.8857,-2.9406,-2.9629,-3.0601,-3.1151,-3.119,-3.119,-3.119,-3.119,-3.119,-3.119,-3.119,-3.119,-3.119,-3.1072,-3.0548,-3.0192,-3.0023,-2.959,-2.9486,-2.9746,-2.9641,-2.9657,-2.9709,-3.0317,-3.0903,-3.1458,-3.213,-3.2711,-3.3148,-3.3542,-3.3807,-3.3807,-3.3807,-3.3807,-3.3807,-3.3807,-3.3807,-3.3753,-3.377,-3.3725,-3.3643,-3.3643,-3.3698,-3.3752,-3.3797,-3.3884,-3.4128,-3.4176,-3.4176,-3.42,-3.4218,-3.4321,-3.4549,-3.4668,-3.4811,-3.5021,-3.5283,-3.5474,-3.5493,-3.5518,-3.5551,-3.5599,-3.5669,-3.5738,-3.5836,-3.5859,-3.5918,-3.5973,-3.5981,-3.5973,-3.5955,-3.5957,-3.5938,-3.5951,-3.59,-3.5873,-3.5853,-3.5784,-3.5739,-3.5721,-3.56,-3.5483,-3.522,-3.516,-3.507,-3.5001,-3.4889,-3.4851,-3.4908,-3.4945,-3.487,-2.3125,-2.3125,-2.3125,-2.3424,-2.3884,-2.4173,-2.5022,-2.6108,-2.6404,-2.693,-2.7509,-2.756,-2.7335,-2.7081,-2.7335,-2.737,-2.6961,-2.7335,-2.756,-2.761,-2.761,-2.8076,-2.8764,-2.9225,-2.9848,-3.0576,-3.1015,-3.119,-3.119,-3.119,-3.119,-3.119,-3.119,-3.119,-3.119,-3.119,-3.119,-3.1173,-3.0987,-3.0989,-3.1222,-3.1038,-3.1132,-3.1528,-3.1595,-3.1709,-3.2045,-3.1508,-3.1679,-3.257,-3.2852,-3.3167,-3.3552,-3.3733,-3.3807,-3.3807,-3.3807,-3.3807,-3.3807,-3.3807,-3.3807,-3.3807,-3.3807,-3.3807,-3.3807,-3.3807,-3.3876,-3.4018,-3.4093,-3.4213,-3.4464,-3.4569,-3.4551,-3.4551,-3.4569,-3.4569,-3.4728,-3.4881,-3.5077,-3.533,-3.5488,-3.5565,-3.5584,-3.5622,-3.5682,-3.5678,-3.5774,-3.5868,-3.5894,-3.5935,-3.5966,-3.6013,-3.5976,-3.5926,-3.5896,-3.5834,-3.5815,-3.5806,-3.5805,-3.5784,-3.5753,-3.5701,-3.5644,-3.5566,-3.546,-3.525,-3.4983,-3.4792,-3.4714,-3.4694,-3.4674,-3.4674,-3.4694,-3.4632,-3.4548,-2.3125,-2.3125,-2.3125,-2.3543,-2.4319,-2.4588,-2.5394,-2.6472,-2.6826,-2.7203,-2.7575,-2.756,-2.735,-2.7051,-2.7156,-2.7175,-2.7025,-2.7384,-2.7713,-2.7913,-2.7932,-2.8481,-2.9345,-2.9629,-3.0208,-3.1015,-3.119,-3.119,-3.119,-3.119,-3.119,-3.119,-3.119,-3.119,-3.119,-3.119,-3.1269,-3.1389,-3.1393,-3.164,-3.1968,-3.2057,-3.2282,-3.2681,-3.2745,-3.3014,-3.3343,-3.2661,-3.2642,-3.3277,-3.34,-3.3549,-3.378,-3.3807,-3.3807,-3.3807,-3.3807,-3.3807,-3.3807,-3.3807,-3.3807,-3.3807,-3.3807,-3.3807,-3.3834,-3.385,-3.4043,-3.4171,-3.4334,-3.451,-3.4774,-3.4832,-3.4889,-3.4999,-3.4908,-3.4908,-3.5,-3.5157,-3.5327,-3.5518,-3.5603,-3.5637,-3.5647,-3.5714,-3.5772,-3.5804,-3.5881,-3.5937,-3.5947,-3.5974,-3.5996,-3.597,-3.5943,-3.5891,-3.5823,-3.5746,-3.5654,-3.5665,-3.5689,-3.5663,-3.5656,-3.5611,-3.5553,-3.5493,-3.5377,-3.5126,-3.487,-3.4612,-3.4464,-3.4464,-3.4398,-3.4325,-3.4232,-3.4279,-3.4208,-2.3125,-2.3125,-2.3125,-2.3543,-2.431,-2.4912,-2.5685,-2.6549,-2.7137,-2.7458,-2.7575,-2.756,-2.755,-2.7335,-2.6886,-2.6935,-2.7409,-2.7514,-2.7922,-2.8389,-2.8654,-2.9023,-2.9569,-3.0081,-3.0658,-3.1095,-3.119,-3.119,-3.119,-3.119,-3.119,-3.119,-3.1252,-3.1252,-3.1329,-3.1252,-3.1562,-3.1789,-3.1861,-3.2057,-3.2517,-3.2533,-3.2745,-3.3214,-3.3225,-3.339,-3.3662,-3.3616,-3.3661,-3.3807,-3.3744,-3.3762,-3.3807,-3.3807,-3.3807,-3.3807,-3.3807,-3.3807,-3.3807,-3.3807,-3.3807,-3.3807,-3.3807,-3.3834,-3.3895,-3.4043,-3.42,-3.4338,-3.4553,-3.4832,-3.507,-3.5122,-3.5223,-3.5398,-3.5239,-3.5242,-3.5465,-3.5518,-3.5566,-3.5605,-3.5682,-3.5726,-3.5706,-3.582,-3.5886,-3.592,-3.5958,-3.5979,-3.5973,-3.5965,-3.5953,-3.5918,-3.5863,-3.5797,-3.5713,-3.5669,-3.5591,-3.5591,-3.5586,-3.5579,-3.5532,-3.5484,-3.5354,-3.5308,-3.5174,-3.4926,-3.4655,-3.4353,-3.4141,-3.4087,-3.3979,-3.3834,-3.3842,-3.3954,-3.3961,-2.3125,-2.3125,-2.3125,-2.359,-2.4275,-2.4542,-2.5355,-2.6453,-2.6721,-2.7188,-2.7509,-2.756,-2.732,-2.6856,-2.6741,-2.6678,-2.6918,-2.7334,-2.8063,-2.8973,-2.9605,-2.987,-3.0149,-3.0658,-3.1015,-3.119,-3.119,-3.119,-3.119,-3.119,-3.119,-3.123,-3.1487,-3.164,-3.1677,-3.195,-3.2179,-3.2316,-3.2298,-3.2533,-3.2934,-3.3014,-3.3196,-3.3578,-3.3634,-3.368,-3.3807,-3.3807,-3.3807,-3.3807,-3.3807,-3.3807,-3.3807,-3.3807,-3.3807,-3.3807,-3.3807,-3.3807,-3.3807,-3.3807,-3.3807,-3.3807,-3.3834,-3.3858,-3.4093,-3.4171,-3.4405,-3.4735,-3.4981,-3.5105,-3.5339,-3.5383,-3.5446,-3.5479,-3.5417,-3.5436,-3.5532,-3.5597,-3.5631,-3.5683,-3.5766,-3.5836,-3.5852,-3.5891,-3.5957,-3.5976,-3.5972,-3.5974,-3.595,-3.5899,-3.5892,-3.5793,-3.5716,-3.5675,-3.5603,-3.5565,-3.552,-3.5501,-3.552,-3.5501,-3.5417,-3.5304,-3.5105,-3.4926,-3.4755,-3.451,-3.4237,-3.3954,-3.3834,-3.3807,-3.3807,-3.3807,-3.3807,-3.3842,-3.377,-2.3125,-2.3138,-2.3457,-2.4086,-2.4757,-2.5095,-2.5872,-2.6813,-2.6982,-2.7203,-2.7524,-2.756,-2.7365,-2.704,-2.6968,-2.6933,-2.6916,-2.751,-2.8285,-2.9239,-3.0186,-3.0625,-3.0781,-3.1055,-3.119,-3.119,-3.119,-3.119,-3.119,-3.119,-3.1291,-3.1483,-3.1665,-3.1891,-3.2092,-3.2327,-3.2606,-3.2759,-3.2809,-3.2996,-3.339,-3.3465,-3.355,-3.3762,-3.3807,-3.3807,-3.3807,-3.3807,-3.3807,-3.3807,-3.3807,-3.3807,-3.3807,-3.3807,-3.3807,-3.3807,-3.3807,-3.3807,-3.3807,-3.3807,-3.3807,-3.3815,-3.3876,-3.4043,-3.42,-3.4405,-3.4794,-3.5016,-3.519,-3.5354,-3.5446,-3.5526,-3.5545,-3.5565,-3.5565,-3.5603,-3.5584,-3.5661,-3.5737,-3.5802,-3.5884,-3.5937,-3.5937,-3.5971,-3.5996,-3.5996,-3.5957,-3.5951,-3.5917,-3.5868,-3.5797,-3.5678,-3.5637,-3.5592,-3.5551,-3.5512,-3.5432,-3.5432,-3.5254,-3.527,-3.5187,-3.5069,-3.4926,-3.4694,-3.4401,-3.4147,-3.3986,-3.3842,-3.3807,-3.3807,-3.3807,-3.3726,-3.3652,-3.355,-3.3522,-2.3125,-2.3163,-2.3876,-2.4628,-2.5412,-2.6087,-2.6701,-2.7464,-2.7509,-2.7575,-2.756,-2.756,-2.753,-2.7565,-2.7423,-2.7503,-2.7532,-2.7913,-2.8599,-2.9447,-3.0375,-3.0943,-3.1095,-3.1134,-3.119,-3.119,-3.119,-3.119,-3.123,-3.1213,-3.1449,-3.1748,-3.1895,-3.2175,-3.2535,-3.2675,-3.2877,-3.3178,-3.3273,-3.339,-3.368,-3.3734,-3.378,-3.378,-3.3807,-3.3807,-3.3807,-3.3807,-3.3807,-3.3807,-3.3807,-3.3807,-3.3807,-3.3807,-3.3807,-3.3807,-3.3807,-3.3807,-3.3834,-3.386,-3.3868,-3.3902,-3.4099,-3.4269,-3.4427,-3.4756,-3.5051,-3.519,-3.5369,-3.5479,-3.5512,-3.5584,-3.5599,-3.5612,-3.5689,-3.568,-3.5661,-3.5776,-3.5892,-3.5898,-3.5976,-3.5996,-3.6016,-3.5994,-3.5976,-3.5957,-3.5908,-3.5843,-3.5804,-3.5746,-3.568,-3.5605,-3.5579,-3.5572,-3.5512,-3.5465,-3.5369,-3.5289,-3.498,-3.4888,-3.4851,-3.4736,-3.4695,-3.4508,-3.4237,-3.4093,-3.4043,-3.3954,-3.3815,-3.3753,-3.3707,-3.3522,-3.335,-3.3166,-3.3075,-2.3125,-2.3138,-2.3261,-2.4184,-2.5287,-2.5606,-2.6373,-2.756,-2.756,-2.756,-2.756,-2.756,-2.756,-2.7565,-2.7595,-2.7731,-2.8053,-2.8274,-2.8782,-2.9871,-3.0133,-3.07,-3.1055,-3.1173,-3.119,-3.119,-3.119,-3.119,-3.1252,-3.147,-3.1716,-3.186,-3.2492,-3.2923,-3.3045,-3.3288,-3.3552,-3.368,-3.368,-3.368,-3.378,-3.3807,-3.3807,-3.3807,-3.3807,-3.3807,-3.3807,-3.3807,-3.3807,-3.3807,-3.3807,-3.3807,-3.3807,-3.3807,-3.3807,-3.3807,-3.3834,-3.3834,-3.3842,-3.4012,-3.4123,-3.4165,-3.442,-3.4675,-3.4889,-3.4999,-3.5207,-3.5354,-3.5479,-3.5526,-3.5584,-3.5584,-3.5649,-3.5704,-3.5789,-3.5834,-3.5848,-3.5861,-3.5909,-3.5957,-3.5996,-3.6016,-3.6016,-3.5957,-3.5948,-3.5911,-3.5824,-3.5736,-3.5685,-3.5636,-3.5584,-3.5545,-3.5526,-3.5512,-3.5388,-3.5289,-3.5086,-3.4997,-3.4755,-3.451,-3.4467,-3.4342,-3.4246,-3.4171,-3.4062,-3.3961,-3.3839,-3.376,-3.3578,-3.3578,-3.3504,-3.3225,-3.2965,-3.2809,-3.255,-2.3125,-2.315,-2.347,-2.4321,-2.537,-2.581,-2.6562,-2.7434,-2.756,-2.756,-2.756,-2.756,-2.756,-2.7645,-2.7839,-2.8121,-2.8308,-2.852,-2.8703,-2.9208,-2.9668,-3.0328,-3.0683,-3.1021,-3.119,-3.119,-3.119,-3.119,-3.1291,-3.1603,-3.1897,-3.2162,-3.2879,-3.3229,-3.3455,-3.368,-3.3762,-3.378,-3.3807,-3.3807,-3.3807,-3.3807,-3.3807,-3.3807,-3.3807,-3.3807,-3.3807,-3.3807,-3.3807,-3.3807,-3.3807,-3.3807,-3.3807,-3.3807,-3.3807,-3.3807,-3.3935,-3.3986,-3.4043,-3.4242,-3.4423,-3.4464,-3.4715,-3.4907,-3.5105,-3.5207,-3.5354,-3.5446,-3.5507,-3.5545,-3.5603,-3.5699,-3.5751,-3.5797,-3.5886,-3.5944,-3.5945,-3.596,-3.595,-3.5996,-3.6016,-3.5976,-3.5937,-3.5908,-3.5842,-3.584,-3.5732,-3.5642,-3.5611,-3.5584,-3.5545,-3.5507,-3.5507,-3.5432,-3.5273,-3.507,-3.4774,-3.4636,-3.4445,-3.4237,-3.4117,-3.3949,-3.3776,-3.376,-3.3752,-3.357,-3.3458,-3.339,-3.3255,-3.3057,-3.2903,-3.2759,-3.2565,-3.2298,-3.2039,-2.3125,-2.3163,-2.3974,-2.4726,-2.5481,-2.6168,-2.6905,-2.753,-2.756,-2.756,-2.756,-2.756,-2.756,-2.7745,-2.8336,-2.8556,-2.8718,-2.8733,-2.8789,-2.8569,-2.9127,-2.977,-3.0192,-3.0683,-3.1038,-3.1157,-3.119,-3.119,-3.1312,-3.166,-3.2144,-3.2537,-3.3062,-3.3448,-3.3716,-3.3807,-3.3807,-3.3807,-3.3807,-3.3807,-3.3807,-3.3807,-3.3807,-3.3807,-3.3807,-3.3807,-3.3807,-3.3807,-3.3807,-3.3807,-3.3807,-3.3834,-3.3868,-3.3868,-3.3868,-3.3895,-3.4141,-3.4265,-3.4334,-3.4553,-3.4754,-3.4774,-3.4999,-3.5138,-3.5223,-3.5354,-3.5446,-3.5493,-3.5526,-3.5584,-3.5641,-3.5776,-3.5894,-3.5925,-3.5963,-3.5999,-3.6018,-3.5997,-3.5968,-3.5957,-3.5976,-3.5937,-3.5872,-3.5816,-3.5772,-3.5718,-3.5641,-3.5584,-3.5565,-3.5532,-3.5493,-3.5412,-3.5398,-3.5083,-3.4888,-3.4794,-3.4489,-3.4311,-3.4123,-3.3968,-3.3797,-3.3643,-3.3496,-3.3486,-3.3419,-3.3225,-3.3027,-3.2934,-3.2777,-3.2517,-3.2384,-3.2332,-3.2092,-3.1789,-3.1565,-2.3125,-2.3163,-2.3974,-2.4726,-2.5467,-2.6168,-2.692,-2.753,-2.756,-2.756,-2.756,-2.756,-2.761,-2.7894,-2.881,-2.9399,-2.9407,-2.9201,-2.8856,-2.8501,-2.8653,-2.8786,-2.9786,-3.026,-3.0615,-3.1072,-3.123,-3.1252,-3.1411,-3.195,-3.2384,-3.2666,-3.3268,-3.3744,-3.3771,-3.3807,-3.3807,-3.3807,-3.3807,-3.3807,-3.3807,-3.3807,-3.3807,-3.3807,-3.3807,-3.3807,-3.3807,-3.3807,-3.3807,-3.3807,-3.3807,-3.3954,-3.4093,-3.4147,-3.4171,-3.4213,-3.4423,-3.4614,-3.4634,-3.487,-3.5018,-3.5088,-3.5254,-3.5398,-3.5432,-3.5479,-3.5493,-3.5526,-3.5584,-3.5641,-3.5834,-3.5894,-3.5921,-3.5967,-3.5996,-3.6016,-3.5976,-3.5966,-3.5912,-3.5873,-3.5892,-3.5892,-3.5797,-3.5733,-3.5701,-3.5641,-3.5584,-3.5545,-3.5526,-3.5493,-3.5446,-3.5369,-3.527,-3.4851,-3.4427,-3.436,-3.4195,-3.4018,-3.3858,-3.368,-3.3522,-3.3332,-3.3243,-3.3057,-3.2885,-3.2695,-3.2533,-3.2433,-3.235,-3.2196,-3.2039,-3.1897,-3.1733,-3.1565,-3.1411,-2.3365,-2.3747,-2.4154,-2.4945,-2.5918,-2.6337,-2.692,-2.753,-2.756,-2.756,-2.756,-2.7625,-2.781,-2.814,-2.8591,-2.9182,-2.9423,-2.9239,-2.8789,-2.8383,-2.8061,-2.8076,-2.9127,-2.9651,-3.0364,-3.0922,-3.1305,-3.1507,-3.1565,-3.2144,-3.2616,-3.2983,-3.3522,-3.3807,-3.3807,-3.3807,-3.3807,-3.3807,-3.3807,-3.3807,-3.3807,-3.3807,-3.3807,-3.3807,-3.3807,-3.3807,-3.3834,-3.3961,-3.3993,-3.4062,-3.4165,-3.4325,-3.4464,-3.4572,-3.4614,-3.4551,-3.4735,-3.4889,-3.4944,-3.5157,-3.5304,-3.5324,-3.5451,-3.5493,-3.5507,-3.5493,-3.5526,-3.5584,-3.5699,-3.5776,-3.5886,-3.5922,-3.5953,-3.5996,-3.6016,-3.5976,-3.5937,-3.5918,-3.5847,-3.5776,-3.5779,-3.5751,-3.5697,-3.5624,-3.5597,-3.5565,-3.5526,-3.5493,-3.5474,-3.5398,-3.5335,-3.5119,-3.498,-3.4617,-3.4218,-3.4099,-3.3975,-3.3778,-3.3578,-3.339,-3.3105,-3.2872,-3.2598,-3.2382,-3.2213,-3.2127,-3.2039,-3.195,-3.1932,-3.1877,-3.1694,-3.1507,-3.1432,-3.1351,-3.1252,-2.3484,-2.4086,-2.4374,-2.5222,-2.6201,-2.6645,-2.706,-2.753,-2.756,-2.756,-2.761,-2.776,-2.8042,-2.8463,-2.881,-2.9175,-2.9549,-2.9437,-2.889,-2.8264,-2.7926,-2.7858,-2.823,-2.917,-3.0257,-3.0783,-3.1602,-3.1915,-3.2022,-3.2466,-3.2858,-3.3184,-3.3597,-3.3807,-3.3807,-3.3807,-3.3807,-3.3807,-3.3807,-3.3807,-3.3807,-3.3807,-3.3807,-3.3834,-3.3842,-3.3902,-3.3954,-3.4165,-3.4288,-3.4375,-3.4508,-3.4694,-3.4793,-3.4981,-3.5035,-3.4926,-3.507,-3.5174,-3.5242,-3.5339,-3.5446,-3.5446,-3.5474,-3.5507,-3.5526,-3.5565,-3.5584,-3.568,-3.5776,-3.5886,-3.5931,-3.5977,-3.5996,-3.5976,-3.5976,-3.5957,-3.5898,-3.5833,-3.5753,-3.5699,-3.568,-3.5649,-3.5592,-3.5573,-3.5545,-3.5545,-3.5507,-3.5383,-3.5335,-3.5239,-3.5122,-3.4832,-3.4595,-3.4338,-3.4093,-3.3935,-3.3778,-3.356,-3.3361,-3.3166,-3.2727,-3.2315,-3.2074,-3.1844,-3.1752,-3.166,-3.1528,-3.1507,-3.1524,-3.1466,-3.1252,-3.123,-3.1291,-3.1291,-3.1213,-2.3138,-2.3378,-2.4734,-2.5384,-2.5783,-2.6894,-2.75,-2.756,-2.756,-2.756,-2.7625,-2.8091,-2.8383,-2.8748,-2.9673,-3.0369,-3.0549,-3.0116,-2.9499,-2.8839,-2.8247,-2.7909,-2.7996,-2.9076,-3.0058,-3.0782,-3.1823,-3.2364,-3.2533,-3.2903,-3.3105,-3.3302,-3.3625,-3.3807,-3.3807,-3.3807,-3.3807,-3.3807,-3.3807,-3.3807,-3.3807,-3.3834,-3.3834,-3.3895,-3.4018,-3.4171,-3.4213,-3.4445,-3.4614,-3.4653,-3.4674,-3.4851,-3.5018,-3.507,-3.5258,-3.5354,-3.5432,-3.5465,-3.5432,-3.546,-3.5507,-3.5507,-3.5507,-3.5545,-3.5592,-3.5656,-3.5726,-3.5853,-3.5894,-3.5931,-3.5976,-3.5996,-3.6016,-3.5976,-3.5944,-3.5928,-3.5875,-3.5764,-3.5669,-3.5622,-3.5603,-3.5565,-3.552,-3.552,-3.5507,-3.5507,-3.546,-3.5335,-3.5171,-3.5034,-3.4794,-3.4489,-3.4334,-3.4117,-3.4012,-3.3868,-3.3634,-3.3408,-3.3136,-3.2872,-3.24,-3.1951,-3.166,-3.1507,-3.1372,-3.1334,-3.1351,-3.1291,-3.123,-3.119,-3.119,-3.119,-3.119,-3.119,-3.119,-2.3365,-2.3852,-2.4936,-2.5658,-2.6136,-2.7137,-2.756,-2.756,-2.756,-2.756,-2.7625,-2.7845,-2.8319,-2.9134,-3.0251,-3.0918,-3.0999,-3.0463,-2.9973,-2.9533,-2.8876,-2.8371,-2.8391,-2.9108,-2.9965,-3.0934,-3.1773,-3.2661,-3.2967,-3.3166,-3.3273,-3.355,-3.3707,-3.3807,-3.3807,-3.3807,-3.3807,-3.3807,-3.3807,-3.3807,-3.3842,-3.3935,-3.4037,-3.4062,-3.433,-3.4464,-3.4551,-3.4755,-3.4907,-3.4963,-3.5034,-3.5187,-3.5304,-3.5339,-3.5403,-3.546,-3.5493,-3.5493,-3.5474,-3.5507,-3.5507,-3.5526,-3.554,-3.5598,-3.5669,-3.5757,-3.5833,-3.588,-3.5937,-3.5957,-3.5996,-3.6016,-3.5976,-3.5949,-3.5908,-3.5824,-3.5756,-3.5684,-3.5584,-3.5565,-3.5526,-3.5507,-3.5474,-3.5446,-3.5446,-3.5412,-3.5335,-3.5207,-3.4962,-3.4716,-3.4423,-3.4068,-3.3986,-3.3928,-3.3895,-3.3807,-3.3578,-3.3302,-3.2858,-3.255,-3.2074,-3.1677,-3.1411,-3.1312,-3.1291,-3.1213,-3.119,-3.119,-3.119,-3.119,-3.119,-3.119,-3.119,-3.1151,-3.1055,-2.3531,-2.4371,-2.5104,-2.5846,-2.6578,-2.7306,-2.756,-2.756,-2.756,-2.756,-2.771,-2.7993,-2.8717,-2.9629,-3.0617,-3.1151,-3.114,-3.0615,-3.0277,-2.9939,-2.9666,-2.9196,-2.9228,-2.9685,-3.0614,-3.1237,-3.226,-3.2974,-3.3386,-3.3578,-3.355,-3.3788,-3.378,-3.3807,-3.3807,-3.3834,-3.3815,-3.3954,-3.3944,-3.3988,-3.4093,-3.4218,-3.4311,-3.4423,-3.4593,-3.4812,-3.4832,-3.5051,-3.5171,-3.5239,-3.5335,-3.5412,-3.546,-3.546,-3.546,-3.5507,-3.5507,-3.5526,-3.5526,-3.5526,-3.5526,-3.5565,-3.5636,-3.5733,-3.5757,-3.5869,-3.5929,-3.592,-3.5943,-3.5996,-3.6016,-3.5996,-3.5957,-3.5891,-3.5836,-3.5732,-3.5641,-3.5584,-3.5545,-3.5526,-3.5507,-3.5507,-3.546,-3.5398,-3.5369,-3.535,-3.5239,-3.5051,-3.4755,-3.4405,-3.4189,-3.3895,-3.3868,-3.3842,-3.3815,-3.3726,-3.3494,-3.3136,-3.2681,-3.2196,-3.1714,-3.1487,-3.1291,-3.123,-3.119,-3.119,-3.119,-3.119,-3.119,-3.119,-3.119,-3.119,-3.119,-3.1095,-3.0781,-2.3603,-2.4345,-2.5091,-2.5819,-2.6549,-2.7306,-2.756,-2.756,-2.756,-2.7625,-2.7845,-2.867,-2.948,-3.0251,-3.0781,-3.119,-3.1173,-3.114,-3.0772,-3.0503,-3.0348,-3.0179,-3.0252,-3.0902,-3.1773,-3.2099,-3.2757,-3.3341,-3.3743,-3.3753,-3.3734,-3.3788,-3.3807,-3.3807,-3.3825,-3.387,-3.3979,-3.4134,-3.4199,-3.4325,-3.4475,-3.4632,-3.4653,-3.4734,-3.4907,-3.5069,-3.5069,-3.5304,-3.5432,-3.5432,-3.546,-3.5493,-3.5507,-3.5507,-3.5507,-3.5507,-3.5507,-3.5545,-3.5565,-3.5545,-3.5545,-3.5622,-3.5732,-3.5856,-3.5854,-3.5935,-3.5987,-3.5976,-3.5976,-3.5976,-3.5976,-3.5944,-3.5892,-3.583,-3.5757,-3.568,-3.5584,-3.5545,-3.5507,-3.5507,-3.5474,-3.546,-3.5383,-3.5304,-3.5254,-3.5223,-3.4943,-3.4736,-3.4405,-3.4099,-3.3986,-3.3834,-3.3834,-3.3807,-3.378,-3.3597,-3.3273,-3.284,-3.2384,-3.1896,-3.1389,-3.123,-3.119,-3.119,-3.119,-3.119,-3.119,-3.119,-3.119,-3.119,-3.119,-3.1134,-3.0781,-3.0477,-3.0081,-2.3603,-2.4363,-2.51,-2.584,-2.6549,-2.7306,-2.756,-2.756,-2.761,-2.786,-2.8189,-2.9042,-2.9717,-3.0351,-3.0878,-3.119,-3.1224,-3.1489,-3.1321,-3.1396,-3.1498,-3.1474,-3.1542,-3.1649,-3.2144,-3.2475,-3.2965,-3.3403,-3.377,-3.3807,-3.3807,-3.3807,-3.3834,-3.3807,-3.3825,-3.3987,-3.4204,-3.4435,-3.451,-3.4579,-3.4659,-3.4889,-3.4944,-3.4963,-3.5207,-3.532,-3.535,-3.5432,-3.5474,-3.5507,-3.5507,-3.5507,-3.5507,-3.5507,-3.5507,-3.5507,-3.5526,-3.5584,-3.5603,-3.5603,-3.5622,-3.5776,-3.5861,-3.5921,-3.5937,-3.5996,-3.5996,-3.5996,-3.5977,-3.5949,-3.5921,-3.5843,-3.5766,-3.5726,-3.5661,-3.5603,-3.5565,-3.5507,-3.5507,-3.5507,-3.546,-3.5432,-3.5304,-3.5174,-3.5138,-3.5088,-3.4756,-3.4427,-3.4123,-3.391,-3.3842,-3.3807,-3.3807,-3.3753,-3.3707,-3.3408,-3.3014,-3.255,-3.2074,-3.164,-3.1252,-3.123,-3.119,-3.119,-3.119,-3.1151,-3.1151,-3.119,-3.119,-3.119,-3.1095,-3.1015,-3.0518,-2.9848,-2.9406,-2.3708,-2.4667,-2.5163,-2.5833,-2.6563,-2.7306,-2.756,-2.756,-2.756,-2.7944,-2.8559,-2.9287,-2.9892,-3.0393,-3.0918,-3.119,-3.1314,-3.1545,-3.173,-3.1963,-3.2248,-3.2503,-3.2469,-3.2534,-3.2839,-3.2936,-3.3018,-3.3385,-3.377,-3.3807,-3.3807,-3.3834,-3.3895,-3.3928,-3.3998,-3.4191,-3.4498,-3.4737,-3.4814,-3.4879,-3.4961,-3.5105,-3.5223,-3.5223,-3.5403,-3.5446,-3.546,-3.5474,-3.5474,-3.5507,-3.5507,-3.5507,-3.5507,-3.5526,-3.5526,-3.5545,-3.5584,-3.5641,-3.568,-3.5699,-3.5757,-3.5853,-3.5922,-3.5969,-3.5996,-3.6016,-3.5996,-3.5976,-3.592,-3.5886,-3.5867,-3.5755,-3.5684,-3.5655,-3.5603,-3.5545,-3.5526,-3.5507,-3.5507,-3.5488,-3.5422,-3.5269,-3.5086,-3.4925,-3.4735,-3.4636,-3.4379,-3.4165,-3.3986,-3.3842,-3.3834,-3.3807,-3.3807,-3.3707,-3.3606,-3.3166,-3.2681,-3.2248,-3.1806,-3.1545,-3.1291,-3.123,-3.119,-3.119,-3.1151,-3.1112,-3.0975,-3.0797,-3.0958,-3.1173,-3.0918,-3.0601,-2.9805,-2.9134,-2.8732,-2.3936,-2.5314,-2.5339,-2.573,-2.6433,-2.7291,-2.756,-2.7625,-2.766,-2.8042,-2.8779,-2.9761,-3.0251,-3.0477,-3.1015,-3.119,-3.1297,-3.1596,-3.1777,-3.1965,-3.2666,-3.3014,-3.3219,-3.3312,-3.3433,-3.3707,-3.366,-3.3623,-3.3788,-3.385,-3.3842,-3.3954,-3.4099,-3.4265,-3.4223,-3.4526,-3.4832,-3.5049,-3.51,-3.5225,-3.534,-3.5398,-3.5432,-3.5446,-3.5479,-3.5507,-3.5507,-3.5507,-3.5507,-3.5507,-3.5507,-3.5507,-3.5526,-3.5565,-3.5578,-3.5599,-3.5655,-3.5757,-3.5872,-3.5886,-3.59,-3.5916,-3.5957,-3.5996,-3.6016,-3.5996,-3.5976,-3.5939,-3.5881,-3.5815,-3.5751,-3.5655,-3.563,-3.5578,-3.5526,-3.5526,-3.5507,-3.5493,-3.5493,-3.54,-3.5227,-3.5077,-3.4868,-3.4656,-3.436,-3.4147,-3.3979,-3.3842,-3.3834,-3.3807,-3.3807,-3.3734,-3.3734,-3.3569,-3.3361,-3.2809,-3.235,-3.1914,-3.1603,-3.1389,-3.1252,-3.123,-3.119,-3.119,-3.1151,-3.1112,-3.0699,-3.0309,-3.0393,-3.0335,-3.0293,-2.9892,-2.9104,-2.8463,-2.8189,-2.2575,-2.3446,-2.3959,-2.4581,-2.5344,-2.695,-2.761,-2.766,-2.8042,-2.8764,-2.9613,-3.0208,-3.0576,-3.0895,-3.1055,-3.119,-3.1297,-3.1596,-3.1777,-3.1933,-3.2813,-3.3087,-3.3335,-3.3578,-3.3807,-3.3807,-3.3807,-3.3807,-3.3807,-3.3935,-3.4025,-3.4128,-3.4492,-3.4756,-3.4812,-3.4946,-3.5097,-3.5327,-3.5369,-3.5416,-3.5488,-3.5507,-3.5507,-3.5507,-3.5507,-3.5507,-3.5507,-3.5507,-3.5507,-3.5507,-3.5507,-3.5526,-3.5565,-3.5603,-3.5618,-3.5681,-3.5751,-3.5853,-3.5929,-3.596,-3.5973,-3.5976,-3.5996,-3.6016,-3.6016,-3.6016,-3.5957,-3.5878,-3.5803,-3.5732,-3.5641,-3.5584,-3.5545,-3.5526,-3.5507,-3.5507,-3.5507,-3.5493,-3.547,-3.5261,-3.5113,-3.4776,-3.452,-3.4375,-3.4117,-3.4012,-3.3868,-3.386,-3.3807,-3.3807,-3.3807,-3.368,-3.3578,-3.3408,-3.3093,-3.2533,-3.2144,-3.177,-3.1507,-3.1291,-3.119,-3.119,-3.119,-3.119,-3.1151,-3.1015,-3.0435,-2.9908,-2.954,-2.9406,-2.9316,-2.9271,-2.8732,-2.8174,-2.781,-2.1898,-2.2524,-2.3278,-2.3983,-2.4745,-2.6268,-2.7139,-2.7643,-2.8435,-2.9361,-3.0166,-3.0477,-3.0797,-3.1112,-3.119,-3.119,-3.1241,-3.1805,-3.2038,-3.2179,-3.2993,-3.3345,-3.353,-3.3634,-3.378,-3.3807,-3.3815,-3.3823,-3.3979,-3.4123,-3.4315,-3.4576,-3.4907,-3.5069,-3.516,-3.5253,-3.5308,-3.5465,-3.5468,-3.5468,-3.5507,-3.5507,-3.5507,-3.5507,-3.5507,-3.5507,-3.5507,-3.5507,-3.5507,-3.5526,-3.5545,-3.5584,-3.5622,-3.5663,-3.5712,-3.5789,-3.5846,-3.5931,-3.597,-3.5992,-3.5996,-3.6016,-3.6016,-3.6016,-3.5996,-3.5976,-3.5918,-3.5824,-3.5721,-3.5636,-3.5584,-3.5526,-3.5507,-3.5507,-3.5507,-3.5507,-3.5455,-3.5455,-3.5308,-3.5116,-3.4783,-3.447,-3.4221,-3.4049,-3.3868,-3.386,-3.3807,-3.3807,-3.378,-3.3707,-3.3634,-3.3522,-3.3225,-3.2903,-3.2598,-3.223,-3.1861,-3.1623,-3.1411,-3.119,-3.119,-3.119,-3.119,-3.119,-3.1095,-3.0838,-3.0038,-2.9451,-2.8857,-2.8496,-2.8367,-2.8271,-2.8174,-2.7944,-2.761,-2.1889,-2.2631,-2.3275,-2.392,-2.4704,-2.5352,-2.6305,-2.7519,-2.877,-2.9636,-3.0269,-3.0811,-3.1151,-3.119,-3.119,-3.1213,-3.1353,-3.2037,-3.2273,-3.263,-3.319,-3.3508,-3.366,-3.3734,-3.3842,-3.3842,-3.3876,-3.4018,-3.4195,-3.436,-3.4636,-3.4944,-3.5122,-3.5254,-3.5388,-3.5436,-3.5451,-3.5493,-3.5507,-3.5507,-3.5507,-3.5507,-3.5507,-3.5507,-3.5507,-3.5507,-3.5507,-3.5526,-3.5545,-3.5565,-3.5603,-3.5641,-3.5713,-3.5823,-3.5874,-3.5919,-3.5942,-3.5976,-3.5996,-3.6016,-3.5996,-3.5996,-3.5996,-3.5996,-3.5976,-3.5939,-3.5863,-3.5764,-3.5662,-3.5599,-3.5526,-3.5507,-3.5507,-3.5507,-3.5507,-3.5468,-3.5397,-3.5292,-3.5122,-3.4868,-3.445,-3.4157,-3.3983,-3.3807,-3.3807,-3.3807,-3.3807,-3.3807,-3.3726,-3.3437,-3.3379,-3.3273,-3.2903,-3.2348,-3.2057,-3.1861,-3.1623,-3.1411,-3.1351,-3.119,-3.119,-3.119,-3.119,-3.1151,-3.1095,-3.0658,-2.9805,-2.8857,-2.7929,-2.771,-2.781,-2.781,-2.7894,-2.7795,-2.756,-2.0914,-2.1942,-2.2138,-2.2871,-2.3925,-2.4611,-2.5603,-2.6894,-2.816,-2.9043,-2.965,-3.074,-3.114,-3.119,-3.119,-3.1372,-3.1641,-3.1888,-3.2191,-3.2647,-3.3214,-3.3321,-3.3476,-3.3689,-3.3858,-3.4018,-3.4099,-3.4242,-3.4551,-3.4695,-3.498,-3.5339,-3.5354,-3.5432,-3.546,-3.5507,-3.5507,-3.5507,-3.5507,-3.5507,-3.5507,-3.5507,-3.5507,-3.5507,-3.5507,-3.5507,-3.5526,-3.5545,-3.5584,-3.5603,-3.5661,-3.5718,-3.5848,-3.5885,-3.5912,-3.5955,-3.5996,-3.6016,-3.6016,-3.6016,-3.5999,-3.5955,-3.5927,-3.5943,-3.5918,-3.5875,-3.5785,-3.5695,-3.5623,-3.5553,-3.5526,-3.5507,-3.5507,-3.5507,-3.546,-3.5374,-3.5283,-3.5097,-3.4884,-3.451,-3.4107,-3.3989,-3.3825,-3.3807,-3.3807,-3.3807,-3.3807,-3.378,-3.3625,-3.3302,-3.3124,-3.3014,-3.2517,-3.1933,-3.177,-3.1603,-3.1411,-3.1213,-3.119,-3.119,-3.119,-3.119,-3.119,-3.1015,-3.0658,-3.0166,-2.9601,-2.8638,-2.761,-2.756,-2.766,-2.761,-2.756,-2.756,-2.756,-2.062,-2.139,-2.1913,-2.2711,-2.3596,-2.4038,-2.478,-2.5839,-2.7317,-2.8526,-2.9649,-3.0432,-3.092,-3.1213,-3.1372,-3.1565,-3.1787,-3.2298,-3.2599,-3.2876,-3.3221,-3.3423,-3.357,-3.3778,-3.4018,-3.4195,-3.436,-3.4553,-3.4851,-3.5105,-3.5369,-3.546,-3.5507,-3.5507,-3.5507,-3.5507,-3.5507,-3.5507,-3.5507,-3.5507,-3.5507,-3.5507,-3.5507,-3.5507,-3.5507,-3.5507,-3.5545,-3.5584,-3.5622,-3.5699,-3.5757,-3.5825,-3.5922,-3.5935,-3.5957,-3.5976,-3.5996,-3.6016,-3.6016,-3.6016,-3.5957,-3.5902,-3.5879,-3.5854,-3.5803,-3.574,-3.5674,-3.5611,-3.5578,-3.5545,-3.5526,-3.5507,-3.5507,-3.5507,-3.5379,-3.5262,-3.5066,-3.4885,-3.4544,-3.4148,-3.3962,-3.3889,-3.3807,-3.3807,-3.378,-3.3753,-3.3652,-3.3494,-3.3332,-3.3027,-3.289,-3.2763,-3.2144,-3.1528,-3.1432,-3.1411,-3.1312,-3.119,-3.119,-3.119,-3.119,-3.1112,-3.1055,-3.0617,-3.0081,-2.9601,-2.915,-2.8352,-2.756,-2.756,-2.756,-2.756,-2.756,-2.756,-2.756,-2.0746,-2.1028,-2.2267,-2.3098,-2.3551,-2.3625,-2.4009,-2.4651,-2.6379,-2.8078,-2.9492,-2.9935,-3.0417,-3.1031,-3.1345,-3.174,-3.2179,-3.2702,-3.3037,-3.3273,-3.3613,-3.3799,-3.388,-3.4117,-3.4311,-3.4401,-3.4572,-3.4851,-3.5122,-3.532,-3.5446,-3.5507,-3.5507,-3.5507,-3.5507,-3.5507,-3.5507,-3.5507,-3.5507,-3.5526,-3.5526,-3.5507,-3.5507,-3.5526,-3.5526,-3.5526,-3.5584,-3.5641,-3.5699,-3.5815,-3.5913,-3.5927,-3.5958,-3.5996,-3.5996,-3.5996,-3.6016,-3.5996,-3.5996,-3.5976,-3.5937,-3.5878,-3.5867,-3.5766,-3.5682,-3.5661,-3.5622,-3.5584,-3.5545,-3.5526,-3.5507,-3.5474,-3.5474,-3.5383,-3.527,-3.5047,-3.4793,-3.4547,-3.4203,-3.3923,-3.388,-3.3807,-3.3807,-3.3807,-3.3807,-3.3753,-3.3522,-3.3302,-3.3027,-3.2759,-3.2533,-3.2451,-3.1896,-3.1351,-3.1312,-3.1291,-3.1252,-3.119,-3.119,-3.119,-3.119,-3.1055,-3.0878,-3.0351,-2.9805,-2.918,-2.8654,-2.7993,-2.761,-2.756,-2.756,-2.756,-2.756,-2.756,-2.756,-2.062,-2.1615,-2.2846,-2.3465,-2.3595,-2.3595,-2.4142,-2.5005,-2.5447,-2.6574,-2.7852,-2.8844,-2.9839,-3.0729,-3.0959,-3.1529,-3.2674,-3.287,-3.3327,-3.3634,-3.3956,-3.4088,-3.4176,-3.4442,-3.4636,-3.4851,-3.5016,-3.5141,-3.532,-3.546,-3.5507,-3.5507,-3.5507,-3.5507,-3.5507,-3.5507,-3.5507,-3.5526,-3.5545,-3.5584,-3.5584,-3.5545,-3.5526,-3.5584,-3.5622,-3.5617,-3.5674,-3.5776,-3.5834,-3.5894,-3.5957,-3.5977,-3.6016,-3.6016,-3.6016,-3.6016,-3.6016,-3.5976,-3.5954,-3.5909,-3.585,-3.5751,-3.568,-3.5603,-3.5565,-3.5584,-3.5565,-3.5545,-3.5526,-3.5507,-3.5474,-3.546,-3.5417,-3.5289,-3.5086,-3.4794,-3.4496,-3.4209,-3.3887,-3.3839,-3.3834,-3.3807,-3.3807,-3.378,-3.3807,-3.3652,-3.339,-3.3136,-3.2791,-3.25,-3.2092,-3.1914,-3.1637,-3.1269,-3.119,-3.119,-3.119,-3.119,-3.119,-3.119,-3.119,-3.0878,-3.0559,-3.0123,-2.9585,-2.8919,-2.8415,-2.7993,-2.7725,-2.761,-2.756,-2.756,-2.756,-2.756,-2.756,-2.1037,-2.1838,-2.3069,-2.3595,-2.3666,-2.3838,-2.4436,-2.5166,-2.5449,-2.6049,-2.7016,-2.8201,-2.9265,-3.0228,-3.0547,-3.1306,-3.2559,-3.2847,-3.3358,-3.3852,-3.4113,-3.428,-3.448,-3.4734,-3.487,-3.5088,-3.5258,-3.5369,-3.5474,-3.5507,-3.5507,-3.5507,-3.5507,-3.5526,-3.5545,-3.5545,-3.5545,-3.5584,-3.5617,-3.5661,-3.5682,-3.5642,-3.5598,-3.5675,-3.5681,-3.57,-3.5784,-3.5874,-3.5908,-3.5937,-3.5977,-3.5996,-3.6016,-3.6016,-3.6016,-3.5996,-3.5976,-3.5954,-3.5905,-3.5834,-3.5738,-3.5661,-3.5603,-3.5565,-3.5526,-3.5526,-3.5526,-3.5507,-3.5507,-3.5507,-3.5432,-3.5417,-3.5289,-3.5155,-3.4794,-3.4427,-3.42,-3.3993,-3.3831,-3.3823,-3.3807,-3.3807,-3.3753,-3.3522,-3.3494,-3.3302,-3.3075,-3.2663,-3.24,-3.2196,-3.1789,-3.1528,-3.1329,-3.123,-3.119,-3.119,-3.119,-3.119,-3.119,-3.119,-3.1095,-3.0642,-3.0192,-2.9717,-2.918,-2.8591,-2.8091,-2.781,-2.7725,-2.761,-2.756,-2.756,-2.756,-2.756,-2.7408,-2.1663,-2.1993,-2.3128,-2.3638,-2.3734,-2.4193,-2.4732,-2.5341,-2.5779,-2.6262,-2.6826,-2.7887,-2.8724,-2.9534,-3.0273,-3.1092,-3.188,-3.25,-3.3243,-3.378,-3.4175,-3.4469,-3.4756,-3.4999,-3.5138,-3.5239,-3.5369,-3.5432,-3.5474,-3.5507,-3.5507,-3.5526,-3.5545,-3.5565,-3.5603,-3.5636,-3.5649,-3.5682,-3.5721,-3.579,-3.5801,-3.5766,-3.5737,-3.5718,-3.5728,-3.5795,-3.5875,-3.591,-3.5944,-3.5976,-3.5996,-3.5996,-3.6016,-3.6016,-3.5996,-3.597,-3.5937,-3.5879,-3.5815,-3.5738,-3.5661,-3.5603,-3.5584,-3.5565,-3.5507,-3.5507,-3.5507,-3.5474,-3.5474,-3.5446,-3.5369,-3.5273,-3.5138,-3.487,-3.4449,-3.4123,-3.3961,-3.3815,-3.3807,-3.3807,-3.3807,-3.3807,-3.3597,-3.3361,-3.3136,-3.2952,-3.2583,-3.2127,-3.1789,-3.1696,-3.147,-3.1334,-3.1252,-3.119,-3.119,-3.119,-3.119,-3.119,-3.119,-3.1151,-3.0918,-3.0166,-2.9585,-2.9271,-2.8732,-2.8189,-2.7894,-2.766,-2.761,-2.756,-2.756,-2.756,-2.756,-2.7509,-2.7188,-2.1595,-2.2589,-2.3319,-2.3837,-2.422,-2.4375,-2.4976,-2.5783,-2.5924,-2.6262,-2.6842,-2.7596,-2.8417,-2.9183,-2.9589,-3.0387,-3.1425,-3.2125,-3.2693,-3.3194,-3.4166,-3.468,-3.4994,-3.5239,-3.5383,-3.5446,-3.546,-3.5474,-3.5507,-3.5507,-3.5526,-3.5565,-3.5578,-3.5617,-3.568,-3.5701,-3.57,-3.5745,-3.5809,-3.5881,-3.5854,-3.5824,-3.5827,-3.5846,-3.5891,-3.5924,-3.5943,-3.5971,-3.5989,-3.6016,-3.6016,-3.6016,-3.6016,-3.5996,-3.5976,-3.5931,-3.5894,-3.5811,-3.5718,-3.5661,-3.5603,-3.5545,-3.5526,-3.5526,-3.5507,-3.5507,-3.5474,-3.5446,-3.5432,-3.5339,-3.5258,-3.5122,-3.4944,-3.451,-3.4068,-3.3961,-3.3842,-3.3807,-3.3807,-3.378,-3.3762,-3.3606,-3.3379,-3.3136,-3.2872,-3.2616,-3.2213,-3.1806,-3.166,-3.1449,-3.119,-3.119,-3.119,-3.119,-3.119,-3.119,-3.119,-3.119,-3.1055,-3.0838,-3.0293,-2.9361,-2.8873,-2.8826,-2.8415,-2.781,-2.761,-2.756,-2.756,-2.756,-2.756,-2.756,-2.756,-2.7458,-2.7203]}]]